<?xml version="1.0" encoding="UTF-8" standalone="no" ?>
<gpx xmlns="http://www.topografix.com/GPX/1/1" xmlns:xsi="http://www.w3.org/2001/XMLSchema-instance" xsi:schemaLocation="http://www.topografix.com/GPX/1/1 http://www.topografix.com/GPX/1/1/gpx.xsd" version="1.1" creator="VisuGPX - https://www.visugpx.com">
  <metadata>
    <name>Jura 2016 / Jour 1</name>
    <desc><![CDATA[Le Mont d'OR depuis Metabief]]></desc>
  </metadata>
  <trk>
    <name><![CDATA[Tracé 14 juil. 2016 14:13:23]]></name>
    <trkseg>
      <trkpt lat="46.77319" lon="6.35218">
        <ele>972</ele>
        <time>2016-07-14T12:13:23Z</time>
      </trkpt>
      <trkpt lat="46.77327" lon="6.3522">
        <ele>972</ele>
        <time>2016-07-14T12:13:37Z</time>
      </trkpt>
      <trkpt lat="46.77311" lon="6.35212">
        <ele>972</ele>
        <time>2016-07-14T12:13:42Z</time>
      </trkpt>
      <trkpt lat="46.77318" lon="6.35219">
        <ele>972</ele>
        <time>2016-07-14T12:14:19Z</time>
      </trkpt>
      <trkpt lat="46.77311" lon="6.35225">
        <ele>972</ele>
        <time>2016-07-14T12:14:27Z</time>
      </trkpt>
      <trkpt lat="46.77302" lon="6.35231">
        <ele>973</ele>
        <time>2016-07-14T12:14:32Z</time>
      </trkpt>
      <trkpt lat="46.77291" lon="6.35231">
        <ele>973</ele>
        <time>2016-07-14T12:14:36Z</time>
      </trkpt>
      <trkpt lat="46.77281" lon="6.35236">
        <ele>974</ele>
        <time>2016-07-14T12:14:40Z</time>
      </trkpt>
      <trkpt lat="46.7727" lon="6.35243">
        <ele>975</ele>
        <time>2016-07-14T12:14:44Z</time>
      </trkpt>
      <trkpt lat="46.77258" lon="6.35251">
        <ele>976</ele>
        <time>2016-07-14T12:14:48Z</time>
      </trkpt>
      <trkpt lat="46.77247" lon="6.35259">
        <ele>978</ele>
        <time>2016-07-14T12:14:52Z</time>
      </trkpt>
      <trkpt lat="46.77235" lon="6.35266">
        <ele>979</ele>
        <time>2016-07-14T12:14:57Z</time>
      </trkpt>
      <trkpt lat="46.77224" lon="6.35274">
        <ele>980</ele>
        <time>2016-07-14T12:15:00Z</time>
      </trkpt>
      <trkpt lat="46.77212" lon="6.35284">
        <ele>981</ele>
        <time>2016-07-14T12:15:05Z</time>
      </trkpt>
      <trkpt lat="46.77204" lon="6.35291">
        <ele>981</ele>
        <time>2016-07-14T12:15:09Z</time>
      </trkpt>
      <trkpt lat="46.77197" lon="6.35298">
        <ele>982</ele>
        <time>2016-07-14T12:15:14Z</time>
      </trkpt>
      <trkpt lat="46.77189" lon="6.35305">
        <ele>982</ele>
        <time>2016-07-14T12:15:19Z</time>
      </trkpt>
      <trkpt lat="46.77182" lon="6.35311">
        <ele>983</ele>
        <time>2016-07-14T12:15:24Z</time>
      </trkpt>
      <trkpt lat="46.77174" lon="6.35317">
        <ele>984</ele>
        <time>2016-07-14T12:15:29Z</time>
      </trkpt>
      <trkpt lat="46.77167" lon="6.35325">
        <ele>985</ele>
        <time>2016-07-14T12:15:34Z</time>
      </trkpt>
      <trkpt lat="46.77159" lon="6.35333">
        <ele>987</ele>
        <time>2016-07-14T12:15:39Z</time>
      </trkpt>
      <trkpt lat="46.77153" lon="6.35342">
        <ele>989</ele>
        <time>2016-07-14T12:15:43Z</time>
      </trkpt>
      <trkpt lat="46.77148" lon="6.35354">
        <ele>990</ele>
        <time>2016-07-14T12:15:48Z</time>
      </trkpt>
      <trkpt lat="46.77144" lon="6.35363">
        <ele>991</ele>
        <time>2016-07-14T12:15:52Z</time>
      </trkpt>
      <trkpt lat="46.77136" lon="6.35373">
        <ele>991</ele>
        <time>2016-07-14T12:15:57Z</time>
      </trkpt>
      <trkpt lat="46.7713" lon="6.3538">
        <ele>992</ele>
        <time>2016-07-14T12:16:01Z</time>
      </trkpt>
      <trkpt lat="46.77122" lon="6.35382">
        <ele>992</ele>
        <time>2016-07-14T12:16:05Z</time>
      </trkpt>
      <trkpt lat="46.77116" lon="6.35384">
        <ele>993</ele>
        <time>2016-07-14T12:16:09Z</time>
      </trkpt>
      <trkpt lat="46.77108" lon="6.35383">
        <ele>993</ele>
        <time>2016-07-14T12:16:13Z</time>
      </trkpt>
      <trkpt lat="46.77099" lon="6.3538">
        <ele>993</ele>
        <time>2016-07-14T12:16:18Z</time>
      </trkpt>
      <trkpt lat="46.77091" lon="6.35374">
        <ele>993</ele>
        <time>2016-07-14T12:16:23Z</time>
      </trkpt>
      <trkpt lat="46.77085" lon="6.35366">
        <ele>993</ele>
        <time>2016-07-14T12:16:28Z</time>
      </trkpt>
      <trkpt lat="46.77079" lon="6.35359">
        <ele>998</ele>
        <time>2016-07-14T12:16:33Z</time>
      </trkpt>
      <trkpt lat="46.77072" lon="6.35353">
        <ele>998</ele>
        <time>2016-07-14T12:16:37Z</time>
      </trkpt>
      <trkpt lat="46.77065" lon="6.35348">
        <ele>998</ele>
        <time>2016-07-14T12:16:41Z</time>
      </trkpt>
      <trkpt lat="46.77064" lon="6.35346">
        <ele>998</ele>
        <time>2016-07-14T12:16:42Z</time>
      </trkpt>
      <trkpt lat="46.77056" lon="6.35339">
        <ele>998</ele>
        <time>2016-07-14T12:16:47Z</time>
      </trkpt>
      <trkpt lat="46.77048" lon="6.35332">
        <ele>998</ele>
        <time>2016-07-14T12:16:52Z</time>
      </trkpt>
      <trkpt lat="46.7704" lon="6.35323">
        <ele>999</ele>
        <time>2016-07-14T12:16:57Z</time>
      </trkpt>
      <trkpt lat="46.77033" lon="6.35314">
        <ele>999</ele>
        <time>2016-07-14T12:17:01Z</time>
      </trkpt>
      <trkpt lat="46.77025" lon="6.35304">
        <ele>999</ele>
        <time>2016-07-14T12:17:06Z</time>
      </trkpt>
      <trkpt lat="46.77018" lon="6.35292">
        <ele>999</ele>
        <time>2016-07-14T12:17:11Z</time>
      </trkpt>
      <trkpt lat="46.77013" lon="6.35284">
        <ele>999</ele>
        <time>2016-07-14T12:17:15Z</time>
      </trkpt>
      <trkpt lat="46.77007" lon="6.35275">
        <ele>1000</ele>
        <time>2016-07-14T12:17:19Z</time>
      </trkpt>
      <trkpt lat="46.76999" lon="6.35264">
        <ele>1002</ele>
        <time>2016-07-14T12:17:23Z</time>
      </trkpt>
      <trkpt lat="46.76992" lon="6.35253">
        <ele>1002</ele>
        <time>2016-07-14T12:17:27Z</time>
      </trkpt>
      <trkpt lat="46.76985" lon="6.35241">
        <ele>1002</ele>
        <time>2016-07-14T12:17:32Z</time>
      </trkpt>
      <trkpt lat="46.76977" lon="6.35227">
        <ele>1003</ele>
        <time>2016-07-14T12:17:37Z</time>
      </trkpt>
      <trkpt lat="46.76968" lon="6.35213">
        <ele>1003</ele>
        <time>2016-07-14T12:17:42Z</time>
      </trkpt>
      <trkpt lat="46.76961" lon="6.35202">
        <ele>1003</ele>
        <time>2016-07-14T12:17:46Z</time>
      </trkpt>
      <trkpt lat="46.76954" lon="6.35191">
        <ele>1004</ele>
        <time>2016-07-14T12:17:49Z</time>
      </trkpt>
      <trkpt lat="46.76947" lon="6.35181">
        <ele>1004</ele>
        <time>2016-07-14T12:17:54Z</time>
      </trkpt>
      <trkpt lat="46.76937" lon="6.35172">
        <ele>1004</ele>
        <time>2016-07-14T12:17:59Z</time>
      </trkpt>
      <trkpt lat="46.76927" lon="6.35166">
        <ele>1004</ele>
        <time>2016-07-14T12:18:03Z</time>
      </trkpt>
      <trkpt lat="46.76915" lon="6.35161">
        <ele>1004</ele>
        <time>2016-07-14T12:18:08Z</time>
      </trkpt>
      <trkpt lat="46.76905" lon="6.3516">
        <ele>1004</ele>
        <time>2016-07-14T12:18:12Z</time>
      </trkpt>
      <trkpt lat="46.76894" lon="6.3516">
        <ele>1003</ele>
        <time>2016-07-14T12:18:16Z</time>
      </trkpt>
      <trkpt lat="46.76881" lon="6.35161">
        <ele>1003</ele>
        <time>2016-07-14T12:18:21Z</time>
      </trkpt>
      <trkpt lat="46.76873" lon="6.35162">
        <ele>1003</ele>
        <time>2016-07-14T12:18:24Z</time>
      </trkpt>
      <trkpt lat="46.76863" lon="6.35163">
        <ele>1003</ele>
        <time>2016-07-14T12:18:28Z</time>
      </trkpt>
      <trkpt lat="46.76852" lon="6.35164">
        <ele>1003</ele>
        <time>2016-07-14T12:18:33Z</time>
      </trkpt>
      <trkpt lat="46.7684" lon="6.35163">
        <ele>1004</ele>
        <time>2016-07-14T12:18:38Z</time>
      </trkpt>
      <trkpt lat="46.76833" lon="6.35164">
        <ele>1004</ele>
        <time>2016-07-14T12:18:42Z</time>
      </trkpt>
      <trkpt lat="46.76818" lon="6.35165">
        <ele>1005</ele>
        <time>2016-07-14T12:18:47Z</time>
      </trkpt>
      <trkpt lat="46.76811" lon="6.35162">
        <ele>1005</ele>
        <time>2016-07-14T12:18:50Z</time>
      </trkpt>
      <trkpt lat="46.76802" lon="6.35158">
        <ele>1005</ele>
        <time>2016-07-14T12:18:54Z</time>
      </trkpt>
      <trkpt lat="46.76793" lon="6.35154">
        <ele>1005</ele>
        <time>2016-07-14T12:18:58Z</time>
      </trkpt>
      <trkpt lat="46.76782" lon="6.35148">
        <ele>1006</ele>
        <time>2016-07-14T12:19:03Z</time>
      </trkpt>
      <trkpt lat="46.7677" lon="6.35141">
        <ele>1006</ele>
        <time>2016-07-14T12:19:08Z</time>
      </trkpt>
      <trkpt lat="46.76757" lon="6.35136">
        <ele>1006</ele>
        <time>2016-07-14T12:19:13Z</time>
      </trkpt>
      <trkpt lat="46.76745" lon="6.35129">
        <ele>1009</ele>
        <time>2016-07-14T12:19:17Z</time>
      </trkpt>
      <trkpt lat="46.76732" lon="6.35117">
        <ele>1009</ele>
        <time>2016-07-14T12:19:21Z</time>
      </trkpt>
      <trkpt lat="46.76721" lon="6.35108">
        <ele>1009</ele>
        <time>2016-07-14T12:19:26Z</time>
      </trkpt>
      <trkpt lat="46.76713" lon="6.35097">
        <ele>1010</ele>
        <time>2016-07-14T12:19:30Z</time>
      </trkpt>
      <trkpt lat="46.76702" lon="6.35082">
        <ele>1008</ele>
        <time>2016-07-14T12:19:35Z</time>
      </trkpt>
      <trkpt lat="46.76693" lon="6.35065">
        <ele>1009</ele>
        <time>2016-07-14T12:19:40Z</time>
      </trkpt>
      <trkpt lat="46.76687" lon="6.35048">
        <ele>1009</ele>
        <time>2016-07-14T12:19:44Z</time>
      </trkpt>
      <trkpt lat="46.76678" lon="6.35029">
        <ele>1009</ele>
        <time>2016-07-14T12:19:49Z</time>
      </trkpt>
      <trkpt lat="46.76669" lon="6.35008">
        <ele>1010</ele>
        <time>2016-07-14T12:19:54Z</time>
      </trkpt>
      <trkpt lat="46.76665" lon="6.35001">
        <ele>1011</ele>
        <time>2016-07-14T12:19:57Z</time>
      </trkpt>
      <trkpt lat="46.76654" lon="6.34974">
        <ele>1012</ele>
        <time>2016-07-14T12:20:02Z</time>
      </trkpt>
      <trkpt lat="46.76648" lon="6.34958">
        <ele>1012</ele>
        <time>2016-07-14T12:20:05Z</time>
      </trkpt>
      <trkpt lat="46.76636" lon="6.34934">
        <ele>1012</ele>
        <time>2016-07-14T12:20:10Z</time>
      </trkpt>
      <trkpt lat="46.76627" lon="6.34915">
        <ele>1013</ele>
        <time>2016-07-14T12:20:14Z</time>
      </trkpt>
      <trkpt lat="46.76616" lon="6.34892">
        <ele>1013</ele>
        <time>2016-07-14T12:20:19Z</time>
      </trkpt>
      <trkpt lat="46.76607" lon="6.34872">
        <ele>1013</ele>
        <time>2016-07-14T12:20:23Z</time>
      </trkpt>
      <trkpt lat="46.76598" lon="6.34854">
        <ele>1013</ele>
        <time>2016-07-14T12:20:27Z</time>
      </trkpt>
      <trkpt lat="46.76587" lon="6.34831">
        <ele>1014</ele>
        <time>2016-07-14T12:20:32Z</time>
      </trkpt>
      <trkpt lat="46.76578" lon="6.34809">
        <ele>1015</ele>
        <time>2016-07-14T12:20:36Z</time>
      </trkpt>
      <trkpt lat="46.76568" lon="6.34783">
        <ele>1014</ele>
        <time>2016-07-14T12:20:41Z</time>
      </trkpt>
      <trkpt lat="46.76559" lon="6.34765">
        <ele>1014</ele>
        <time>2016-07-14T12:20:45Z</time>
      </trkpt>
      <trkpt lat="46.76552" lon="6.34753">
        <ele>1014</ele>
        <time>2016-07-14T12:20:48Z</time>
      </trkpt>
      <trkpt lat="46.76542" lon="6.34728">
        <ele>1013</ele>
        <time>2016-07-14T12:20:53Z</time>
      </trkpt>
      <trkpt lat="46.76535" lon="6.34707">
        <ele>1013</ele>
        <time>2016-07-14T12:20:57Z</time>
      </trkpt>
      <trkpt lat="46.76532" lon="6.34689">
        <ele>1013</ele>
        <time>2016-07-14T12:21:00Z</time>
      </trkpt>
      <trkpt lat="46.76524" lon="6.34656">
        <ele>1012</ele>
        <time>2016-07-14T12:21:05Z</time>
      </trkpt>
      <trkpt lat="46.76516" lon="6.34628">
        <ele>1012</ele>
        <time>2016-07-14T12:21:10Z</time>
      </trkpt>
      <trkpt lat="46.76508" lon="6.34608">
        <ele>1013</ele>
        <time>2016-07-14T12:21:14Z</time>
      </trkpt>
      <trkpt lat="46.76498" lon="6.3459">
        <ele>1015</ele>
        <time>2016-07-14T12:21:18Z</time>
      </trkpt>
      <trkpt lat="46.76483" lon="6.34569">
        <ele>1015</ele>
        <time>2016-07-14T12:21:23Z</time>
      </trkpt>
      <trkpt lat="46.76468" lon="6.34545">
        <ele>1015</ele>
        <time>2016-07-14T12:21:28Z</time>
      </trkpt>
      <trkpt lat="46.76458" lon="6.34526">
        <ele>1015</ele>
        <time>2016-07-14T12:21:33Z</time>
      </trkpt>
      <trkpt lat="46.76449" lon="6.34502">
        <ele>1015</ele>
        <time>2016-07-14T12:21:37Z</time>
      </trkpt>
      <trkpt lat="46.76442" lon="6.34483">
        <ele>1014</ele>
        <time>2016-07-14T12:21:41Z</time>
      </trkpt>
      <trkpt lat="46.76434" lon="6.34465">
        <ele>1014</ele>
        <time>2016-07-14T12:21:45Z</time>
      </trkpt>
      <trkpt lat="46.76424" lon="6.34458">
        <ele>1014</ele>
        <time>2016-07-14T12:21:48Z</time>
      </trkpt>
      <trkpt lat="46.76408" lon="6.34462">
        <ele>1017</ele>
        <time>2016-07-14T12:21:52Z</time>
      </trkpt>
      <trkpt lat="46.76395" lon="6.34475">
        <ele>1017</ele>
        <time>2016-07-14T12:21:56Z</time>
      </trkpt>
      <trkpt lat="46.76385" lon="6.34488">
        <ele>1018</ele>
        <time>2016-07-14T12:22:00Z</time>
      </trkpt>
      <trkpt lat="46.76376" lon="6.34506">
        <ele>1021</ele>
        <time>2016-07-14T12:22:05Z</time>
      </trkpt>
      <trkpt lat="46.7637" lon="6.34519">
        <ele>1021</ele>
        <time>2016-07-14T12:22:09Z</time>
      </trkpt>
      <trkpt lat="46.76361" lon="6.34532">
        <ele>1022</ele>
        <time>2016-07-14T12:22:14Z</time>
      </trkpt>
      <trkpt lat="46.76356" lon="6.34544">
        <ele>1023</ele>
        <time>2016-07-14T12:22:18Z</time>
      </trkpt>
      <trkpt lat="46.7635" lon="6.34555">
        <ele>1024</ele>
        <time>2016-07-14T12:22:22Z</time>
      </trkpt>
      <trkpt lat="46.76343" lon="6.34568">
        <ele>1026</ele>
        <time>2016-07-14T12:22:27Z</time>
      </trkpt>
      <trkpt lat="46.76336" lon="6.34577">
        <ele>1028</ele>
        <time>2016-07-14T12:22:31Z</time>
      </trkpt>
      <trkpt lat="46.76326" lon="6.34585">
        <ele>1031</ele>
        <time>2016-07-14T12:22:36Z</time>
      </trkpt>
      <trkpt lat="46.76316" lon="6.34592">
        <ele>1033</ele>
        <time>2016-07-14T12:22:41Z</time>
      </trkpt>
      <trkpt lat="46.76308" lon="6.34596">
        <ele>1034</ele>
        <time>2016-07-14T12:22:46Z</time>
      </trkpt>
      <trkpt lat="46.76298" lon="6.34605">
        <ele>1034</ele>
        <time>2016-07-14T12:22:50Z</time>
      </trkpt>
      <trkpt lat="46.76293" lon="6.3462">
        <ele>1035</ele>
        <time>2016-07-14T12:22:55Z</time>
      </trkpt>
      <trkpt lat="46.76291" lon="6.34638">
        <ele>1036</ele>
        <time>2016-07-14T12:23:00Z</time>
      </trkpt>
      <trkpt lat="46.7629" lon="6.34652">
        <ele>1037</ele>
        <time>2016-07-14T12:23:04Z</time>
      </trkpt>
      <trkpt lat="46.7629" lon="6.3467">
        <ele>1042</ele>
        <time>2016-07-14T12:23:09Z</time>
      </trkpt>
      <trkpt lat="46.7629" lon="6.34685">
        <ele>1043</ele>
        <time>2016-07-14T12:23:13Z</time>
      </trkpt>
      <trkpt lat="46.76289" lon="6.34701">
        <ele>1043</ele>
        <time>2016-07-14T12:23:18Z</time>
      </trkpt>
      <trkpt lat="46.76286" lon="6.34708">
        <ele>1043</ele>
        <time>2016-07-14T12:23:21Z</time>
      </trkpt>
      <trkpt lat="46.76283" lon="6.34719">
        <ele>1044</ele>
        <time>2016-07-14T12:23:26Z</time>
      </trkpt>
      <trkpt lat="46.76277" lon="6.34728">
        <ele>1044</ele>
        <time>2016-07-14T12:23:35Z</time>
      </trkpt>
      <trkpt lat="46.76269" lon="6.3473">
        <ele>1045</ele>
        <time>2016-07-14T12:23:41Z</time>
      </trkpt>
      <trkpt lat="46.76259" lon="6.34733">
        <ele>1045</ele>
        <time>2016-07-14T12:23:45Z</time>
      </trkpt>
      <trkpt lat="46.76251" lon="6.34733">
        <ele>1045</ele>
        <time>2016-07-14T12:23:49Z</time>
      </trkpt>
      <trkpt lat="46.76242" lon="6.34735">
        <ele>1050</ele>
        <time>2016-07-14T12:23:54Z</time>
      </trkpt>
      <trkpt lat="46.76234" lon="6.34738">
        <ele>1051</ele>
        <time>2016-07-14T12:23:59Z</time>
      </trkpt>
      <trkpt lat="46.76225" lon="6.34741">
        <ele>1052</ele>
        <time>2016-07-14T12:24:03Z</time>
      </trkpt>
      <trkpt lat="46.76217" lon="6.34742">
        <ele>1053</ele>
        <time>2016-07-14T12:24:07Z</time>
      </trkpt>
      <trkpt lat="46.7621" lon="6.34743">
        <ele>1054</ele>
        <time>2016-07-14T12:24:12Z</time>
      </trkpt>
      <trkpt lat="46.76202" lon="6.34743">
        <ele>1056</ele>
        <time>2016-07-14T12:24:16Z</time>
      </trkpt>
      <trkpt lat="46.76193" lon="6.34739">
        <ele>1057</ele>
        <time>2016-07-14T12:24:21Z</time>
      </trkpt>
      <trkpt lat="46.76177" lon="6.34733">
        <ele>1060</ele>
        <time>2016-07-14T12:24:25Z</time>
      </trkpt>
      <trkpt lat="46.76167" lon="6.34725">
        <ele>1059</ele>
        <time>2016-07-14T12:24:29Z</time>
      </trkpt>
      <trkpt lat="46.7616" lon="6.34721">
        <ele>1066</ele>
        <time>2016-07-14T12:24:34Z</time>
      </trkpt>
      <trkpt lat="46.76153" lon="6.34716">
        <ele>1065</ele>
        <time>2016-07-14T12:24:39Z</time>
      </trkpt>
      <trkpt lat="46.76143" lon="6.34705">
        <ele>1064</ele>
        <time>2016-07-14T12:24:44Z</time>
      </trkpt>
      <trkpt lat="46.76138" lon="6.34701">
        <ele>1064</ele>
        <time>2016-07-14T12:24:47Z</time>
      </trkpt>
      <trkpt lat="46.76122" lon="6.34694">
        <ele>1065</ele>
        <time>2016-07-14T12:24:52Z</time>
      </trkpt>
      <trkpt lat="46.76114" lon="6.34684">
        <ele>1066</ele>
        <time>2016-07-14T12:24:56Z</time>
      </trkpt>
      <trkpt lat="46.76105" lon="6.34673">
        <ele>1066</ele>
        <time>2016-07-14T12:25:00Z</time>
      </trkpt>
      <trkpt lat="46.76098" lon="6.34657">
        <ele>1063</ele>
        <time>2016-07-14T12:25:05Z</time>
      </trkpt>
      <trkpt lat="46.76095" lon="6.34644">
        <ele>1061</ele>
        <time>2016-07-14T12:25:09Z</time>
      </trkpt>
      <trkpt lat="46.76088" lon="6.34634">
        <ele>1061</ele>
        <time>2016-07-14T12:25:13Z</time>
      </trkpt>
      <trkpt lat="46.76081" lon="6.34627">
        <ele>1069</ele>
        <time>2016-07-14T12:25:18Z</time>
      </trkpt>
      <trkpt lat="46.76071" lon="6.34627">
        <ele>1069</ele>
        <time>2016-07-14T12:25:22Z</time>
      </trkpt>
      <trkpt lat="46.76058" lon="6.3463">
        <ele>1070</ele>
        <time>2016-07-14T12:25:26Z</time>
      </trkpt>
      <trkpt lat="46.76049" lon="6.34633">
        <ele>1070</ele>
        <time>2016-07-14T12:25:30Z</time>
      </trkpt>
      <trkpt lat="46.76039" lon="6.34637">
        <ele>1071</ele>
        <time>2016-07-14T12:25:34Z</time>
      </trkpt>
      <trkpt lat="46.7603" lon="6.34645">
        <ele>1071</ele>
        <time>2016-07-14T12:25:38Z</time>
      </trkpt>
      <trkpt lat="46.76022" lon="6.34649">
        <ele>1072</ele>
        <time>2016-07-14T12:25:43Z</time>
      </trkpt>
      <trkpt lat="46.7601" lon="6.34646">
        <ele>1072</ele>
        <time>2016-07-14T12:25:48Z</time>
      </trkpt>
      <trkpt lat="46.76" lon="6.3465">
        <ele>1073</ele>
        <time>2016-07-14T12:25:52Z</time>
      </trkpt>
      <trkpt lat="46.75993" lon="6.34654">
        <ele>1076</ele>
        <time>2016-07-14T12:25:56Z</time>
      </trkpt>
      <trkpt lat="46.75987" lon="6.34654">
        <ele>1076</ele>
        <time>2016-07-14T12:26:01Z</time>
      </trkpt>
      <trkpt lat="46.75972" lon="6.34645">
        <ele>1076</ele>
        <time>2016-07-14T12:26:05Z</time>
      </trkpt>
      <trkpt lat="46.7596" lon="6.34634">
        <ele>1077</ele>
        <time>2016-07-14T12:26:10Z</time>
      </trkpt>
      <trkpt lat="46.75949" lon="6.34628">
        <ele>1077</ele>
        <time>2016-07-14T12:26:14Z</time>
      </trkpt>
      <trkpt lat="46.7594" lon="6.34622">
        <ele>1077</ele>
        <time>2016-07-14T12:26:18Z</time>
      </trkpt>
      <trkpt lat="46.75926" lon="6.34617">
        <ele>1077</ele>
        <time>2016-07-14T12:26:23Z</time>
      </trkpt>
      <trkpt lat="46.75915" lon="6.34612">
        <ele>1084</ele>
        <time>2016-07-14T12:26:27Z</time>
      </trkpt>
      <trkpt lat="46.75904" lon="6.3461">
        <ele>1085</ele>
        <time>2016-07-14T12:26:31Z</time>
      </trkpt>
      <trkpt lat="46.75896" lon="6.34609">
        <ele>1085</ele>
        <time>2016-07-14T12:26:35Z</time>
      </trkpt>
      <trkpt lat="46.75887" lon="6.34606">
        <ele>1086</ele>
        <time>2016-07-14T12:26:40Z</time>
      </trkpt>
      <trkpt lat="46.75876" lon="6.34603">
        <ele>1088</ele>
        <time>2016-07-14T12:26:44Z</time>
      </trkpt>
      <trkpt lat="46.75866" lon="6.34601">
        <ele>1089</ele>
        <time>2016-07-14T12:26:48Z</time>
      </trkpt>
      <trkpt lat="46.75855" lon="6.34597">
        <ele>1090</ele>
        <time>2016-07-14T12:26:53Z</time>
      </trkpt>
      <trkpt lat="46.75848" lon="6.34589">
        <ele>1090</ele>
        <time>2016-07-14T12:26:57Z</time>
      </trkpt>
      <trkpt lat="46.75844" lon="6.34574">
        <ele>1088</ele>
        <time>2016-07-14T12:27:01Z</time>
      </trkpt>
      <trkpt lat="46.75837" lon="6.34563">
        <ele>1086</ele>
        <time>2016-07-14T12:27:05Z</time>
      </trkpt>
      <trkpt lat="46.75828" lon="6.34555">
        <ele>1094</ele>
        <time>2016-07-14T12:27:09Z</time>
      </trkpt>
      <trkpt lat="46.75819" lon="6.34544">
        <ele>1094</ele>
        <time>2016-07-14T12:27:14Z</time>
      </trkpt>
      <trkpt lat="46.75813" lon="6.34537">
        <ele>1094</ele>
        <time>2016-07-14T12:27:19Z</time>
      </trkpt>
      <trkpt lat="46.75802" lon="6.34537">
        <ele>1095</ele>
        <time>2016-07-14T12:27:23Z</time>
      </trkpt>
      <trkpt lat="46.75795" lon="6.34533">
        <ele>1096</ele>
        <time>2016-07-14T12:27:27Z</time>
      </trkpt>
      <trkpt lat="46.75785" lon="6.34528">
        <ele>1097</ele>
        <time>2016-07-14T12:27:32Z</time>
      </trkpt>
      <trkpt lat="46.75778" lon="6.34521">
        <ele>1098</ele>
        <time>2016-07-14T12:27:37Z</time>
      </trkpt>
      <trkpt lat="46.75772" lon="6.34515">
        <ele>1098</ele>
        <time>2016-07-14T12:27:44Z</time>
      </trkpt>
      <trkpt lat="46.75762" lon="6.34509">
        <ele>1100</ele>
        <time>2016-07-14T12:27:48Z</time>
      </trkpt>
      <trkpt lat="46.75753" lon="6.34506">
        <ele>1101</ele>
        <time>2016-07-14T12:27:52Z</time>
      </trkpt>
      <trkpt lat="46.75742" lon="6.34503">
        <ele>1107</ele>
        <time>2016-07-14T12:27:56Z</time>
      </trkpt>
      <trkpt lat="46.75736" lon="6.34492">
        <ele>1106</ele>
        <time>2016-07-14T12:28:01Z</time>
      </trkpt>
      <trkpt lat="46.7573" lon="6.34483">
        <ele>1107</ele>
        <time>2016-07-14T12:28:05Z</time>
      </trkpt>
      <trkpt lat="46.75721" lon="6.34473">
        <ele>1108</ele>
        <time>2016-07-14T12:28:09Z</time>
      </trkpt>
      <trkpt lat="46.75715" lon="6.34463">
        <ele>1109</ele>
        <time>2016-07-14T12:28:15Z</time>
      </trkpt>
      <trkpt lat="46.7571" lon="6.34452">
        <ele>1109</ele>
        <time>2016-07-14T12:28:19Z</time>
      </trkpt>
      <trkpt lat="46.75703" lon="6.34442">
        <ele>1109</ele>
        <time>2016-07-14T12:28:24Z</time>
      </trkpt>
      <trkpt lat="46.75694" lon="6.34436">
        <ele>1111</ele>
        <time>2016-07-14T12:28:29Z</time>
      </trkpt>
      <trkpt lat="46.75684" lon="6.34433">
        <ele>1112</ele>
        <time>2016-07-14T12:28:34Z</time>
      </trkpt>
      <trkpt lat="46.75683" lon="6.34422">
        <ele>1113</ele>
        <time>2016-07-14T12:28:38Z</time>
      </trkpt>
      <trkpt lat="46.75677" lon="6.34414">
        <ele>1112</ele>
        <time>2016-07-14T12:28:46Z</time>
      </trkpt>
      <trkpt lat="46.75673" lon="6.34411">
        <ele>1113</ele>
        <time>2016-07-14T12:28:50Z</time>
      </trkpt>
      <trkpt lat="46.75663" lon="6.34407">
        <ele>1121</ele>
        <time>2016-07-14T12:28:54Z</time>
      </trkpt>
      <trkpt lat="46.75665" lon="6.34389">
        <ele>1124</ele>
        <time>2016-07-14T12:28:59Z</time>
      </trkpt>
      <trkpt lat="46.75664" lon="6.34372">
        <ele>1124</ele>
        <time>2016-07-14T12:29:04Z</time>
      </trkpt>
      <trkpt lat="46.7566" lon="6.34354">
        <ele>1122</ele>
        <time>2016-07-14T12:29:08Z</time>
      </trkpt>
      <trkpt lat="46.75654" lon="6.3434">
        <ele>1121</ele>
        <time>2016-07-14T12:29:13Z</time>
      </trkpt>
      <trkpt lat="46.75649" lon="6.34329">
        <ele>1119</ele>
        <time>2016-07-14T12:29:19Z</time>
      </trkpt>
      <trkpt lat="46.7565" lon="6.34316">
        <ele>1119</ele>
        <time>2016-07-14T12:29:28Z</time>
      </trkpt>
      <trkpt lat="46.75649" lon="6.34304">
        <ele>1120</ele>
        <time>2016-07-14T12:29:33Z</time>
      </trkpt>
      <trkpt lat="46.75647" lon="6.34294">
        <ele>1120</ele>
        <time>2016-07-14T12:29:37Z</time>
      </trkpt>
      <trkpt lat="46.75641" lon="6.34303">
        <ele>1121</ele>
        <time>2016-07-14T12:30:02Z</time>
      </trkpt>
      <trkpt lat="46.75634" lon="6.3431">
        <ele>1122</ele>
        <time>2016-07-14T12:30:12Z</time>
      </trkpt>
      <trkpt lat="46.75628" lon="6.34317">
        <ele>1124</ele>
        <time>2016-07-14T12:30:24Z</time>
      </trkpt>
      <trkpt lat="46.7562" lon="6.34319">
        <ele>1126</ele>
        <time>2016-07-14T12:30:38Z</time>
      </trkpt>
      <trkpt lat="46.75613" lon="6.34322">
        <ele>1127</ele>
        <time>2016-07-14T12:30:43Z</time>
      </trkpt>
      <trkpt lat="46.75605" lon="6.34321">
        <ele>1129</ele>
        <time>2016-07-14T12:30:48Z</time>
      </trkpt>
      <trkpt lat="46.75597" lon="6.34321">
        <ele>1131</ele>
        <time>2016-07-14T12:30:52Z</time>
      </trkpt>
      <trkpt lat="46.75587" lon="6.34318">
        <ele>1133</ele>
        <time>2016-07-14T12:30:57Z</time>
      </trkpt>
      <trkpt lat="46.75581" lon="6.3431">
        <ele>1144</ele>
        <time>2016-07-14T12:31:02Z</time>
      </trkpt>
      <trkpt lat="46.75575" lon="6.34304">
        <ele>1144</ele>
        <time>2016-07-14T12:31:07Z</time>
      </trkpt>
      <trkpt lat="46.75567" lon="6.34302">
        <ele>1145</ele>
        <time>2016-07-14T12:31:12Z</time>
      </trkpt>
      <trkpt lat="46.75561" lon="6.34297">
        <ele>1146</ele>
        <time>2016-07-14T12:31:17Z</time>
      </trkpt>
      <trkpt lat="46.75553" lon="6.34297">
        <ele>1147</ele>
        <time>2016-07-14T12:31:22Z</time>
      </trkpt>
      <trkpt lat="46.75547" lon="6.34291">
        <ele>1147</ele>
        <time>2016-07-14T12:31:28Z</time>
      </trkpt>
      <trkpt lat="46.75541" lon="6.34283">
        <ele>1147</ele>
        <time>2016-07-14T12:31:33Z</time>
      </trkpt>
      <trkpt lat="46.75536" lon="6.34278">
        <ele>1148</ele>
        <time>2016-07-14T12:31:37Z</time>
      </trkpt>
      <trkpt lat="46.75528" lon="6.34272">
        <ele>1148</ele>
        <time>2016-07-14T12:31:42Z</time>
      </trkpt>
      <trkpt lat="46.75526" lon="6.34264">
        <ele>1149</ele>
        <time>2016-07-14T12:31:44Z</time>
      </trkpt>
      <trkpt lat="46.75525" lon="6.34253">
        <ele>1149</ele>
        <time>2016-07-14T12:31:50Z</time>
      </trkpt>
      <trkpt lat="46.75519" lon="6.34247">
        <ele>1144</ele>
        <time>2016-07-14T12:31:54Z</time>
      </trkpt>
      <trkpt lat="46.75516" lon="6.34235">
        <ele>1144</ele>
        <time>2016-07-14T12:31:59Z</time>
      </trkpt>
      <trkpt lat="46.75508" lon="6.34231">
        <ele>1144</ele>
        <time>2016-07-14T12:32:06Z</time>
      </trkpt>
      <trkpt lat="46.75502" lon="6.34225">
        <ele>1143</ele>
        <time>2016-07-14T12:32:10Z</time>
      </trkpt>
      <trkpt lat="46.75494" lon="6.34219">
        <ele>1152</ele>
        <time>2016-07-14T12:32:15Z</time>
      </trkpt>
      <trkpt lat="46.75487" lon="6.34213">
        <ele>1152</ele>
        <time>2016-07-14T12:32:21Z</time>
      </trkpt>
      <trkpt lat="46.75479" lon="6.34209">
        <ele>1152</ele>
        <time>2016-07-14T12:32:30Z</time>
      </trkpt>
      <trkpt lat="46.75474" lon="6.34199">
        <ele>1152</ele>
        <time>2016-07-14T12:32:42Z</time>
      </trkpt>
      <trkpt lat="46.75468" lon="6.34178">
        <ele>1150</ele>
        <time>2016-07-14T12:32:46Z</time>
      </trkpt>
      <trkpt lat="46.7546" lon="6.34164">
        <ele>1143</ele>
        <time>2016-07-14T12:32:51Z</time>
      </trkpt>
      <trkpt lat="46.7546" lon="6.34151">
        <ele>1142</ele>
        <time>2016-07-14T12:32:58Z</time>
      </trkpt>
      <trkpt lat="46.75455" lon="6.34141">
        <ele>1142</ele>
        <time>2016-07-14T12:33:03Z</time>
      </trkpt>
      <trkpt lat="46.7546" lon="6.34152">
        <ele>1142</ele>
        <time>2016-07-14T12:33:32Z</time>
      </trkpt>
      <trkpt lat="46.75463" lon="6.34164">
        <ele>1142</ele>
        <time>2016-07-14T12:33:37Z</time>
      </trkpt>
      <trkpt lat="46.75467" lon="6.34174">
        <ele>1150</ele>
        <time>2016-07-14T12:33:42Z</time>
      </trkpt>
      <trkpt lat="46.75471" lon="6.34184">
        <ele>1150</ele>
        <time>2016-07-14T12:33:50Z</time>
      </trkpt>
      <trkpt lat="46.75471" lon="6.34195">
        <ele>1152</ele>
        <time>2016-07-14T12:33:54Z</time>
      </trkpt>
      <trkpt lat="46.75472" lon="6.34207">
        <ele>1153</ele>
        <time>2016-07-14T12:33:58Z</time>
      </trkpt>
      <trkpt lat="46.75474" lon="6.3422">
        <ele>1154</ele>
        <time>2016-07-14T12:34:03Z</time>
      </trkpt>
      <trkpt lat="46.75477" lon="6.34229">
        <ele>1154</ele>
        <time>2016-07-14T12:34:07Z</time>
      </trkpt>
      <trkpt lat="46.75481" lon="6.3424">
        <ele>1154</ele>
        <time>2016-07-14T12:34:12Z</time>
      </trkpt>
      <trkpt lat="46.75483" lon="6.34252">
        <ele>1161</ele>
        <time>2016-07-14T12:34:16Z</time>
      </trkpt>
      <trkpt lat="46.75487" lon="6.34265">
        <ele>1162</ele>
        <time>2016-07-14T12:34:21Z</time>
      </trkpt>
      <trkpt lat="46.75491" lon="6.34276">
        <ele>1164</ele>
        <time>2016-07-14T12:34:26Z</time>
      </trkpt>
      <trkpt lat="46.75497" lon="6.34285">
        <ele>1166</ele>
        <time>2016-07-14T12:34:31Z</time>
      </trkpt>
      <trkpt lat="46.75498" lon="6.34296">
        <ele>1167</ele>
        <time>2016-07-14T12:34:36Z</time>
      </trkpt>
      <trkpt lat="46.75502" lon="6.34303">
        <ele>1153</ele>
        <time>2016-07-14T12:34:41Z</time>
      </trkpt>
      <trkpt lat="46.7551" lon="6.34313">
        <ele>1155</ele>
        <time>2016-07-14T12:34:46Z</time>
      </trkpt>
      <trkpt lat="46.75516" lon="6.34321">
        <ele>1155</ele>
        <time>2016-07-14T12:34:52Z</time>
      </trkpt>
      <trkpt lat="46.7552" lon="6.34331">
        <ele>1155</ele>
        <time>2016-07-14T12:34:59Z</time>
      </trkpt>
      <trkpt lat="46.75525" lon="6.3434">
        <ele>1161</ele>
        <time>2016-07-14T12:35:05Z</time>
      </trkpt>
      <trkpt lat="46.75528" lon="6.34349">
        <ele>1160</ele>
        <time>2016-07-14T12:35:09Z</time>
      </trkpt>
      <trkpt lat="46.75532" lon="6.34362">
        <ele>1160</ele>
        <time>2016-07-14T12:35:14Z</time>
      </trkpt>
      <trkpt lat="46.75536" lon="6.34376">
        <ele>1161</ele>
        <time>2016-07-14T12:35:19Z</time>
      </trkpt>
      <trkpt lat="46.75538" lon="6.34387">
        <ele>1161</ele>
        <time>2016-07-14T12:35:23Z</time>
      </trkpt>
      <trkpt lat="46.75542" lon="6.34398">
        <ele>1162</ele>
        <time>2016-07-14T12:35:28Z</time>
      </trkpt>
      <trkpt lat="46.75546" lon="6.34408">
        <ele>1161</ele>
        <time>2016-07-14T12:35:33Z</time>
      </trkpt>
      <trkpt lat="46.75551" lon="6.34418">
        <ele>1169</ele>
        <time>2016-07-14T12:35:38Z</time>
      </trkpt>
      <trkpt lat="46.75555" lon="6.34427">
        <ele>1169</ele>
        <time>2016-07-14T12:35:43Z</time>
      </trkpt>
      <trkpt lat="46.75558" lon="6.34435">
        <ele>1169</ele>
        <time>2016-07-14T12:35:47Z</time>
      </trkpt>
      <trkpt lat="46.75563" lon="6.34451">
        <ele>1171</ele>
        <time>2016-07-14T12:35:52Z</time>
      </trkpt>
      <trkpt lat="46.75564" lon="6.34459">
        <ele>1171</ele>
        <time>2016-07-14T12:35:56Z</time>
      </trkpt>
      <trkpt lat="46.75565" lon="6.34473">
        <ele>1172</ele>
        <time>2016-07-14T12:36:01Z</time>
      </trkpt>
      <trkpt lat="46.75562" lon="6.34482">
        <ele>1173</ele>
        <time>2016-07-14T12:36:05Z</time>
      </trkpt>
      <trkpt lat="46.75561" lon="6.34499">
        <ele>1173</ele>
        <time>2016-07-14T12:36:10Z</time>
      </trkpt>
      <trkpt lat="46.75565" lon="6.34511">
        <ele>1181</ele>
        <time>2016-07-14T12:36:15Z</time>
      </trkpt>
      <trkpt lat="46.75572" lon="6.34517">
        <ele>1181</ele>
        <time>2016-07-14T12:36:22Z</time>
      </trkpt>
      <trkpt lat="46.75576" lon="6.34528">
        <ele>1183</ele>
        <time>2016-07-14T12:36:27Z</time>
      </trkpt>
      <trkpt lat="46.75578" lon="6.3454">
        <ele>1185</ele>
        <time>2016-07-14T12:36:31Z</time>
      </trkpt>
      <trkpt lat="46.7558" lon="6.34552">
        <ele>1186</ele>
        <time>2016-07-14T12:36:35Z</time>
      </trkpt>
      <trkpt lat="46.75585" lon="6.34563">
        <ele>1165</ele>
        <time>2016-07-14T12:36:43Z</time>
      </trkpt>
      <trkpt lat="46.7559" lon="6.34574">
        <ele>1170</ele>
        <time>2016-07-14T12:36:48Z</time>
      </trkpt>
      <trkpt lat="46.75594" lon="6.34582">
        <ele>1170</ele>
        <time>2016-07-14T12:36:52Z</time>
      </trkpt>
      <trkpt lat="46.75598" lon="6.34596">
        <ele>1174</ele>
        <time>2016-07-14T12:36:57Z</time>
      </trkpt>
      <trkpt lat="46.75601" lon="6.34608">
        <ele>1174</ele>
        <time>2016-07-14T12:37:02Z</time>
      </trkpt>
      <trkpt lat="46.75608" lon="6.34619">
        <ele>1173</ele>
        <time>2016-07-14T12:37:07Z</time>
      </trkpt>
      <trkpt lat="46.75612" lon="6.34629">
        <ele>1174</ele>
        <time>2016-07-14T12:37:11Z</time>
      </trkpt>
      <trkpt lat="46.75616" lon="6.34639">
        <ele>1175</ele>
        <time>2016-07-14T12:37:15Z</time>
      </trkpt>
      <trkpt lat="46.75617" lon="6.34652">
        <ele>1176</ele>
        <time>2016-07-14T12:37:19Z</time>
      </trkpt>
      <trkpt lat="46.7562" lon="6.34664">
        <ele>1176</ele>
        <time>2016-07-14T12:37:23Z</time>
      </trkpt>
      <trkpt lat="46.75623" lon="6.34673">
        <ele>1188</ele>
        <time>2016-07-14T12:37:28Z</time>
      </trkpt>
      <trkpt lat="46.75628" lon="6.34687">
        <ele>1188</ele>
        <time>2016-07-14T12:37:33Z</time>
      </trkpt>
      <trkpt lat="46.75634" lon="6.34698">
        <ele>1188</ele>
        <time>2016-07-14T12:37:38Z</time>
      </trkpt>
      <trkpt lat="46.75638" lon="6.34709">
        <ele>1188</ele>
        <time>2016-07-14T12:37:43Z</time>
      </trkpt>
      <trkpt lat="46.75643" lon="6.34718">
        <ele>1188</ele>
        <time>2016-07-14T12:37:49Z</time>
      </trkpt>
      <trkpt lat="46.75647" lon="6.34728">
        <ele>1188</ele>
        <time>2016-07-14T12:37:54Z</time>
      </trkpt>
      <trkpt lat="46.75651" lon="6.3474">
        <ele>1187</ele>
        <time>2016-07-14T12:37:59Z</time>
      </trkpt>
      <trkpt lat="46.75656" lon="6.3475">
        <ele>1193</ele>
        <time>2016-07-14T12:38:06Z</time>
      </trkpt>
      <trkpt lat="46.75662" lon="6.34759">
        <ele>1193</ele>
        <time>2016-07-14T12:38:11Z</time>
      </trkpt>
      <trkpt lat="46.75668" lon="6.34774">
        <ele>1180</ele>
        <time>2016-07-14T12:38:16Z</time>
      </trkpt>
      <trkpt lat="46.75674" lon="6.34784">
        <ele>1180</ele>
        <time>2016-07-14T12:38:22Z</time>
      </trkpt>
      <trkpt lat="46.75679" lon="6.34792">
        <ele>1181</ele>
        <time>2016-07-14T12:38:27Z</time>
      </trkpt>
      <trkpt lat="46.75686" lon="6.34806">
        <ele>1184</ele>
        <time>2016-07-14T12:38:32Z</time>
      </trkpt>
      <trkpt lat="46.75691" lon="6.34815">
        <ele>1185</ele>
        <time>2016-07-14T12:38:37Z</time>
      </trkpt>
      <trkpt lat="46.75696" lon="6.34828">
        <ele>1185</ele>
        <time>2016-07-14T12:38:40Z</time>
      </trkpt>
      <trkpt lat="46.75699" lon="6.34838">
        <ele>1200</ele>
        <time>2016-07-14T12:38:45Z</time>
      </trkpt>
      <trkpt lat="46.75705" lon="6.34849">
        <ele>1199</ele>
        <time>2016-07-14T12:38:50Z</time>
      </trkpt>
      <trkpt lat="46.7571" lon="6.34859">
        <ele>1199</ele>
        <time>2016-07-14T12:38:54Z</time>
      </trkpt>
      <trkpt lat="46.75715" lon="6.34869">
        <ele>1199</ele>
        <time>2016-07-14T12:38:59Z</time>
      </trkpt>
      <trkpt lat="46.75721" lon="6.34878">
        <ele>1199</ele>
        <time>2016-07-14T12:39:03Z</time>
      </trkpt>
      <trkpt lat="46.75726" lon="6.34886">
        <ele>1199</ele>
        <time>2016-07-14T12:39:07Z</time>
      </trkpt>
      <trkpt lat="46.75728" lon="6.34897">
        <ele>1200</ele>
        <time>2016-07-14T12:39:12Z</time>
      </trkpt>
      <trkpt lat="46.75732" lon="6.3491">
        <ele>1199</ele>
        <time>2016-07-14T12:39:17Z</time>
      </trkpt>
      <trkpt lat="46.7574" lon="6.34923">
        <ele>1207</ele>
        <time>2016-07-14T12:39:21Z</time>
      </trkpt>
      <trkpt lat="46.75746" lon="6.34936">
        <ele>1211</ele>
        <time>2016-07-14T12:39:25Z</time>
      </trkpt>
      <trkpt lat="46.75751" lon="6.34946">
        <ele>1194</ele>
        <time>2016-07-14T12:39:29Z</time>
      </trkpt>
      <trkpt lat="46.75755" lon="6.34957">
        <ele>1195</ele>
        <time>2016-07-14T12:39:35Z</time>
      </trkpt>
      <trkpt lat="46.7576" lon="6.34966">
        <ele>1197</ele>
        <time>2016-07-14T12:39:39Z</time>
      </trkpt>
      <trkpt lat="46.75766" lon="6.34975">
        <ele>1198</ele>
        <time>2016-07-14T12:39:44Z</time>
      </trkpt>
      <trkpt lat="46.75773" lon="6.34983">
        <ele>1199</ele>
        <time>2016-07-14T12:39:48Z</time>
      </trkpt>
      <trkpt lat="46.7578" lon="6.34985">
        <ele>1196</ele>
        <time>2016-07-14T12:39:55Z</time>
      </trkpt>
      <trkpt lat="46.75788" lon="6.34991">
        <ele>1195</ele>
        <time>2016-07-14T12:39:59Z</time>
      </trkpt>
      <trkpt lat="46.75795" lon="6.34997">
        <ele>1193</ele>
        <time>2016-07-14T12:40:03Z</time>
      </trkpt>
      <trkpt lat="46.75801" lon="6.35003">
        <ele>1207</ele>
        <time>2016-07-14T12:40:07Z</time>
      </trkpt>
      <trkpt lat="46.75808" lon="6.35013">
        <ele>1205</ele>
        <time>2016-07-14T12:40:11Z</time>
      </trkpt>
      <trkpt lat="46.75816" lon="6.35025">
        <ele>1206</ele>
        <time>2016-07-14T12:40:16Z</time>
      </trkpt>
      <trkpt lat="46.75822" lon="6.35034">
        <ele>1208</ele>
        <time>2016-07-14T12:40:21Z</time>
      </trkpt>
      <trkpt lat="46.75828" lon="6.35041">
        <ele>1209</ele>
        <time>2016-07-14T12:40:25Z</time>
      </trkpt>
      <trkpt lat="46.75834" lon="6.35045">
        <ele>1190</ele>
        <time>2016-07-14T12:40:29Z</time>
      </trkpt>
      <trkpt lat="46.75839" lon="6.35052">
        <ele>1191</ele>
        <time>2016-07-14T12:40:33Z</time>
      </trkpt>
      <trkpt lat="46.75846" lon="6.35062">
        <ele>1194</ele>
        <time>2016-07-14T12:40:38Z</time>
      </trkpt>
      <trkpt lat="46.75853" lon="6.35069">
        <ele>1194</ele>
        <time>2016-07-14T12:40:43Z</time>
      </trkpt>
      <trkpt lat="46.75857" lon="6.35077">
        <ele>1193</ele>
        <time>2016-07-14T12:40:47Z</time>
      </trkpt>
      <trkpt lat="46.75863" lon="6.35088">
        <ele>1207</ele>
        <time>2016-07-14T12:40:52Z</time>
      </trkpt>
      <trkpt lat="46.7587" lon="6.35099">
        <ele>1206</ele>
        <time>2016-07-14T12:40:57Z</time>
      </trkpt>
      <trkpt lat="46.75875" lon="6.3511">
        <ele>1206</ele>
        <time>2016-07-14T12:41:01Z</time>
      </trkpt>
      <trkpt lat="46.75882" lon="6.35118">
        <ele>1206</ele>
        <time>2016-07-14T12:41:06Z</time>
      </trkpt>
      <trkpt lat="46.75888" lon="6.35128">
        <ele>1207</ele>
        <time>2016-07-14T12:41:11Z</time>
      </trkpt>
      <trkpt lat="46.75895" lon="6.35139">
        <ele>1207</ele>
        <time>2016-07-14T12:41:16Z</time>
      </trkpt>
      <trkpt lat="46.75901" lon="6.35146">
        <ele>1207</ele>
        <time>2016-07-14T12:41:22Z</time>
      </trkpt>
      <trkpt lat="46.75907" lon="6.35154">
        <ele>1207</ele>
        <time>2016-07-14T12:41:27Z</time>
      </trkpt>
      <trkpt lat="46.75912" lon="6.35163">
        <ele>1207</ele>
        <time>2016-07-14T12:41:33Z</time>
      </trkpt>
      <trkpt lat="46.75918" lon="6.3517">
        <ele>1206</ele>
        <time>2016-07-14T12:41:38Z</time>
      </trkpt>
      <trkpt lat="46.75923" lon="6.35179">
        <ele>1205</ele>
        <time>2016-07-14T12:41:42Z</time>
      </trkpt>
      <trkpt lat="46.75928" lon="6.35188">
        <ele>1205</ele>
        <time>2016-07-14T12:41:46Z</time>
      </trkpt>
      <trkpt lat="46.75934" lon="6.35195">
        <ele>1205</ele>
        <time>2016-07-14T12:41:51Z</time>
      </trkpt>
      <trkpt lat="46.75937" lon="6.35204">
        <ele>1205</ele>
        <time>2016-07-14T12:41:55Z</time>
      </trkpt>
      <trkpt lat="46.75942" lon="6.35221">
        <ele>1208</ele>
        <time>2016-07-14T12:41:59Z</time>
      </trkpt>
      <trkpt lat="46.75947" lon="6.3523">
        <ele>1208</ele>
        <time>2016-07-14T12:42:06Z</time>
      </trkpt>
      <trkpt lat="46.75954" lon="6.35238">
        <ele>1207</ele>
        <time>2016-07-14T12:42:12Z</time>
      </trkpt>
      <trkpt lat="46.75961" lon="6.35251">
        <ele>1222</ele>
        <time>2016-07-14T12:42:17Z</time>
      </trkpt>
      <trkpt lat="46.75964" lon="6.35261">
        <ele>1222</ele>
        <time>2016-07-14T12:42:22Z</time>
      </trkpt>
      <trkpt lat="46.7597" lon="6.35272">
        <ele>1222</ele>
        <time>2016-07-14T12:42:26Z</time>
      </trkpt>
      <trkpt lat="46.75976" lon="6.35285">
        <ele>1223</ele>
        <time>2016-07-14T12:42:31Z</time>
      </trkpt>
      <trkpt lat="46.75981" lon="6.35294">
        <ele>1224</ele>
        <time>2016-07-14T12:42:37Z</time>
      </trkpt>
      <trkpt lat="46.75987" lon="6.35305">
        <ele>1225</ele>
        <time>2016-07-14T12:42:41Z</time>
      </trkpt>
      <trkpt lat="46.75992" lon="6.35313">
        <ele>1225</ele>
        <time>2016-07-14T12:42:45Z</time>
      </trkpt>
      <trkpt lat="46.75998" lon="6.35321">
        <ele>1225</ele>
        <time>2016-07-14T12:42:51Z</time>
      </trkpt>
      <trkpt lat="46.76004" lon="6.35329">
        <ele>1217</ele>
        <time>2016-07-14T12:42:56Z</time>
      </trkpt>
      <trkpt lat="46.76011" lon="6.3535">
        <ele>1218</ele>
        <time>2016-07-14T12:43:01Z</time>
      </trkpt>
      <trkpt lat="46.76018" lon="6.35365">
        <ele>1216</ele>
        <time>2016-07-14T12:43:06Z</time>
      </trkpt>
      <trkpt lat="46.76023" lon="6.35373">
        <ele>1215</ele>
        <time>2016-07-14T12:43:11Z</time>
      </trkpt>
      <trkpt lat="46.76027" lon="6.35386">
        <ele>1216</ele>
        <time>2016-07-14T12:43:15Z</time>
      </trkpt>
      <trkpt lat="46.76029" lon="6.35402">
        <ele>1218</ele>
        <time>2016-07-14T12:43:20Z</time>
      </trkpt>
      <trkpt lat="46.76031" lon="6.35412">
        <ele>1219</ele>
        <time>2016-07-14T12:43:25Z</time>
      </trkpt>
      <trkpt lat="46.76039" lon="6.35431">
        <ele>1225</ele>
        <time>2016-07-14T12:43:29Z</time>
      </trkpt>
      <trkpt lat="46.7604" lon="6.35447">
        <ele>1226</ele>
        <time>2016-07-14T12:43:34Z</time>
      </trkpt>
      <trkpt lat="46.76043" lon="6.3546">
        <ele>1226</ele>
        <time>2016-07-14T12:43:39Z</time>
      </trkpt>
      <trkpt lat="46.76046" lon="6.35472">
        <ele>1226</ele>
        <time>2016-07-14T12:43:45Z</time>
      </trkpt>
      <trkpt lat="46.76049" lon="6.35483">
        <ele>1225</ele>
        <time>2016-07-14T12:43:50Z</time>
      </trkpt>
      <trkpt lat="46.7605" lon="6.35493">
        <ele>1225</ele>
        <time>2016-07-14T12:43:54Z</time>
      </trkpt>
      <trkpt lat="46.76052" lon="6.35503">
        <ele>1230</ele>
        <time>2016-07-14T12:43:58Z</time>
      </trkpt>
      <trkpt lat="46.76057" lon="6.35519">
        <ele>1230</ele>
        <time>2016-07-14T12:44:03Z</time>
      </trkpt>
      <trkpt lat="46.76058" lon="6.35533">
        <ele>1231</ele>
        <time>2016-07-14T12:44:07Z</time>
      </trkpt>
      <trkpt lat="46.76057" lon="6.35544">
        <ele>1232</ele>
        <time>2016-07-14T12:44:11Z</time>
      </trkpt>
      <trkpt lat="46.76058" lon="6.35556">
        <ele>1232</ele>
        <time>2016-07-14T12:44:16Z</time>
      </trkpt>
      <trkpt lat="46.76061" lon="6.35567">
        <ele>1231</ele>
        <time>2016-07-14T12:44:23Z</time>
      </trkpt>
      <trkpt lat="46.76062" lon="6.35579">
        <ele>1230</ele>
        <time>2016-07-14T12:44:29Z</time>
      </trkpt>
      <trkpt lat="46.76063" lon="6.35588">
        <ele>1234</ele>
        <time>2016-07-14T12:44:33Z</time>
      </trkpt>
      <trkpt lat="46.76064" lon="6.356">
        <ele>1235</ele>
        <time>2016-07-14T12:44:38Z</time>
      </trkpt>
      <trkpt lat="46.7606" lon="6.35592">
        <ele>1235</ele>
        <time>2016-07-14T12:44:45Z</time>
      </trkpt>
      <trkpt lat="46.76057" lon="6.35582">
        <ele>1232</ele>
        <time>2016-07-14T12:44:49Z</time>
      </trkpt>
      <trkpt lat="46.76051" lon="6.35575">
        <ele>1234</ele>
        <time>2016-07-14T12:44:53Z</time>
      </trkpt>
      <trkpt lat="46.76047" lon="6.35564">
        <ele>1235</ele>
        <time>2016-07-14T12:44:58Z</time>
      </trkpt>
      <trkpt lat="46.76043" lon="6.35553">
        <ele>1235</ele>
        <time>2016-07-14T12:45:03Z</time>
      </trkpt>
      <trkpt lat="46.76039" lon="6.35543">
        <ele>1236</ele>
        <time>2016-07-14T12:45:08Z</time>
      </trkpt>
      <trkpt lat="46.76033" lon="6.35533">
        <ele>1236</ele>
        <time>2016-07-14T12:45:13Z</time>
      </trkpt>
      <trkpt lat="46.7603" lon="6.35524">
        <ele>1237</ele>
        <time>2016-07-14T12:45:17Z</time>
      </trkpt>
      <trkpt lat="46.76026" lon="6.35513">
        <ele>1238</ele>
        <time>2016-07-14T12:45:22Z</time>
      </trkpt>
      <trkpt lat="46.76024" lon="6.355">
        <ele>1239</ele>
        <time>2016-07-14T12:45:27Z</time>
      </trkpt>
      <trkpt lat="46.76019" lon="6.35488">
        <ele>1235</ele>
        <time>2016-07-14T12:45:32Z</time>
      </trkpt>
      <trkpt lat="46.76012" lon="6.35482">
        <ele>1236</ele>
        <time>2016-07-14T12:45:37Z</time>
      </trkpt>
      <trkpt lat="46.76006" lon="6.3547">
        <ele>1234</ele>
        <time>2016-07-14T12:45:42Z</time>
      </trkpt>
      <trkpt lat="46.76" lon="6.35458">
        <ele>1253</ele>
        <time>2016-07-14T12:45:47Z</time>
      </trkpt>
      <trkpt lat="46.75997" lon="6.3545">
        <ele>1252</ele>
        <time>2016-07-14T12:45:50Z</time>
      </trkpt>
      <trkpt lat="46.75991" lon="6.3544">
        <ele>1252</ele>
        <time>2016-07-14T12:45:55Z</time>
      </trkpt>
      <trkpt lat="46.75986" lon="6.3543">
        <ele>1251</ele>
        <time>2016-07-14T12:46:01Z</time>
      </trkpt>
      <trkpt lat="46.75979" lon="6.35423">
        <ele>1252</ele>
        <time>2016-07-14T12:46:06Z</time>
      </trkpt>
      <trkpt lat="46.7597" lon="6.35417">
        <ele>1254</ele>
        <time>2016-07-14T12:46:10Z</time>
      </trkpt>
      <trkpt lat="46.75963" lon="6.35413">
        <ele>1249</ele>
        <time>2016-07-14T12:46:17Z</time>
      </trkpt>
      <trkpt lat="46.75956" lon="6.35406">
        <ele>1250</ele>
        <time>2016-07-14T12:46:21Z</time>
      </trkpt>
      <trkpt lat="46.7595" lon="6.35398">
        <ele>1251</ele>
        <time>2016-07-14T12:46:25Z</time>
      </trkpt>
      <trkpt lat="46.75941" lon="6.3539">
        <ele>1252</ele>
        <time>2016-07-14T12:46:30Z</time>
      </trkpt>
      <trkpt lat="46.75935" lon="6.35383">
        <ele>1252</ele>
        <time>2016-07-14T12:46:34Z</time>
      </trkpt>
      <trkpt lat="46.75931" lon="6.35376">
        <ele>1251</ele>
        <time>2016-07-14T12:46:38Z</time>
      </trkpt>
      <trkpt lat="46.75922" lon="6.35369">
        <ele>1251</ele>
        <time>2016-07-14T12:46:43Z</time>
      </trkpt>
      <trkpt lat="46.75915" lon="6.35363">
        <ele>1265</ele>
        <time>2016-07-14T12:46:48Z</time>
      </trkpt>
      <trkpt lat="46.75911" lon="6.35352">
        <ele>1263</ele>
        <time>2016-07-14T12:46:53Z</time>
      </trkpt>
      <trkpt lat="46.75905" lon="6.35344">
        <ele>1262</ele>
        <time>2016-07-14T12:46:58Z</time>
      </trkpt>
      <trkpt lat="46.75895" lon="6.35338">
        <ele>1263</ele>
        <time>2016-07-14T12:47:03Z</time>
      </trkpt>
      <trkpt lat="46.75887" lon="6.35333">
        <ele>1265</ele>
        <time>2016-07-14T12:47:07Z</time>
      </trkpt>
      <trkpt lat="46.75879" lon="6.3533">
        <ele>1257</ele>
        <time>2016-07-14T12:47:12Z</time>
      </trkpt>
      <trkpt lat="46.75871" lon="6.35324">
        <ele>1258</ele>
        <time>2016-07-14T12:47:17Z</time>
      </trkpt>
      <trkpt lat="46.75863" lon="6.35317">
        <ele>1259</ele>
        <time>2016-07-14T12:47:22Z</time>
      </trkpt>
      <trkpt lat="46.75852" lon="6.35312">
        <ele>1260</ele>
        <time>2016-07-14T12:47:27Z</time>
      </trkpt>
      <trkpt lat="46.75841" lon="6.35307">
        <ele>1261</ele>
        <time>2016-07-14T12:47:32Z</time>
      </trkpt>
      <trkpt lat="46.75833" lon="6.35303">
        <ele>1274</ele>
        <time>2016-07-14T12:47:37Z</time>
      </trkpt>
      <trkpt lat="46.75826" lon="6.35297">
        <ele>1274</ele>
        <time>2016-07-14T12:47:42Z</time>
      </trkpt>
      <trkpt lat="46.75819" lon="6.35293">
        <ele>1274</ele>
        <time>2016-07-14T12:47:47Z</time>
      </trkpt>
      <trkpt lat="46.75811" lon="6.35287">
        <ele>1274</ele>
        <time>2016-07-14T12:47:52Z</time>
      </trkpt>
      <trkpt lat="46.75804" lon="6.35283">
        <ele>1274</ele>
        <time>2016-07-14T12:47:57Z</time>
      </trkpt>
      <trkpt lat="46.75796" lon="6.35278">
        <ele>1275</ele>
        <time>2016-07-14T12:48:02Z</time>
      </trkpt>
      <trkpt lat="46.75788" lon="6.35275">
        <ele>1276</ele>
        <time>2016-07-14T12:48:06Z</time>
      </trkpt>
      <trkpt lat="46.75781" lon="6.35275">
        <ele>1277</ele>
        <time>2016-07-14T12:48:09Z</time>
      </trkpt>
      <trkpt lat="46.75771" lon="6.3527">
        <ele>1278</ele>
        <time>2016-07-14T12:48:14Z</time>
      </trkpt>
      <trkpt lat="46.7576" lon="6.35264">
        <ele>1279</ele>
        <time>2016-07-14T12:48:19Z</time>
      </trkpt>
      <trkpt lat="46.75755" lon="6.35261">
        <ele>1280</ele>
        <time>2016-07-14T12:48:22Z</time>
      </trkpt>
      <trkpt lat="46.75748" lon="6.35252">
        <ele>1283</ele>
        <time>2016-07-14T12:48:26Z</time>
      </trkpt>
      <trkpt lat="46.75741" lon="6.35246">
        <ele>1281</ele>
        <time>2016-07-14T12:48:30Z</time>
      </trkpt>
      <trkpt lat="46.75734" lon="6.35242">
        <ele>1281</ele>
        <time>2016-07-14T12:48:34Z</time>
      </trkpt>
      <trkpt lat="46.75726" lon="6.3524">
        <ele>1282</ele>
        <time>2016-07-14T12:48:39Z</time>
      </trkpt>
      <trkpt lat="46.75721" lon="6.35233">
        <ele>1282</ele>
        <time>2016-07-14T12:48:43Z</time>
      </trkpt>
      <trkpt lat="46.75713" lon="6.35224">
        <ele>1282</ele>
        <time>2016-07-14T12:48:48Z</time>
      </trkpt>
      <trkpt lat="46.75705" lon="6.35222">
        <ele>1283</ele>
        <time>2016-07-14T12:48:54Z</time>
      </trkpt>
      <trkpt lat="46.757" lon="6.3522">
        <ele>1283</ele>
        <time>2016-07-14T12:48:58Z</time>
      </trkpt>
      <trkpt lat="46.75691" lon="6.35218">
        <ele>1284</ele>
        <time>2016-07-14T12:49:03Z</time>
      </trkpt>
      <trkpt lat="46.75683" lon="6.35213">
        <ele>1284</ele>
        <time>2016-07-14T12:49:08Z</time>
      </trkpt>
      <trkpt lat="46.75675" lon="6.35211">
        <ele>1284</ele>
        <time>2016-07-14T12:49:14Z</time>
      </trkpt>
      <trkpt lat="46.75665" lon="6.35211">
        <ele>1294</ele>
        <time>2016-07-14T12:49:19Z</time>
      </trkpt>
      <trkpt lat="46.75656" lon="6.35211">
        <ele>1294</ele>
        <time>2016-07-14T12:49:24Z</time>
      </trkpt>
      <trkpt lat="46.75648" lon="6.3521">
        <ele>1294</ele>
        <time>2016-07-14T12:49:28Z</time>
      </trkpt>
      <trkpt lat="46.75635" lon="6.35208">
        <ele>1295</ele>
        <time>2016-07-14T12:49:33Z</time>
      </trkpt>
      <trkpt lat="46.75627" lon="6.35205">
        <ele>1295</ele>
        <time>2016-07-14T12:49:38Z</time>
      </trkpt>
      <trkpt lat="46.75622" lon="6.35195">
        <ele>1295</ele>
        <time>2016-07-14T12:49:43Z</time>
      </trkpt>
      <trkpt lat="46.75621" lon="6.35184">
        <ele>1295</ele>
        <time>2016-07-14T12:49:48Z</time>
      </trkpt>
      <trkpt lat="46.75615" lon="6.35169">
        <ele>1295</ele>
        <time>2016-07-14T12:49:52Z</time>
      </trkpt>
      <trkpt lat="46.75608" lon="6.35158">
        <ele>1290</ele>
        <time>2016-07-14T12:49:57Z</time>
      </trkpt>
      <trkpt lat="46.75605" lon="6.35148">
        <ele>1289</ele>
        <time>2016-07-14T12:50:01Z</time>
      </trkpt>
      <trkpt lat="46.75599" lon="6.3514">
        <ele>1289</ele>
        <time>2016-07-14T12:50:06Z</time>
      </trkpt>
      <trkpt lat="46.75591" lon="6.35133">
        <ele>1289</ele>
        <time>2016-07-14T12:50:10Z</time>
      </trkpt>
      <trkpt lat="46.75584" lon="6.35124">
        <ele>1289</ele>
        <time>2016-07-14T12:50:14Z</time>
      </trkpt>
      <trkpt lat="46.75577" lon="6.35112">
        <ele>1298</ele>
        <time>2016-07-14T12:50:19Z</time>
      </trkpt>
      <trkpt lat="46.75567" lon="6.35102">
        <ele>1298</ele>
        <time>2016-07-14T12:50:24Z</time>
      </trkpt>
      <trkpt lat="46.7556" lon="6.35092">
        <ele>1298</ele>
        <time>2016-07-14T12:50:28Z</time>
      </trkpt>
      <trkpt lat="46.75556" lon="6.3508">
        <ele>1294</ele>
        <time>2016-07-14T12:50:33Z</time>
      </trkpt>
      <trkpt lat="46.75552" lon="6.35071">
        <ele>1295</ele>
        <time>2016-07-14T12:50:38Z</time>
      </trkpt>
      <trkpt lat="46.75542" lon="6.35065">
        <ele>1296</ele>
        <time>2016-07-14T12:50:43Z</time>
      </trkpt>
      <trkpt lat="46.75535" lon="6.35056">
        <ele>1296</ele>
        <time>2016-07-14T12:50:47Z</time>
      </trkpt>
      <trkpt lat="46.75527" lon="6.35052">
        <ele>1297</ele>
        <time>2016-07-14T12:50:51Z</time>
      </trkpt>
      <trkpt lat="46.75521" lon="6.35045">
        <ele>1297</ele>
        <time>2016-07-14T12:50:56Z</time>
      </trkpt>
      <trkpt lat="46.75513" lon="6.35042">
        <ele>1297</ele>
        <time>2016-07-14T12:51:00Z</time>
      </trkpt>
      <trkpt lat="46.75505" lon="6.3504">
        <ele>1298</ele>
        <time>2016-07-14T12:51:07Z</time>
      </trkpt>
      <trkpt lat="46.75496" lon="6.35043">
        <ele>1307</ele>
        <time>2016-07-14T12:51:12Z</time>
      </trkpt>
      <trkpt lat="46.75489" lon="6.35046">
        <ele>1308</ele>
        <time>2016-07-14T12:51:16Z</time>
      </trkpt>
      <trkpt lat="46.75482" lon="6.35049">
        <ele>1308</ele>
        <time>2016-07-14T12:51:20Z</time>
      </trkpt>
      <trkpt lat="46.75479" lon="6.3505">
        <ele>1308</ele>
        <time>2016-07-14T12:51:24Z</time>
      </trkpt>
      <trkpt lat="46.7547" lon="6.35047">
        <ele>1309</ele>
        <time>2016-07-14T12:51:28Z</time>
      </trkpt>
      <trkpt lat="46.75463" lon="6.35052">
        <ele>1310</ele>
        <time>2016-07-14T12:51:35Z</time>
      </trkpt>
      <trkpt lat="46.75455" lon="6.35051">
        <ele>1310</ele>
        <time>2016-07-14T12:51:39Z</time>
      </trkpt>
      <trkpt lat="46.75444" lon="6.35048">
        <ele>1311</ele>
        <time>2016-07-14T12:51:43Z</time>
      </trkpt>
      <trkpt lat="46.75434" lon="6.3504">
        <ele>1311</ele>
        <time>2016-07-14T12:51:48Z</time>
      </trkpt>
      <trkpt lat="46.75427" lon="6.35036">
        <ele>1311</ele>
        <time>2016-07-14T12:51:52Z</time>
      </trkpt>
      <trkpt lat="46.75421" lon="6.35029">
        <ele>1312</ele>
        <time>2016-07-14T12:51:56Z</time>
      </trkpt>
      <trkpt lat="46.75416" lon="6.35022">
        <ele>1322</ele>
        <time>2016-07-14T12:52:00Z</time>
      </trkpt>
      <trkpt lat="46.75406" lon="6.3501">
        <ele>1320</ele>
        <time>2016-07-14T12:52:05Z</time>
      </trkpt>
      <trkpt lat="46.75402" lon="6.34998">
        <ele>1318</ele>
        <time>2016-07-14T12:52:09Z</time>
      </trkpt>
      <trkpt lat="46.754" lon="6.34987">
        <ele>1319</ele>
        <time>2016-07-14T12:52:14Z</time>
      </trkpt>
      <trkpt lat="46.75394" lon="6.34977">
        <ele>1320</ele>
        <time>2016-07-14T12:52:19Z</time>
      </trkpt>
      <trkpt lat="46.75388" lon="6.34965">
        <ele>1321</ele>
        <time>2016-07-14T12:52:23Z</time>
      </trkpt>
      <trkpt lat="46.75383" lon="6.34954">
        <ele>1321</ele>
        <time>2016-07-14T12:52:27Z</time>
      </trkpt>
      <trkpt lat="46.7538" lon="6.34942">
        <ele>1321</ele>
        <time>2016-07-14T12:52:32Z</time>
      </trkpt>
      <trkpt lat="46.7538" lon="6.34933">
        <ele>1321</ele>
        <time>2016-07-14T12:52:35Z</time>
      </trkpt>
      <trkpt lat="46.75377" lon="6.34924">
        <ele>1321</ele>
        <time>2016-07-14T12:52:39Z</time>
      </trkpt>
      <trkpt lat="46.75373" lon="6.3491">
        <ele>1318</ele>
        <time>2016-07-14T12:52:44Z</time>
      </trkpt>
      <trkpt lat="46.75373" lon="6.34899">
        <ele>1317</ele>
        <time>2016-07-14T12:52:48Z</time>
      </trkpt>
      <trkpt lat="46.75367" lon="6.34888">
        <ele>1318</ele>
        <time>2016-07-14T12:52:53Z</time>
      </trkpt>
      <trkpt lat="46.75361" lon="6.3488">
        <ele>1318</ele>
        <time>2016-07-14T12:52:57Z</time>
      </trkpt>
      <trkpt lat="46.75356" lon="6.34875">
        <ele>1318</ele>
        <time>2016-07-14T12:53:01Z</time>
      </trkpt>
      <trkpt lat="46.75345" lon="6.34867">
        <ele>1319</ele>
        <time>2016-07-14T12:53:06Z</time>
      </trkpt>
      <trkpt lat="46.75338" lon="6.34859">
        <ele>1319</ele>
        <time>2016-07-14T12:53:13Z</time>
      </trkpt>
      <trkpt lat="46.75331" lon="6.34851">
        <ele>1328</ele>
        <time>2016-07-14T12:53:18Z</time>
      </trkpt>
      <trkpt lat="46.75324" lon="6.34841">
        <ele>1327</ele>
        <time>2016-07-14T12:53:22Z</time>
      </trkpt>
      <trkpt lat="46.75316" lon="6.34831">
        <ele>1325</ele>
        <time>2016-07-14T12:53:27Z</time>
      </trkpt>
      <trkpt lat="46.75309" lon="6.34825">
        <ele>1325</ele>
        <time>2016-07-14T12:53:31Z</time>
      </trkpt>
      <trkpt lat="46.75301" lon="6.34828">
        <ele>1327</ele>
        <time>2016-07-14T12:53:43Z</time>
      </trkpt>
      <trkpt lat="46.75294" lon="6.34836">
        <ele>1333</ele>
        <time>2016-07-14T12:53:49Z</time>
      </trkpt>
      <trkpt lat="46.75289" lon="6.34845">
        <ele>1334</ele>
        <time>2016-07-14T12:53:53Z</time>
      </trkpt>
      <trkpt lat="46.75292" lon="6.34854">
        <ele>1334</ele>
        <time>2016-07-14T12:53:57Z</time>
      </trkpt>
      <trkpt lat="46.753" lon="6.34865">
        <ele>1333</ele>
        <time>2016-07-14T12:54:02Z</time>
      </trkpt>
      <trkpt lat="46.75307" lon="6.34872">
        <ele>1333</ele>
        <time>2016-07-14T12:54:08Z</time>
      </trkpt>
      <trkpt lat="46.75315" lon="6.34876">
        <ele>1332</ele>
        <time>2016-07-14T12:54:16Z</time>
      </trkpt>
      <trkpt lat="46.75321" lon="6.34885">
        <ele>1332</ele>
        <time>2016-07-14T12:54:22Z</time>
      </trkpt>
      <trkpt lat="46.75324" lon="6.34892">
        <ele>1332</ele>
        <time>2016-07-14T12:54:24Z</time>
      </trkpt>
      <trkpt lat="46.75326" lon="6.34904">
        <ele>1332</ele>
        <time>2016-07-14T12:54:28Z</time>
      </trkpt>
      <trkpt lat="46.75327" lon="6.34924">
        <ele>1333</ele>
        <time>2016-07-14T12:54:33Z</time>
      </trkpt>
      <trkpt lat="46.75327" lon="6.34942">
        <ele>1336</ele>
        <time>2016-07-14T12:54:38Z</time>
      </trkpt>
      <trkpt lat="46.75326" lon="6.34955">
        <ele>1337</ele>
        <time>2016-07-14T12:54:43Z</time>
      </trkpt>
      <trkpt lat="46.75327" lon="6.34968">
        <ele>1338</ele>
        <time>2016-07-14T12:54:47Z</time>
      </trkpt>
      <trkpt lat="46.75331" lon="6.34978">
        <ele>1338</ele>
        <time>2016-07-14T12:54:51Z</time>
      </trkpt>
      <trkpt lat="46.75333" lon="6.34984">
        <ele>1330</ele>
        <time>2016-07-14T12:54:55Z</time>
      </trkpt>
      <trkpt lat="46.75337" lon="6.34997">
        <ele>1334</ele>
        <time>2016-07-14T12:54:59Z</time>
      </trkpt>
      <trkpt lat="46.75339" lon="6.3501">
        <ele>1333</ele>
        <time>2016-07-14T12:55:05Z</time>
      </trkpt>
      <trkpt lat="46.75338" lon="6.35023">
        <ele>1332</ele>
        <time>2016-07-14T12:55:10Z</time>
      </trkpt>
      <trkpt lat="46.75338" lon="6.35036">
        <ele>1333</ele>
        <time>2016-07-14T12:55:15Z</time>
      </trkpt>
      <trkpt lat="46.75342" lon="6.35047">
        <ele>1333</ele>
        <time>2016-07-14T12:55:20Z</time>
      </trkpt>
      <trkpt lat="46.75339" lon="6.3506">
        <ele>1336</ele>
        <time>2016-07-14T12:55:25Z</time>
      </trkpt>
      <trkpt lat="46.75338" lon="6.35072">
        <ele>1340</ele>
        <time>2016-07-14T12:55:30Z</time>
      </trkpt>
      <trkpt lat="46.7534" lon="6.35084">
        <ele>1344</ele>
        <time>2016-07-14T12:55:36Z</time>
      </trkpt>
      <trkpt lat="46.75342" lon="6.35095">
        <ele>1342</ele>
        <time>2016-07-14T12:55:42Z</time>
      </trkpt>
      <trkpt lat="46.75345" lon="6.35106">
        <ele>1340</ele>
        <time>2016-07-14T12:55:46Z</time>
      </trkpt>
      <trkpt lat="46.75347" lon="6.35117">
        <ele>1340</ele>
        <time>2016-07-14T12:55:53Z</time>
      </trkpt>
      <trkpt lat="46.75348" lon="6.35129">
        <ele>1341</ele>
        <time>2016-07-14T12:55:58Z</time>
      </trkpt>
      <trkpt lat="46.75348" lon="6.35143">
        <ele>1342</ele>
        <time>2016-07-14T12:56:03Z</time>
      </trkpt>
      <trkpt lat="46.7535" lon="6.35155">
        <ele>1344</ele>
        <time>2016-07-14T12:56:08Z</time>
      </trkpt>
      <trkpt lat="46.75354" lon="6.35167">
        <ele>1347</ele>
        <time>2016-07-14T12:56:13Z</time>
      </trkpt>
      <trkpt lat="46.75354" lon="6.35178">
        <ele>1346</ele>
        <time>2016-07-14T12:56:17Z</time>
      </trkpt>
      <trkpt lat="46.75356" lon="6.35192">
        <ele>1345</ele>
        <time>2016-07-14T12:56:21Z</time>
      </trkpt>
      <trkpt lat="46.75356" lon="6.35212">
        <ele>1345</ele>
        <time>2016-07-14T12:56:26Z</time>
      </trkpt>
      <trkpt lat="46.75354" lon="6.35227">
        <ele>1346</ele>
        <time>2016-07-14T12:56:30Z</time>
      </trkpt>
      <trkpt lat="46.7535" lon="6.35239">
        <ele>1348</ele>
        <time>2016-07-14T12:56:34Z</time>
      </trkpt>
      <trkpt lat="46.75348" lon="6.35251">
        <ele>1351</ele>
        <time>2016-07-14T12:56:40Z</time>
      </trkpt>
      <trkpt lat="46.75347" lon="6.35263">
        <ele>1350</ele>
        <time>2016-07-14T12:56:45Z</time>
      </trkpt>
      <trkpt lat="46.75343" lon="6.35275">
        <ele>1349</ele>
        <time>2016-07-14T12:56:50Z</time>
      </trkpt>
      <trkpt lat="46.75341" lon="6.35286">
        <ele>1349</ele>
        <time>2016-07-14T12:56:55Z</time>
      </trkpt>
      <trkpt lat="46.75342" lon="6.35297">
        <ele>1349</ele>
        <time>2016-07-14T12:56:59Z</time>
      </trkpt>
      <trkpt lat="46.75343" lon="6.35308">
        <ele>1350</ele>
        <time>2016-07-14T12:57:03Z</time>
      </trkpt>
      <trkpt lat="46.75343" lon="6.35316">
        <ele>1351</ele>
        <time>2016-07-14T12:57:06Z</time>
      </trkpt>
      <trkpt lat="46.75345" lon="6.35329">
        <ele>1353</ele>
        <time>2016-07-14T12:57:11Z</time>
      </trkpt>
      <trkpt lat="46.75349" lon="6.3534">
        <ele>1352</ele>
        <time>2016-07-14T12:57:16Z</time>
      </trkpt>
      <trkpt lat="46.75352" lon="6.3535">
        <ele>1350</ele>
        <time>2016-07-14T12:57:20Z</time>
      </trkpt>
      <trkpt lat="46.75352" lon="6.35363">
        <ele>1349</ele>
        <time>2016-07-14T12:57:23Z</time>
      </trkpt>
      <trkpt lat="46.75351" lon="6.35378">
        <ele>1349</ele>
        <time>2016-07-14T12:57:28Z</time>
      </trkpt>
      <trkpt lat="46.75348" lon="6.35389">
        <ele>1350</ele>
        <time>2016-07-14T12:57:31Z</time>
      </trkpt>
      <trkpt lat="46.75343" lon="6.354">
        <ele>1352</ele>
        <time>2016-07-14T12:57:35Z</time>
      </trkpt>
      <trkpt lat="46.75336" lon="6.35408">
        <ele>1354</ele>
        <time>2016-07-14T12:57:39Z</time>
      </trkpt>
      <trkpt lat="46.75327" lon="6.35413">
        <ele>1360</ele>
        <time>2016-07-14T12:57:44Z</time>
      </trkpt>
      <trkpt lat="46.75318" lon="6.35415">
        <ele>1362</ele>
        <time>2016-07-14T12:57:50Z</time>
      </trkpt>
      <trkpt lat="46.75306" lon="6.35419">
        <ele>1364</ele>
        <time>2016-07-14T12:57:54Z</time>
      </trkpt>
      <trkpt lat="46.75295" lon="6.3542">
        <ele>1365</ele>
        <time>2016-07-14T12:57:59Z</time>
      </trkpt>
      <trkpt lat="46.75287" lon="6.35425">
        <ele>1366</ele>
        <time>2016-07-14T12:58:06Z</time>
      </trkpt>
      <trkpt lat="46.75283" lon="6.35426">
        <ele>1367</ele>
        <time>2016-07-14T12:58:09Z</time>
      </trkpt>
      <trkpt lat="46.75276" lon="6.35433">
        <ele>1367</ele>
        <time>2016-07-14T12:58:14Z</time>
      </trkpt>
      <trkpt lat="46.7527" lon="6.3544">
        <ele>1368</ele>
        <time>2016-07-14T12:58:19Z</time>
      </trkpt>
      <trkpt lat="46.75263" lon="6.35446">
        <ele>1368</ele>
        <time>2016-07-14T12:58:26Z</time>
      </trkpt>
      <trkpt lat="46.75257" lon="6.35455">
        <ele>1368</ele>
        <time>2016-07-14T12:58:33Z</time>
      </trkpt>
      <trkpt lat="46.75251" lon="6.35463">
        <ele>1369</ele>
        <time>2016-07-14T12:58:38Z</time>
      </trkpt>
      <trkpt lat="46.75248" lon="6.35474">
        <ele>1378</ele>
        <time>2016-07-14T12:58:43Z</time>
      </trkpt>
      <trkpt lat="46.75244" lon="6.35483">
        <ele>1378</ele>
        <time>2016-07-14T12:58:48Z</time>
      </trkpt>
      <trkpt lat="46.75238" lon="6.35493">
        <ele>1377</ele>
        <time>2016-07-14T12:58:54Z</time>
      </trkpt>
      <trkpt lat="46.75232" lon="6.35501">
        <ele>1377</ele>
        <time>2016-07-14T12:58:59Z</time>
      </trkpt>
      <trkpt lat="46.75225" lon="6.35503">
        <ele>1378</ele>
        <time>2016-07-14T12:59:03Z</time>
      </trkpt>
      <trkpt lat="46.75216" lon="6.35502">
        <ele>1379</ele>
        <time>2016-07-14T12:59:08Z</time>
      </trkpt>
      <trkpt lat="46.7521" lon="6.35492">
        <ele>1381</ele>
        <time>2016-07-14T12:59:15Z</time>
      </trkpt>
      <trkpt lat="46.7521" lon="6.3548">
        <ele>1381</ele>
        <time>2016-07-14T12:59:20Z</time>
      </trkpt>
      <trkpt lat="46.75209" lon="6.3547">
        <ele>1382</ele>
        <time>2016-07-14T12:59:24Z</time>
      </trkpt>
      <trkpt lat="46.75209" lon="6.35459">
        <ele>1382</ele>
        <time>2016-07-14T12:59:30Z</time>
      </trkpt>
      <trkpt lat="46.75206" lon="6.35448">
        <ele>1382</ele>
        <time>2016-07-14T12:59:35Z</time>
      </trkpt>
      <trkpt lat="46.75205" lon="6.35435">
        <ele>1383</ele>
        <time>2016-07-14T12:59:40Z</time>
      </trkpt>
      <trkpt lat="46.75204" lon="6.35423">
        <ele>1383</ele>
        <time>2016-07-14T12:59:46Z</time>
      </trkpt>
      <trkpt lat="46.75205" lon="6.35411">
        <ele>1385</ele>
        <time>2016-07-14T12:59:50Z</time>
      </trkpt>
      <trkpt lat="46.75205" lon="6.35399">
        <ele>1385</ele>
        <time>2016-07-14T12:59:56Z</time>
      </trkpt>
      <trkpt lat="46.75206" lon="6.35388">
        <ele>1385</ele>
        <time>2016-07-14T13:00:01Z</time>
      </trkpt>
      <trkpt lat="46.75207" lon="6.35378">
        <ele>1386</ele>
        <time>2016-07-14T13:00:06Z</time>
      </trkpt>
      <trkpt lat="46.75207" lon="6.35367">
        <ele>1386</ele>
        <time>2016-07-14T13:00:10Z</time>
      </trkpt>
      <trkpt lat="46.75205" lon="6.35356">
        <ele>1387</ele>
        <time>2016-07-14T13:00:15Z</time>
      </trkpt>
      <trkpt lat="46.75202" lon="6.35345">
        <ele>1387</ele>
        <time>2016-07-14T13:00:20Z</time>
      </trkpt>
      <trkpt lat="46.75199" lon="6.35334">
        <ele>1388</ele>
        <time>2016-07-14T13:00:25Z</time>
      </trkpt>
      <trkpt lat="46.75193" lon="6.35324">
        <ele>1390</ele>
        <time>2016-07-14T13:00:31Z</time>
      </trkpt>
      <trkpt lat="46.75188" lon="6.35315">
        <ele>1390</ele>
        <time>2016-07-14T13:00:37Z</time>
      </trkpt>
      <trkpt lat="46.75183" lon="6.35305">
        <ele>1390</ele>
        <time>2016-07-14T13:00:43Z</time>
      </trkpt>
      <trkpt lat="46.75177" lon="6.35298">
        <ele>1390</ele>
        <time>2016-07-14T13:00:48Z</time>
      </trkpt>
      <trkpt lat="46.75171" lon="6.35291">
        <ele>1390</ele>
        <time>2016-07-14T13:00:53Z</time>
      </trkpt>
      <trkpt lat="46.75165" lon="6.35282">
        <ele>1400</ele>
        <time>2016-07-14T13:00:59Z</time>
      </trkpt>
      <trkpt lat="46.7516" lon="6.35275">
        <ele>1399</ele>
        <time>2016-07-14T13:01:04Z</time>
      </trkpt>
      <trkpt lat="46.75154" lon="6.35267">
        <ele>1399</ele>
        <time>2016-07-14T13:01:09Z</time>
      </trkpt>
      <trkpt lat="46.75149" lon="6.35259">
        <ele>1399</ele>
        <time>2016-07-14T13:01:14Z</time>
      </trkpt>
      <trkpt lat="46.75143" lon="6.35251">
        <ele>1399</ele>
        <time>2016-07-14T13:01:19Z</time>
      </trkpt>
      <trkpt lat="46.7514" lon="6.35241">
        <ele>1396</ele>
        <time>2016-07-14T13:01:24Z</time>
      </trkpt>
      <trkpt lat="46.75137" lon="6.3523">
        <ele>1397</ele>
        <time>2016-07-14T13:01:29Z</time>
      </trkpt>
      <trkpt lat="46.75133" lon="6.35219">
        <ele>1397</ele>
        <time>2016-07-14T13:01:34Z</time>
      </trkpt>
      <trkpt lat="46.7513" lon="6.35208">
        <ele>1396</ele>
        <time>2016-07-14T13:01:39Z</time>
      </trkpt>
      <trkpt lat="46.75125" lon="6.35198">
        <ele>1396</ele>
        <time>2016-07-14T13:01:44Z</time>
      </trkpt>
      <trkpt lat="46.75119" lon="6.35193">
        <ele>1397</ele>
        <time>2016-07-14T13:01:49Z</time>
      </trkpt>
      <trkpt lat="46.7511" lon="6.35192">
        <ele>1397</ele>
        <time>2016-07-14T13:01:54Z</time>
      </trkpt>
      <trkpt lat="46.75103" lon="6.35198">
        <ele>1398</ele>
        <time>2016-07-14T13:02:00Z</time>
      </trkpt>
      <trkpt lat="46.75099" lon="6.35208">
        <ele>1399</ele>
        <time>2016-07-14T13:02:06Z</time>
      </trkpt>
      <trkpt lat="46.75097" lon="6.3522">
        <ele>1400</ele>
        <time>2016-07-14T13:02:12Z</time>
      </trkpt>
      <trkpt lat="46.75098" lon="6.3523">
        <ele>1401</ele>
        <time>2016-07-14T13:02:17Z</time>
      </trkpt>
      <trkpt lat="46.75097" lon="6.3524">
        <ele>1402</ele>
        <time>2016-07-14T13:02:22Z</time>
      </trkpt>
      <trkpt lat="46.75098" lon="6.35243">
        <ele>1402</ele>
        <time>2016-07-14T13:02:23Z</time>
      </trkpt>
      <trkpt lat="46.751" lon="6.35258">
        <ele>1404</ele>
        <time>2016-07-14T13:02:31Z</time>
      </trkpt>
      <trkpt lat="46.75103" lon="6.35269">
        <ele>1404</ele>
        <time>2016-07-14T13:02:36Z</time>
      </trkpt>
      <trkpt lat="46.75105" lon="6.35281">
        <ele>1404</ele>
        <time>2016-07-14T13:02:41Z</time>
      </trkpt>
      <trkpt lat="46.75104" lon="6.35294">
        <ele>1404</ele>
        <time>2016-07-14T13:02:46Z</time>
      </trkpt>
      <trkpt lat="46.75101" lon="6.35306">
        <ele>1405</ele>
        <time>2016-07-14T13:02:51Z</time>
      </trkpt>
      <trkpt lat="46.75099" lon="6.35319">
        <ele>1406</ele>
        <time>2016-07-14T13:02:56Z</time>
      </trkpt>
      <trkpt lat="46.75098" lon="6.35329">
        <ele>1407</ele>
        <time>2016-07-14T13:03:00Z</time>
      </trkpt>
      <trkpt lat="46.75098" lon="6.35341">
        <ele>1407</ele>
        <time>2016-07-14T13:03:04Z</time>
      </trkpt>
      <trkpt lat="46.75102" lon="6.35358">
        <ele>1406</ele>
        <time>2016-07-14T13:03:09Z</time>
      </trkpt>
      <trkpt lat="46.75105" lon="6.35367">
        <ele>1405</ele>
        <time>2016-07-14T13:03:13Z</time>
      </trkpt>
      <trkpt lat="46.75113" lon="6.35377">
        <ele>1404</ele>
        <time>2016-07-14T13:03:17Z</time>
      </trkpt>
      <trkpt lat="46.75121" lon="6.35384">
        <ele>1403</ele>
        <time>2016-07-14T13:03:21Z</time>
      </trkpt>
      <trkpt lat="46.75113" lon="6.35383">
        <ele>1404</ele>
        <time>2016-07-14T13:09:06Z</time>
      </trkpt>
      <trkpt lat="46.75104" lon="6.35382">
        <ele>1405</ele>
        <time>2016-07-14T13:09:10Z</time>
      </trkpt>
      <trkpt lat="46.75097" lon="6.35388">
        <ele>1405</ele>
        <time>2016-07-14T13:09:14Z</time>
      </trkpt>
      <trkpt lat="46.75095" lon="6.354">
        <ele>1406</ele>
        <time>2016-07-14T13:09:18Z</time>
      </trkpt>
      <trkpt lat="46.75083" lon="6.3542">
        <ele>1407</ele>
        <time>2016-07-14T13:09:23Z</time>
      </trkpt>
      <trkpt lat="46.75073" lon="6.35423">
        <ele>1404</ele>
        <time>2016-07-14T13:09:28Z</time>
      </trkpt>
      <trkpt lat="46.75066" lon="6.3543">
        <ele>1401</ele>
        <time>2016-07-14T13:09:32Z</time>
      </trkpt>
      <trkpt lat="46.75058" lon="6.35446">
        <ele>1398</ele>
        <time>2016-07-14T13:09:37Z</time>
      </trkpt>
      <trkpt lat="46.7504" lon="6.35467">
        <ele>1395</ele>
        <time>2016-07-14T13:09:42Z</time>
      </trkpt>
      <trkpt lat="46.75033" lon="6.35462">
        <ele>1395</ele>
        <time>2016-07-14T13:09:51Z</time>
      </trkpt>
      <trkpt lat="46.75029" lon="6.35451">
        <ele>1395</ele>
        <time>2016-07-14T13:10:11Z</time>
      </trkpt>
      <trkpt lat="46.75021" lon="6.35454">
        <ele>1395</ele>
        <time>2016-07-14T13:10:17Z</time>
      </trkpt>
      <trkpt lat="46.75017" lon="6.35466">
        <ele>1394</ele>
        <time>2016-07-14T13:10:22Z</time>
      </trkpt>
      <trkpt lat="46.75017" lon="6.35478">
        <ele>1393</ele>
        <time>2016-07-14T13:10:27Z</time>
      </trkpt>
      <trkpt lat="46.7501" lon="6.3549">
        <ele>1390</ele>
        <time>2016-07-14T13:10:32Z</time>
      </trkpt>
      <trkpt lat="46.75003" lon="6.35502">
        <ele>1386</ele>
        <time>2016-07-14T13:10:37Z</time>
      </trkpt>
      <trkpt lat="46.74995" lon="6.35515">
        <ele>1379</ele>
        <time>2016-07-14T13:10:41Z</time>
      </trkpt>
      <trkpt lat="46.74987" lon="6.35531">
        <ele>1376</ele>
        <time>2016-07-14T13:10:45Z</time>
      </trkpt>
      <trkpt lat="46.7497" lon="6.35557">
        <ele>1372</ele>
        <time>2016-07-14T13:10:50Z</time>
      </trkpt>
      <trkpt lat="46.74953" lon="6.35578">
        <ele>1370</ele>
        <time>2016-07-14T13:10:55Z</time>
      </trkpt>
      <trkpt lat="46.74939" lon="6.35587">
        <ele>1363</ele>
        <time>2016-07-14T13:11:00Z</time>
      </trkpt>
      <trkpt lat="46.74905" lon="6.35588">
        <ele>1357</ele>
        <time>2016-07-14T13:11:05Z</time>
      </trkpt>
      <trkpt lat="46.749" lon="6.35579">
        <ele>1358</ele>
        <time>2016-07-14T13:11:10Z</time>
      </trkpt>
      <trkpt lat="46.74895" lon="6.35573">
        <ele>1357</ele>
        <time>2016-07-14T13:11:27Z</time>
      </trkpt>
      <trkpt lat="46.74871" lon="6.35548">
        <ele>1355</ele>
        <time>2016-07-14T13:11:32Z</time>
      </trkpt>
      <trkpt lat="46.74849" lon="6.35524">
        <ele>1352</ele>
        <time>2016-07-14T13:11:36Z</time>
      </trkpt>
      <trkpt lat="46.74838" lon="6.35505">
        <ele>1347</ele>
        <time>2016-07-14T13:11:40Z</time>
      </trkpt>
      <trkpt lat="46.7483" lon="6.35512">
        <ele>1343</ele>
        <time>2016-07-14T13:11:45Z</time>
      </trkpt>
      <trkpt lat="46.74823" lon="6.35522">
        <ele>1342</ele>
        <time>2016-07-14T13:11:50Z</time>
      </trkpt>
      <trkpt lat="46.74814" lon="6.35528">
        <ele>1342</ele>
        <time>2016-07-14T13:11:54Z</time>
      </trkpt>
      <trkpt lat="46.74802" lon="6.35544">
        <ele>1341</ele>
        <time>2016-07-14T13:11:59Z</time>
      </trkpt>
      <trkpt lat="46.7479" lon="6.35559">
        <ele>1341</ele>
        <time>2016-07-14T13:12:03Z</time>
      </trkpt>
      <trkpt lat="46.74775" lon="6.35579">
        <ele>1340</ele>
        <time>2016-07-14T13:12:08Z</time>
      </trkpt>
      <trkpt lat="46.74765" lon="6.35596">
        <ele>1342</ele>
        <time>2016-07-14T13:12:12Z</time>
      </trkpt>
      <trkpt lat="46.7475" lon="6.3561">
        <ele>1343</ele>
        <time>2016-07-14T13:12:17Z</time>
      </trkpt>
      <trkpt lat="46.74734" lon="6.35617">
        <ele>1342</ele>
        <time>2016-07-14T13:12:22Z</time>
      </trkpt>
      <trkpt lat="46.74718" lon="6.35619">
        <ele>1342</ele>
        <time>2016-07-14T13:12:25Z</time>
      </trkpt>
      <trkpt lat="46.74704" lon="6.35624">
        <ele>1342</ele>
        <time>2016-07-14T13:12:30Z</time>
      </trkpt>
      <trkpt lat="46.74691" lon="6.35635">
        <ele>1343</ele>
        <time>2016-07-14T13:12:34Z</time>
      </trkpt>
      <trkpt lat="46.74688" lon="6.35644">
        <ele>1344</ele>
        <time>2016-07-14T13:12:38Z</time>
      </trkpt>
      <trkpt lat="46.74684" lon="6.35656">
        <ele>1345</ele>
        <time>2016-07-14T13:12:42Z</time>
      </trkpt>
      <trkpt lat="46.74684" lon="6.35669">
        <ele>1349</ele>
        <time>2016-07-14T13:12:46Z</time>
      </trkpt>
      <trkpt lat="46.74687" lon="6.3569">
        <ele>1350</ele>
        <time>2016-07-14T13:12:51Z</time>
      </trkpt>
      <trkpt lat="46.74694" lon="6.3571">
        <ele>1350</ele>
        <time>2016-07-14T13:12:56Z</time>
      </trkpt>
      <trkpt lat="46.74703" lon="6.35721">
        <ele>1350</ele>
        <time>2016-07-14T13:13:00Z</time>
      </trkpt>
      <trkpt lat="46.74714" lon="6.35734">
        <ele>1350</ele>
        <time>2016-07-14T13:13:05Z</time>
      </trkpt>
      <trkpt lat="46.74722" lon="6.35739">
        <ele>1350</ele>
        <time>2016-07-14T13:13:09Z</time>
      </trkpt>
      <trkpt lat="46.74733" lon="6.35745">
        <ele>1349</ele>
        <time>2016-07-14T13:13:13Z</time>
      </trkpt>
      <trkpt lat="46.74748" lon="6.35747">
        <ele>1348</ele>
        <time>2016-07-14T13:13:17Z</time>
      </trkpt>
      <trkpt lat="46.74758" lon="6.35746">
        <ele>1347</ele>
        <time>2016-07-14T13:13:21Z</time>
      </trkpt>
      <trkpt lat="46.74767" lon="6.35747">
        <ele>1347</ele>
        <time>2016-07-14T13:13:25Z</time>
      </trkpt>
      <trkpt lat="46.74769" lon="6.35755">
        <ele>1346</ele>
        <time>2016-07-14T13:13:29Z</time>
      </trkpt>
      <trkpt lat="46.74765" lon="6.35782">
        <ele>1345</ele>
        <time>2016-07-14T13:13:33Z</time>
      </trkpt>
      <trkpt lat="46.74755" lon="6.35798">
        <ele>1345</ele>
        <time>2016-07-14T13:13:37Z</time>
      </trkpt>
      <trkpt lat="46.7474" lon="6.35818">
        <ele>1351</ele>
        <time>2016-07-14T13:13:42Z</time>
      </trkpt>
      <trkpt lat="46.7473" lon="6.35838">
        <ele>1352</ele>
        <time>2016-07-14T13:13:47Z</time>
      </trkpt>
      <trkpt lat="46.74724" lon="6.35863">
        <ele>1354</ele>
        <time>2016-07-14T13:13:51Z</time>
      </trkpt>
      <trkpt lat="46.74712" lon="6.35884">
        <ele>1355</ele>
        <time>2016-07-14T13:13:56Z</time>
      </trkpt>
      <trkpt lat="46.74703" lon="6.35879">
        <ele>1356</ele>
        <time>2016-07-14T13:14:02Z</time>
      </trkpt>
      <trkpt lat="46.74696" lon="6.35887">
        <ele>1357</ele>
        <time>2016-07-14T13:14:07Z</time>
      </trkpt>
      <trkpt lat="46.74688" lon="6.35887">
        <ele>1357</ele>
        <time>2016-07-14T13:14:10Z</time>
      </trkpt>
      <trkpt lat="46.74679" lon="6.35883">
        <ele>1358</ele>
        <time>2016-07-14T13:14:15Z</time>
      </trkpt>
      <trkpt lat="46.7467" lon="6.35881">
        <ele>1358</ele>
        <time>2016-07-14T13:14:20Z</time>
      </trkpt>
      <trkpt lat="46.74663" lon="6.35879">
        <ele>1366</ele>
        <time>2016-07-14T13:14:25Z</time>
      </trkpt>
      <trkpt lat="46.74655" lon="6.35877">
        <ele>1366</ele>
        <time>2016-07-14T13:14:30Z</time>
      </trkpt>
      <trkpt lat="46.74647" lon="6.35874">
        <ele>1366</ele>
        <time>2016-07-14T13:14:34Z</time>
      </trkpt>
      <trkpt lat="46.74638" lon="6.35871">
        <ele>1367</ele>
        <time>2016-07-14T13:14:38Z</time>
      </trkpt>
      <trkpt lat="46.7463" lon="6.35872">
        <ele>1367</ele>
        <time>2016-07-14T13:14:43Z</time>
      </trkpt>
      <trkpt lat="46.74624" lon="6.35879">
        <ele>1367</ele>
        <time>2016-07-14T13:14:47Z</time>
      </trkpt>
      <trkpt lat="46.74616" lon="6.35884">
        <ele>1368</ele>
        <time>2016-07-14T13:14:53Z</time>
      </trkpt>
      <trkpt lat="46.7461" lon="6.35892">
        <ele>1368</ele>
        <time>2016-07-14T13:14:58Z</time>
      </trkpt>
      <trkpt lat="46.74603" lon="6.35898">
        <ele>1368</ele>
        <time>2016-07-14T13:15:03Z</time>
      </trkpt>
      <trkpt lat="46.74592" lon="6.35897">
        <ele>1368</ele>
        <time>2016-07-14T13:15:07Z</time>
      </trkpt>
      <trkpt lat="46.74581" lon="6.35891">
        <ele>1370</ele>
        <time>2016-07-14T13:15:12Z</time>
      </trkpt>
      <trkpt lat="46.74576" lon="6.35883">
        <ele>1371</ele>
        <time>2016-07-14T13:15:16Z</time>
      </trkpt>
      <trkpt lat="46.74572" lon="6.35873">
        <ele>1371</ele>
        <time>2016-07-14T13:15:21Z</time>
      </trkpt>
      <trkpt lat="46.74566" lon="6.35866">
        <ele>1372</ele>
        <time>2016-07-14T13:15:25Z</time>
      </trkpt>
      <trkpt lat="46.74557" lon="6.35862">
        <ele>1372</ele>
        <time>2016-07-14T13:15:30Z</time>
      </trkpt>
      <trkpt lat="46.74551" lon="6.35862">
        <ele>1372</ele>
        <time>2016-07-14T13:15:34Z</time>
      </trkpt>
      <trkpt lat="46.74543" lon="6.35859">
        <ele>1373</ele>
        <time>2016-07-14T13:15:39Z</time>
      </trkpt>
      <trkpt lat="46.74536" lon="6.35852">
        <ele>1374</ele>
        <time>2016-07-14T13:15:42Z</time>
      </trkpt>
      <trkpt lat="46.74529" lon="6.35843">
        <ele>1375</ele>
        <time>2016-07-14T13:15:47Z</time>
      </trkpt>
      <trkpt lat="46.74522" lon="6.35837">
        <ele>1376</ele>
        <time>2016-07-14T13:15:52Z</time>
      </trkpt>
      <trkpt lat="46.74516" lon="6.35829">
        <ele>1381</ele>
        <time>2016-07-14T13:16:06Z</time>
      </trkpt>
      <trkpt lat="46.7451" lon="6.35821">
        <ele>1381</ele>
        <time>2016-07-14T13:16:12Z</time>
      </trkpt>
      <trkpt lat="46.74502" lon="6.35816">
        <ele>1381</ele>
        <time>2016-07-14T13:16:46Z</time>
      </trkpt>
      <trkpt lat="46.74497" lon="6.35825">
        <ele>1383</ele>
        <time>2016-07-14T13:16:52Z</time>
      </trkpt>
      <trkpt lat="46.74488" lon="6.35832">
        <ele>1383</ele>
        <time>2016-07-14T13:16:57Z</time>
      </trkpt>
      <trkpt lat="46.74481" lon="6.35825">
        <ele>1382</ele>
        <time>2016-07-14T13:17:02Z</time>
      </trkpt>
      <trkpt lat="46.74476" lon="6.35817">
        <ele>1382</ele>
        <time>2016-07-14T13:17:07Z</time>
      </trkpt>
      <trkpt lat="46.74468" lon="6.35811">
        <ele>1382</ele>
        <time>2016-07-14T13:17:12Z</time>
      </trkpt>
      <trkpt lat="46.7446" lon="6.35809">
        <ele>1381</ele>
        <time>2016-07-14T13:17:17Z</time>
      </trkpt>
      <trkpt lat="46.74453" lon="6.35803">
        <ele>1381</ele>
        <time>2016-07-14T13:17:21Z</time>
      </trkpt>
      <trkpt lat="46.74446" lon="6.35795">
        <ele>1381</ele>
        <time>2016-07-14T13:17:26Z</time>
      </trkpt>
      <trkpt lat="46.74441" lon="6.35795">
        <ele>1381</ele>
        <time>2016-07-14T13:17:29Z</time>
      </trkpt>
      <trkpt lat="46.74433" lon="6.35795">
        <ele>1381</ele>
        <time>2016-07-14T13:17:33Z</time>
      </trkpt>
      <trkpt lat="46.74426" lon="6.35789">
        <ele>1382</ele>
        <time>2016-07-14T13:17:37Z</time>
      </trkpt>
      <trkpt lat="46.74419" lon="6.35785">
        <ele>1382</ele>
        <time>2016-07-14T13:17:42Z</time>
      </trkpt>
      <trkpt lat="46.7441" lon="6.3578">
        <ele>1376</ele>
        <time>2016-07-14T13:17:47Z</time>
      </trkpt>
      <trkpt lat="46.74403" lon="6.35775">
        <ele>1376</ele>
        <time>2016-07-14T13:17:51Z</time>
      </trkpt>
      <trkpt lat="46.74391" lon="6.35763">
        <ele>1377</ele>
        <time>2016-07-14T13:17:56Z</time>
      </trkpt>
      <trkpt lat="46.7438" lon="6.35748">
        <ele>1385</ele>
        <time>2016-07-14T13:18:00Z</time>
      </trkpt>
      <trkpt lat="46.74372" lon="6.35741">
        <ele>1385</ele>
        <time>2016-07-14T13:18:04Z</time>
      </trkpt>
      <trkpt lat="46.74356" lon="6.35749">
        <ele>1384</ele>
        <time>2016-07-14T13:18:08Z</time>
      </trkpt>
      <trkpt lat="46.74337" lon="6.35737">
        <ele>1384</ele>
        <time>2016-07-14T13:18:12Z</time>
      </trkpt>
      <trkpt lat="46.74323" lon="6.35725">
        <ele>1378</ele>
        <time>2016-07-14T13:18:17Z</time>
      </trkpt>
      <trkpt lat="46.7432" lon="6.35715">
        <ele>1378</ele>
        <time>2016-07-14T13:18:21Z</time>
      </trkpt>
      <trkpt lat="46.74311" lon="6.35707">
        <ele>1377</ele>
        <time>2016-07-14T13:18:26Z</time>
      </trkpt>
      <trkpt lat="46.74304" lon="6.35701">
        <ele>1377</ele>
        <time>2016-07-14T13:18:30Z</time>
      </trkpt>
      <trkpt lat="46.74296" lon="6.35691">
        <ele>1378</ele>
        <time>2016-07-14T13:18:35Z</time>
      </trkpt>
      <trkpt lat="46.7429" lon="6.35683">
        <ele>1378</ele>
        <time>2016-07-14T13:18:39Z</time>
      </trkpt>
      <trkpt lat="46.74285" lon="6.35669">
        <ele>1379</ele>
        <time>2016-07-14T13:18:44Z</time>
      </trkpt>
      <trkpt lat="46.74284" lon="6.35659">
        <ele>1386</ele>
        <time>2016-07-14T13:18:47Z</time>
      </trkpt>
      <trkpt lat="46.7428" lon="6.35647">
        <ele>1386</ele>
        <time>2016-07-14T13:18:51Z</time>
      </trkpt>
      <trkpt lat="46.74275" lon="6.35634">
        <ele>1387</ele>
        <time>2016-07-14T13:18:56Z</time>
      </trkpt>
      <trkpt lat="46.74269" lon="6.35626">
        <ele>1387</ele>
        <time>2016-07-14T13:19:00Z</time>
      </trkpt>
      <trkpt lat="46.74262" lon="6.35619">
        <ele>1388</ele>
        <time>2016-07-14T13:19:04Z</time>
      </trkpt>
      <trkpt lat="46.74256" lon="6.35611">
        <ele>1389</ele>
        <time>2016-07-14T13:19:08Z</time>
      </trkpt>
      <trkpt lat="46.74248" lon="6.35606">
        <ele>1387</ele>
        <time>2016-07-14T13:19:12Z</time>
      </trkpt>
      <trkpt lat="46.74238" lon="6.35604">
        <ele>1386</ele>
        <time>2016-07-14T13:19:17Z</time>
      </trkpt>
      <trkpt lat="46.74228" lon="6.35605">
        <ele>1385</ele>
        <time>2016-07-14T13:19:22Z</time>
      </trkpt>
      <trkpt lat="46.74218" lon="6.35607">
        <ele>1384</ele>
        <time>2016-07-14T13:19:26Z</time>
      </trkpt>
      <trkpt lat="46.74203" lon="6.35612">
        <ele>1382</ele>
        <time>2016-07-14T13:19:31Z</time>
      </trkpt>
      <trkpt lat="46.74187" lon="6.35616">
        <ele>1381</ele>
        <time>2016-07-14T13:19:35Z</time>
      </trkpt>
      <trkpt lat="46.74173" lon="6.35609">
        <ele>1383</ele>
        <time>2016-07-14T13:19:40Z</time>
      </trkpt>
      <trkpt lat="46.74166" lon="6.35598">
        <ele>1377</ele>
        <time>2016-07-14T13:19:44Z</time>
      </trkpt>
      <trkpt lat="46.74158" lon="6.35588">
        <ele>1382</ele>
        <time>2016-07-14T13:19:48Z</time>
      </trkpt>
      <trkpt lat="46.7415" lon="6.35579">
        <ele>1396</ele>
        <time>2016-07-14T13:19:52Z</time>
      </trkpt>
      <trkpt lat="46.74142" lon="6.35571">
        <ele>1396</ele>
        <time>2016-07-14T13:19:56Z</time>
      </trkpt>
      <trkpt lat="46.74135" lon="6.35564">
        <ele>1395</ele>
        <time>2016-07-14T13:20:00Z</time>
      </trkpt>
      <trkpt lat="46.74128" lon="6.35558">
        <ele>1395</ele>
        <time>2016-07-14T13:20:04Z</time>
      </trkpt>
      <trkpt lat="46.74121" lon="6.35555">
        <ele>1395</ele>
        <time>2016-07-14T13:20:08Z</time>
      </trkpt>
      <trkpt lat="46.74112" lon="6.35551">
        <ele>1395</ele>
        <time>2016-07-14T13:20:12Z</time>
      </trkpt>
      <trkpt lat="46.74097" lon="6.35547">
        <ele>1396</ele>
        <time>2016-07-14T13:20:16Z</time>
      </trkpt>
      <trkpt lat="46.74086" lon="6.35546">
        <ele>1396</ele>
        <time>2016-07-14T13:20:21Z</time>
      </trkpt>
      <trkpt lat="46.74079" lon="6.35543">
        <ele>1394</ele>
        <time>2016-07-14T13:20:32Z</time>
      </trkpt>
      <trkpt lat="46.74068" lon="6.35539">
        <ele>1395</ele>
        <time>2016-07-14T13:20:36Z</time>
      </trkpt>
      <trkpt lat="46.7406" lon="6.35538">
        <ele>1394</ele>
        <time>2016-07-14T13:20:40Z</time>
      </trkpt>
      <trkpt lat="46.7405" lon="6.35537">
        <ele>1394</ele>
        <time>2016-07-14T13:20:44Z</time>
      </trkpt>
      <trkpt lat="46.74042" lon="6.35536">
        <ele>1394</ele>
        <time>2016-07-14T13:20:48Z</time>
      </trkpt>
      <trkpt lat="46.74035" lon="6.35538">
        <ele>1394</ele>
        <time>2016-07-14T13:20:54Z</time>
      </trkpt>
      <trkpt lat="46.74021" lon="6.35539">
        <ele>1393</ele>
        <time>2016-07-14T13:20:59Z</time>
      </trkpt>
      <trkpt lat="46.74012" lon="6.3554">
        <ele>1393</ele>
        <time>2016-07-14T13:21:04Z</time>
      </trkpt>
      <trkpt lat="46.74004" lon="6.35541">
        <ele>1393</ele>
        <time>2016-07-14T13:21:09Z</time>
      </trkpt>
      <trkpt lat="46.73995" lon="6.35542">
        <ele>1382</ele>
        <time>2016-07-14T13:21:14Z</time>
      </trkpt>
      <trkpt lat="46.73986" lon="6.35538">
        <ele>1382</ele>
        <time>2016-07-14T13:21:19Z</time>
      </trkpt>
      <trkpt lat="46.73976" lon="6.35528">
        <ele>1384</ele>
        <time>2016-07-14T13:21:24Z</time>
      </trkpt>
      <trkpt lat="46.73968" lon="6.35519">
        <ele>1385</ele>
        <time>2016-07-14T13:21:28Z</time>
      </trkpt>
      <trkpt lat="46.73955" lon="6.35505">
        <ele>1386</ele>
        <time>2016-07-14T13:21:33Z</time>
      </trkpt>
      <trkpt lat="46.73945" lon="6.35491">
        <ele>1402</ele>
        <time>2016-07-14T13:21:37Z</time>
      </trkpt>
      <trkpt lat="46.73933" lon="6.35479">
        <ele>1402</ele>
        <time>2016-07-14T13:21:41Z</time>
      </trkpt>
      <trkpt lat="46.73926" lon="6.35472">
        <ele>1402</ele>
        <time>2016-07-14T13:21:45Z</time>
      </trkpt>
      <trkpt lat="46.7392" lon="6.35465">
        <ele>1402</ele>
        <time>2016-07-14T13:24:18Z</time>
      </trkpt>
      <trkpt lat="46.73913" lon="6.35455">
        <ele>1407</ele>
        <time>2016-07-14T13:24:22Z</time>
      </trkpt>
      <trkpt lat="46.73905" lon="6.35446">
        <ele>1408</ele>
        <time>2016-07-14T13:24:26Z</time>
      </trkpt>
      <trkpt lat="46.73897" lon="6.35446">
        <ele>1408</ele>
        <time>2016-07-14T13:24:30Z</time>
      </trkpt>
      <trkpt lat="46.73889" lon="6.3545">
        <ele>1408</ele>
        <time>2016-07-14T13:24:43Z</time>
      </trkpt>
      <trkpt lat="46.7388" lon="6.35452">
        <ele>1409</ele>
        <time>2016-07-14T13:24:51Z</time>
      </trkpt>
      <trkpt lat="46.73873" lon="6.35455">
        <ele>1410</ele>
        <time>2016-07-14T13:24:58Z</time>
      </trkpt>
      <trkpt lat="46.73864" lon="6.35455">
        <ele>1410</ele>
        <time>2016-07-14T13:25:08Z</time>
      </trkpt>
      <trkpt lat="46.73857" lon="6.35454">
        <ele>1411</ele>
        <time>2016-07-14T13:25:12Z</time>
      </trkpt>
      <trkpt lat="46.73847" lon="6.35451">
        <ele>1412</ele>
        <time>2016-07-14T13:25:17Z</time>
      </trkpt>
      <trkpt lat="46.73839" lon="6.35448">
        <ele>1412</ele>
        <time>2016-07-14T13:25:21Z</time>
      </trkpt>
      <trkpt lat="46.73829" lon="6.35446">
        <ele>1414</ele>
        <time>2016-07-14T13:25:26Z</time>
      </trkpt>
      <trkpt lat="46.73821" lon="6.35444">
        <ele>1414</ele>
        <time>2016-07-14T13:25:30Z</time>
      </trkpt>
      <trkpt lat="46.73812" lon="6.35444">
        <ele>1413</ele>
        <time>2016-07-14T13:25:35Z</time>
      </trkpt>
      <trkpt lat="46.73803" lon="6.35442">
        <ele>1413</ele>
        <time>2016-07-14T13:25:40Z</time>
      </trkpt>
      <trkpt lat="46.73795" lon="6.35444">
        <ele>1413</ele>
        <time>2016-07-14T13:26:04Z</time>
      </trkpt>
      <trkpt lat="46.73786" lon="6.35444">
        <ele>1412</ele>
        <time>2016-07-14T13:26:09Z</time>
      </trkpt>
      <trkpt lat="46.73775" lon="6.35446">
        <ele>1412</ele>
        <time>2016-07-14T13:26:14Z</time>
      </trkpt>
      <trkpt lat="46.73764" lon="6.35449">
        <ele>1412</ele>
        <time>2016-07-14T13:26:19Z</time>
      </trkpt>
      <trkpt lat="46.73755" lon="6.35451">
        <ele>1411</ele>
        <time>2016-07-14T13:26:23Z</time>
      </trkpt>
      <trkpt lat="46.73745" lon="6.3545">
        <ele>1408</ele>
        <time>2016-07-14T13:26:27Z</time>
      </trkpt>
      <trkpt lat="46.73734" lon="6.35447">
        <ele>1408</ele>
        <time>2016-07-14T13:26:32Z</time>
      </trkpt>
      <trkpt lat="46.73725" lon="6.35442">
        <ele>1409</ele>
        <time>2016-07-14T13:26:36Z</time>
      </trkpt>
      <trkpt lat="46.73716" lon="6.35435">
        <ele>1409</ele>
        <time>2016-07-14T13:26:40Z</time>
      </trkpt>
      <trkpt lat="46.73706" lon="6.35424">
        <ele>1410</ele>
        <time>2016-07-14T13:26:44Z</time>
      </trkpt>
      <trkpt lat="46.73689" lon="6.35402">
        <ele>1418</ele>
        <time>2016-07-14T13:26:48Z</time>
      </trkpt>
      <trkpt lat="46.73663" lon="6.35394">
        <ele>1420</ele>
        <time>2016-07-14T13:26:52Z</time>
      </trkpt>
      <trkpt lat="46.73641" lon="6.35388">
        <ele>1420</ele>
        <time>2016-07-14T13:26:56Z</time>
      </trkpt>
      <trkpt lat="46.73623" lon="6.35379">
        <ele>1420</ele>
        <time>2016-07-14T13:27:00Z</time>
      </trkpt>
      <trkpt lat="46.73607" lon="6.35367">
        <ele>1420</ele>
        <time>2016-07-14T13:27:04Z</time>
      </trkpt>
      <trkpt lat="46.73593" lon="6.35348">
        <ele>1419</ele>
        <time>2016-07-14T13:27:08Z</time>
      </trkpt>
      <trkpt lat="46.7357" lon="6.3534">
        <ele>1420</ele>
        <time>2016-07-14T13:27:13Z</time>
      </trkpt>
      <trkpt lat="46.73563" lon="6.35336">
        <ele>1420</ele>
        <time>2016-07-14T13:27:18Z</time>
      </trkpt>
      <trkpt lat="46.73555" lon="6.35331">
        <ele>1416</ele>
        <time>2016-07-14T13:27:26Z</time>
      </trkpt>
      <trkpt lat="46.73554" lon="6.35343">
        <ele>1420</ele>
        <time>2016-07-14T13:27:57Z</time>
      </trkpt>
      <trkpt lat="46.73552" lon="6.35354">
        <ele>1421</ele>
        <time>2016-07-14T13:28:02Z</time>
      </trkpt>
      <trkpt lat="46.73545" lon="6.35357">
        <ele>1421</ele>
        <time>2016-07-14T13:28:24Z</time>
      </trkpt>
      <trkpt lat="46.73544" lon="6.35369">
        <ele>1421</ele>
        <time>2016-07-14T13:28:30Z</time>
      </trkpt>
      <trkpt lat="46.73538" lon="6.35374">
        <ele>1421</ele>
        <time>2016-07-14T13:28:41Z</time>
      </trkpt>
      <trkpt lat="46.73526" lon="6.35381">
        <ele>1422</ele>
        <time>2016-07-14T13:28:45Z</time>
      </trkpt>
      <trkpt lat="46.73521" lon="6.35392">
        <ele>1422</ele>
        <time>2016-07-14T13:28:50Z</time>
      </trkpt>
      <trkpt lat="46.73518" lon="6.35404">
        <ele>1423</ele>
        <time>2016-07-14T13:28:55Z</time>
      </trkpt>
      <trkpt lat="46.73515" lon="6.35415">
        <ele>1424</ele>
        <time>2016-07-14T13:29:00Z</time>
      </trkpt>
      <trkpt lat="46.73512" lon="6.35427">
        <ele>1420</ele>
        <time>2016-07-14T13:29:06Z</time>
      </trkpt>
      <trkpt lat="46.73508" lon="6.35438">
        <ele>1419</ele>
        <time>2016-07-14T13:29:12Z</time>
      </trkpt>
      <trkpt lat="46.73503" lon="6.35444">
        <ele>1418</ele>
        <time>2016-07-14T13:29:16Z</time>
      </trkpt>
      <trkpt lat="46.73498" lon="6.35455">
        <ele>1427</ele>
        <time>2016-07-14T13:29:33Z</time>
      </trkpt>
      <trkpt lat="46.73491" lon="6.35458">
        <ele>1427</ele>
        <time>2016-07-14T13:29:41Z</time>
      </trkpt>
      <trkpt lat="46.73483" lon="6.35453">
        <ele>1427</ele>
        <time>2016-07-14T13:30:22Z</time>
      </trkpt>
      <trkpt lat="46.73474" lon="6.35451">
        <ele>1428</ele>
        <time>2016-07-14T13:30:32Z</time>
      </trkpt>
      <trkpt lat="46.73467" lon="6.35457">
        <ele>1428</ele>
        <time>2016-07-14T13:30:51Z</time>
      </trkpt>
      <trkpt lat="46.7346" lon="6.35465">
        <ele>1429</ele>
        <time>2016-07-14T13:30:58Z</time>
      </trkpt>
      <trkpt lat="46.73454" lon="6.35473">
        <ele>1429</ele>
        <time>2016-07-14T13:31:08Z</time>
      </trkpt>
      <trkpt lat="46.73449" lon="6.35482">
        <ele>1430</ele>
        <time>2016-07-14T13:31:13Z</time>
      </trkpt>
      <trkpt lat="46.73445" lon="6.35491">
        <ele>1431</ele>
        <time>2016-07-14T13:31:18Z</time>
      </trkpt>
      <trkpt lat="46.7344" lon="6.35499">
        <ele>1432</ele>
        <time>2016-07-14T13:31:23Z</time>
      </trkpt>
      <trkpt lat="46.73434" lon="6.35509">
        <ele>1424</ele>
        <time>2016-07-14T13:31:30Z</time>
      </trkpt>
      <trkpt lat="46.73429" lon="6.35519">
        <ele>1423</ele>
        <time>2016-07-14T13:31:37Z</time>
      </trkpt>
      <trkpt lat="46.73424" lon="6.35529">
        <ele>1421</ele>
        <time>2016-07-14T13:31:43Z</time>
      </trkpt>
      <trkpt lat="46.73418" lon="6.35536">
        <ele>1420</ele>
        <time>2016-07-14T13:31:48Z</time>
      </trkpt>
      <trkpt lat="46.73412" lon="6.35545">
        <ele>1435</ele>
        <time>2016-07-14T13:31:53Z</time>
      </trkpt>
      <trkpt lat="46.73406" lon="6.35553">
        <ele>1435</ele>
        <time>2016-07-14T13:31:58Z</time>
      </trkpt>
      <trkpt lat="46.73402" lon="6.35563">
        <ele>1434</ele>
        <time>2016-07-14T13:32:02Z</time>
      </trkpt>
      <trkpt lat="46.73396" lon="6.35572">
        <ele>1434</ele>
        <time>2016-07-14T13:32:09Z</time>
      </trkpt>
      <trkpt lat="46.73392" lon="6.3558">
        <ele>1434</ele>
        <time>2016-07-14T13:32:14Z</time>
      </trkpt>
      <trkpt lat="46.73386" lon="6.35588">
        <ele>1422</ele>
        <time>2016-07-14T13:32:19Z</time>
      </trkpt>
      <trkpt lat="46.7338" lon="6.35597">
        <ele>1421</ele>
        <time>2016-07-14T13:32:25Z</time>
      </trkpt>
      <trkpt lat="46.73373" lon="6.35604">
        <ele>1421</ele>
        <time>2016-07-14T13:32:31Z</time>
      </trkpt>
      <trkpt lat="46.73368" lon="6.35615">
        <ele>1421</ele>
        <time>2016-07-14T13:32:37Z</time>
      </trkpt>
      <trkpt lat="46.73363" lon="6.35625">
        <ele>1420</ele>
        <time>2016-07-14T13:32:43Z</time>
      </trkpt>
      <trkpt lat="46.7336" lon="6.35633">
        <ele>1420</ele>
        <time>2016-07-14T13:32:48Z</time>
      </trkpt>
      <trkpt lat="46.73355" lon="6.35643">
        <ele>1422</ele>
        <time>2016-07-14T13:32:54Z</time>
      </trkpt>
      <trkpt lat="46.73351" lon="6.35655">
        <ele>1425</ele>
        <time>2016-07-14T13:33:01Z</time>
      </trkpt>
      <trkpt lat="46.73347" lon="6.35664">
        <ele>1430</ele>
        <time>2016-07-14T13:33:06Z</time>
      </trkpt>
      <trkpt lat="46.73341" lon="6.35675">
        <ele>1417</ele>
        <time>2016-07-14T13:33:10Z</time>
      </trkpt>
      <trkpt lat="46.73337" lon="6.35684">
        <ele>1407</ele>
        <time>2016-07-14T13:33:14Z</time>
      </trkpt>
      <trkpt lat="46.73329" lon="6.35688">
        <ele>1427</ele>
        <time>2016-07-14T13:33:18Z</time>
      </trkpt>
      <trkpt lat="46.73323" lon="6.3568">
        <ele>1430</ele>
        <time>2016-07-14T13:37:53Z</time>
      </trkpt>
      <trkpt lat="46.73313" lon="6.35673">
        <ele>1430</ele>
        <time>2016-07-14T13:37:57Z</time>
      </trkpt>
      <trkpt lat="46.73294" lon="6.35673">
        <ele>1426</ele>
        <time>2016-07-14T13:38:02Z</time>
      </trkpt>
      <trkpt lat="46.73273" lon="6.35676">
        <ele>1426</ele>
        <time>2016-07-14T13:38:06Z</time>
      </trkpt>
      <trkpt lat="46.73245" lon="6.35688">
        <ele>1426</ele>
        <time>2016-07-14T13:38:10Z</time>
      </trkpt>
      <trkpt lat="46.73216" lon="6.35695">
        <ele>1423</ele>
        <time>2016-07-14T13:38:14Z</time>
      </trkpt>
      <trkpt lat="46.73185" lon="6.35711">
        <ele>1420</ele>
        <time>2016-07-14T13:38:19Z</time>
      </trkpt>
      <trkpt lat="46.73171" lon="6.35713">
        <ele>1419</ele>
        <time>2016-07-14T13:38:23Z</time>
      </trkpt>
      <trkpt lat="46.73159" lon="6.35712">
        <ele>1421</ele>
        <time>2016-07-14T13:38:27Z</time>
      </trkpt>
      <trkpt lat="46.73144" lon="6.35711">
        <ele>1422</ele>
        <time>2016-07-14T13:38:32Z</time>
      </trkpt>
      <trkpt lat="46.73131" lon="6.35712">
        <ele>1422</ele>
        <time>2016-07-14T13:38:36Z</time>
      </trkpt>
      <trkpt lat="46.73115" lon="6.35719">
        <ele>1422</ele>
        <time>2016-07-14T13:38:41Z</time>
      </trkpt>
      <trkpt lat="46.73107" lon="6.3572">
        <ele>1422</ele>
        <time>2016-07-14T13:38:44Z</time>
      </trkpt>
      <trkpt lat="46.73095" lon="6.35718">
        <ele>1422</ele>
        <time>2016-07-14T13:38:48Z</time>
      </trkpt>
      <trkpt lat="46.73079" lon="6.3572">
        <ele>1424</ele>
        <time>2016-07-14T13:38:53Z</time>
      </trkpt>
      <trkpt lat="46.73071" lon="6.35719">
        <ele>1424</ele>
        <time>2016-07-14T13:38:57Z</time>
      </trkpt>
      <trkpt lat="46.73061" lon="6.35719">
        <ele>1424</ele>
        <time>2016-07-14T13:39:02Z</time>
      </trkpt>
      <trkpt lat="46.73051" lon="6.3572">
        <ele>1424</ele>
        <time>2016-07-14T13:39:07Z</time>
      </trkpt>
      <trkpt lat="46.73044" lon="6.35723">
        <ele>1424</ele>
        <time>2016-07-14T13:39:11Z</time>
      </trkpt>
      <trkpt lat="46.73035" lon="6.35719">
        <ele>1424</ele>
        <time>2016-07-14T13:39:17Z</time>
      </trkpt>
      <trkpt lat="46.73031" lon="6.35716">
        <ele>1425</ele>
        <time>2016-07-14T13:39:19Z</time>
      </trkpt>
      <trkpt lat="46.73022" lon="6.35715">
        <ele>1425</ele>
        <time>2016-07-14T13:39:25Z</time>
      </trkpt>
      <trkpt lat="46.73014" lon="6.35714">
        <ele>1425</ele>
        <time>2016-07-14T13:39:31Z</time>
      </trkpt>
      <trkpt lat="46.73008" lon="6.35705">
        <ele>1426</ele>
        <time>2016-07-14T13:39:39Z</time>
      </trkpt>
      <trkpt lat="46.73" lon="6.35704">
        <ele>1427</ele>
        <time>2016-07-14T13:40:21Z</time>
      </trkpt>
      <trkpt lat="46.72992" lon="6.35704">
        <ele>1431</ele>
        <time>2016-07-14T13:40:26Z</time>
      </trkpt>
      <trkpt lat="46.72985" lon="6.35705">
        <ele>1431</ele>
        <time>2016-07-14T13:40:32Z</time>
      </trkpt>
      <trkpt lat="46.72976" lon="6.35706">
        <ele>1432</ele>
        <time>2016-07-14T13:40:38Z</time>
      </trkpt>
      <trkpt lat="46.72968" lon="6.35707">
        <ele>1432</ele>
        <time>2016-07-14T13:40:46Z</time>
      </trkpt>
      <trkpt lat="46.7296" lon="6.35711">
        <ele>1432</ele>
        <time>2016-07-14T13:40:53Z</time>
      </trkpt>
      <trkpt lat="46.72953" lon="6.35714">
        <ele>1432</ele>
        <time>2016-07-14T13:41:07Z</time>
      </trkpt>
      <trkpt lat="46.72945" lon="6.35713">
        <ele>1433</ele>
        <time>2016-07-14T13:41:14Z</time>
      </trkpt>
      <trkpt lat="46.72937" lon="6.35707">
        <ele>1434</ele>
        <time>2016-07-14T13:41:26Z</time>
      </trkpt>
      <trkpt lat="46.7293" lon="6.35714">
        <ele>1434</ele>
        <time>2016-07-14T13:41:32Z</time>
      </trkpt>
      <trkpt lat="46.72921" lon="6.35716">
        <ele>1434</ele>
        <time>2016-07-14T13:42:13Z</time>
      </trkpt>
      <trkpt lat="46.72907" lon="6.35715">
        <ele>1438</ele>
        <time>2016-07-14T13:42:17Z</time>
      </trkpt>
      <trkpt lat="46.72896" lon="6.35716">
        <ele>1438</ele>
        <time>2016-07-14T13:42:21Z</time>
      </trkpt>
      <trkpt lat="46.72885" lon="6.35716">
        <ele>1438</ele>
        <time>2016-07-14T13:42:25Z</time>
      </trkpt>
      <trkpt lat="46.72877" lon="6.35716">
        <ele>1439</ele>
        <time>2016-07-14T13:42:30Z</time>
      </trkpt>
      <trkpt lat="46.72869" lon="6.35719">
        <ele>1438</ele>
        <time>2016-07-14T13:42:35Z</time>
      </trkpt>
      <trkpt lat="46.72861" lon="6.35719">
        <ele>1438</ele>
        <time>2016-07-14T13:42:40Z</time>
      </trkpt>
      <trkpt lat="46.72853" lon="6.35718">
        <ele>1438</ele>
        <time>2016-07-14T13:42:45Z</time>
      </trkpt>
      <trkpt lat="46.72845" lon="6.35716">
        <ele>1438</ele>
        <time>2016-07-14T13:42:50Z</time>
      </trkpt>
      <trkpt lat="46.72838" lon="6.35712">
        <ele>1439</ele>
        <time>2016-07-14T13:42:55Z</time>
      </trkpt>
      <trkpt lat="46.72828" lon="6.35712">
        <ele>1440</ele>
        <time>2016-07-14T13:42:59Z</time>
      </trkpt>
      <trkpt lat="46.72813" lon="6.3571">
        <ele>1440</ele>
        <time>2016-07-14T13:43:03Z</time>
      </trkpt>
      <trkpt lat="46.72792" lon="6.35707">
        <ele>1441</ele>
        <time>2016-07-14T13:43:07Z</time>
      </trkpt>
      <trkpt lat="46.72783" lon="6.35704">
        <ele>1441</ele>
        <time>2016-07-14T13:43:12Z</time>
      </trkpt>
      <trkpt lat="46.72775" lon="6.35702">
        <ele>1441</ele>
        <time>2016-07-14T13:43:31Z</time>
      </trkpt>
      <trkpt lat="46.72766" lon="6.35703">
        <ele>1441</ele>
        <time>2016-07-14T13:43:48Z</time>
      </trkpt>
      <trkpt lat="46.72758" lon="6.35705">
        <ele>1441</ele>
        <time>2016-07-14T13:48:39Z</time>
      </trkpt>
      <trkpt lat="46.7275" lon="6.35705">
        <ele>1442</ele>
        <time>2016-07-14T13:49:34Z</time>
      </trkpt>
      <trkpt lat="46.72742" lon="6.35707">
        <ele>1442</ele>
        <time>2016-07-14T13:49:39Z</time>
      </trkpt>
      <trkpt lat="46.72728" lon="6.35712">
        <ele>1441</ele>
        <time>2016-07-14T13:49:42Z</time>
      </trkpt>
      <trkpt lat="46.72709" lon="6.35714">
        <ele>1441</ele>
        <time>2016-07-14T13:49:47Z</time>
      </trkpt>
      <trkpt lat="46.72686" lon="6.35716">
        <ele>1441</ele>
        <time>2016-07-14T13:49:52Z</time>
      </trkpt>
      <trkpt lat="46.7267" lon="6.3572">
        <ele>1440</ele>
        <time>2016-07-14T13:49:57Z</time>
      </trkpt>
      <trkpt lat="46.72658" lon="6.35727">
        <ele>1438</ele>
        <time>2016-07-14T13:50:01Z</time>
      </trkpt>
      <trkpt lat="46.72648" lon="6.35734">
        <ele>1438</ele>
        <time>2016-07-14T13:50:06Z</time>
      </trkpt>
      <trkpt lat="46.72637" lon="6.3574">
        <ele>1438</ele>
        <time>2016-07-14T13:50:10Z</time>
      </trkpt>
      <trkpt lat="46.72601" lon="6.35755">
        <ele>1425</ele>
        <time>2016-07-14T13:50:15Z</time>
      </trkpt>
      <trkpt lat="46.72565" lon="6.35781">
        <ele>1420</ele>
        <time>2016-07-14T13:50:19Z</time>
      </trkpt>
      <trkpt lat="46.72546" lon="6.3579">
        <ele>1417</ele>
        <time>2016-07-14T13:50:23Z</time>
      </trkpt>
      <trkpt lat="46.7253" lon="6.35796">
        <ele>1417</ele>
        <time>2016-07-14T13:50:28Z</time>
      </trkpt>
      <trkpt lat="46.72519" lon="6.35799">
        <ele>1416</ele>
        <time>2016-07-14T13:50:32Z</time>
      </trkpt>
      <trkpt lat="46.72513" lon="6.35804">
        <ele>1416</ele>
        <time>2016-07-14T13:50:57Z</time>
      </trkpt>
      <trkpt lat="46.72498" lon="6.35814">
        <ele>1413</ele>
        <time>2016-07-14T13:51:01Z</time>
      </trkpt>
      <trkpt lat="46.7248" lon="6.35831">
        <ele>1413</ele>
        <time>2016-07-14T13:51:06Z</time>
      </trkpt>
      <trkpt lat="46.72474" lon="6.35836">
        <ele>1401</ele>
        <time>2016-07-14T13:51:19Z</time>
      </trkpt>
      <trkpt lat="46.72468" lon="6.3584">
        <ele>1400</ele>
        <time>2016-07-14T13:51:25Z</time>
      </trkpt>
      <trkpt lat="46.72444" lon="6.35855">
        <ele>1399</ele>
        <time>2016-07-14T13:51:30Z</time>
      </trkpt>
      <trkpt lat="46.72427" lon="6.35866">
        <ele>1398</ele>
        <time>2016-07-14T13:51:34Z</time>
      </trkpt>
      <trkpt lat="46.72412" lon="6.35872">
        <ele>1401</ele>
        <time>2016-07-14T13:51:37Z</time>
      </trkpt>
      <trkpt lat="46.724" lon="6.35882">
        <ele>1399</ele>
        <time>2016-07-14T13:51:42Z</time>
      </trkpt>
      <trkpt lat="46.72392" lon="6.35881">
        <ele>1400</ele>
        <time>2016-07-14T13:52:17Z</time>
      </trkpt>
      <trkpt lat="46.72384" lon="6.35877">
        <ele>1400</ele>
        <time>2016-07-14T13:52:21Z</time>
      </trkpt>
      <trkpt lat="46.72377" lon="6.35876">
        <ele>1400</ele>
        <time>2016-07-14T13:52:25Z</time>
      </trkpt>
      <trkpt lat="46.72363" lon="6.35872">
        <ele>1400</ele>
        <time>2016-07-14T13:52:30Z</time>
      </trkpt>
      <trkpt lat="46.7235" lon="6.35866">
        <ele>1401</ele>
        <time>2016-07-14T13:52:34Z</time>
      </trkpt>
      <trkpt lat="46.72342" lon="6.35859">
        <ele>1401</ele>
        <time>2016-07-14T13:52:38Z</time>
      </trkpt>
      <trkpt lat="46.72336" lon="6.35853">
        <ele>1402</ele>
        <time>2016-07-14T13:52:43Z</time>
      </trkpt>
      <trkpt lat="46.72332" lon="6.35846">
        <ele>1401</ele>
        <time>2016-07-14T13:52:47Z</time>
      </trkpt>
      <trkpt lat="46.72328" lon="6.35835">
        <ele>1402</ele>
        <time>2016-07-14T13:52:53Z</time>
      </trkpt>
      <trkpt lat="46.72319" lon="6.35832">
        <ele>1402</ele>
        <time>2016-07-14T13:52:58Z</time>
      </trkpt>
      <trkpt lat="46.72309" lon="6.35839">
        <ele>1399</ele>
        <time>2016-07-14T13:53:03Z</time>
      </trkpt>
      <trkpt lat="46.72295" lon="6.3585">
        <ele>1398</ele>
        <time>2016-07-14T13:53:07Z</time>
      </trkpt>
      <trkpt lat="46.72283" lon="6.35857">
        <ele>1398</ele>
        <time>2016-07-14T13:53:12Z</time>
      </trkpt>
      <trkpt lat="46.72277" lon="6.35857">
        <ele>1397</ele>
        <time>2016-07-14T13:53:15Z</time>
      </trkpt>
      <trkpt lat="46.72269" lon="6.35855">
        <ele>1397</ele>
        <time>2016-07-14T13:53:38Z</time>
      </trkpt>
      <trkpt lat="46.72264" lon="6.35846">
        <ele>1397</ele>
        <time>2016-07-14T13:53:44Z</time>
      </trkpt>
      <trkpt lat="46.72257" lon="6.35839">
        <ele>1396</ele>
        <time>2016-07-14T13:53:56Z</time>
      </trkpt>
      <trkpt lat="46.7225" lon="6.35832">
        <ele>1396</ele>
        <time>2016-07-14T13:54:09Z</time>
      </trkpt>
      <trkpt lat="46.72245" lon="6.35826">
        <ele>1395</ele>
        <time>2016-07-14T13:54:21Z</time>
      </trkpt>
      <trkpt lat="46.72239" lon="6.35817">
        <ele>1393</ele>
        <time>2016-07-14T13:54:35Z</time>
      </trkpt>
      <trkpt lat="46.72231" lon="6.35812">
        <ele>1393</ele>
        <time>2016-07-14T13:54:43Z</time>
      </trkpt>
      <trkpt lat="46.72218" lon="6.35813">
        <ele>1392</ele>
        <time>2016-07-14T13:54:48Z</time>
      </trkpt>
      <trkpt lat="46.72206" lon="6.35812">
        <ele>1390</ele>
        <time>2016-07-14T13:54:53Z</time>
      </trkpt>
      <trkpt lat="46.72194" lon="6.35813">
        <ele>1389</ele>
        <time>2016-07-14T13:54:58Z</time>
      </trkpt>
      <trkpt lat="46.72185" lon="6.35819">
        <ele>1388</ele>
        <time>2016-07-14T13:55:02Z</time>
      </trkpt>
      <trkpt lat="46.72178" lon="6.35815">
        <ele>1387</ele>
        <time>2016-07-14T13:55:09Z</time>
      </trkpt>
      <trkpt lat="46.72174" lon="6.35803">
        <ele>1388</ele>
        <time>2016-07-14T13:55:13Z</time>
      </trkpt>
      <trkpt lat="46.7217" lon="6.35793">
        <ele>1388</ele>
        <time>2016-07-14T13:55:17Z</time>
      </trkpt>
      <trkpt lat="46.72166" lon="6.35784">
        <ele>1381</ele>
        <time>2016-07-14T13:55:21Z</time>
      </trkpt>
      <trkpt lat="46.72161" lon="6.35774">
        <ele>1382</ele>
        <time>2016-07-14T13:55:26Z</time>
      </trkpt>
      <trkpt lat="46.72157" lon="6.3576">
        <ele>1383</ele>
        <time>2016-07-14T13:55:31Z</time>
      </trkpt>
      <trkpt lat="46.72154" lon="6.35747">
        <ele>1383</ele>
        <time>2016-07-14T13:55:35Z</time>
      </trkpt>
      <trkpt lat="46.7215" lon="6.35737">
        <ele>1382</ele>
        <time>2016-07-14T13:55:40Z</time>
      </trkpt>
      <trkpt lat="46.72148" lon="6.35727">
        <ele>1381</ele>
        <time>2016-07-14T13:55:44Z</time>
      </trkpt>
      <trkpt lat="46.72143" lon="6.35709">
        <ele>1380</ele>
        <time>2016-07-14T13:55:49Z</time>
      </trkpt>
      <trkpt lat="46.72139" lon="6.35696">
        <ele>1380</ele>
        <time>2016-07-14T13:55:53Z</time>
      </trkpt>
      <trkpt lat="46.72135" lon="6.35676">
        <ele>1380</ele>
        <time>2016-07-14T13:55:58Z</time>
      </trkpt>
      <trkpt lat="46.72128" lon="6.3566">
        <ele>1379</ele>
        <time>2016-07-14T13:56:02Z</time>
      </trkpt>
      <trkpt lat="46.7213" lon="6.35648">
        <ele>1379</ele>
        <time>2016-07-14T13:56:08Z</time>
      </trkpt>
      <trkpt lat="46.72132" lon="6.35636">
        <ele>1379</ele>
        <time>2016-07-14T13:56:16Z</time>
      </trkpt>
      <trkpt lat="46.72127" lon="6.35626">
        <ele>1378</ele>
        <time>2016-07-14T13:56:22Z</time>
      </trkpt>
      <trkpt lat="46.72122" lon="6.35617">
        <ele>1378</ele>
        <time>2016-07-14T13:56:27Z</time>
      </trkpt>
      <trkpt lat="46.7212" lon="6.35606">
        <ele>1378</ele>
        <time>2016-07-14T13:56:32Z</time>
      </trkpt>
      <trkpt lat="46.72117" lon="6.35595">
        <ele>1377</ele>
        <time>2016-07-14T13:56:37Z</time>
      </trkpt>
      <trkpt lat="46.72109" lon="6.35587">
        <ele>1376</ele>
        <time>2016-07-14T13:56:42Z</time>
      </trkpt>
      <trkpt lat="46.72104" lon="6.35577">
        <ele>1375</ele>
        <time>2016-07-14T13:56:46Z</time>
      </trkpt>
      <trkpt lat="46.72097" lon="6.35557">
        <ele>1375</ele>
        <time>2016-07-14T13:56:51Z</time>
      </trkpt>
      <trkpt lat="46.7209" lon="6.35541">
        <ele>1375</ele>
        <time>2016-07-14T13:56:55Z</time>
      </trkpt>
      <trkpt lat="46.72081" lon="6.35523">
        <ele>1369</ele>
        <time>2016-07-14T13:56:59Z</time>
      </trkpt>
      <trkpt lat="46.72086" lon="6.35509">
        <ele>1372</ele>
        <time>2016-07-14T13:57:02Z</time>
      </trkpt>
      <trkpt lat="46.72092" lon="6.35501">
        <ele>1372</ele>
        <time>2016-07-14T13:57:07Z</time>
      </trkpt>
      <trkpt lat="46.72095" lon="6.3549">
        <ele>1371</ele>
        <time>2016-07-14T13:57:10Z</time>
      </trkpt>
      <trkpt lat="46.72101" lon="6.3548">
        <ele>1372</ele>
        <time>2016-07-14T13:57:15Z</time>
      </trkpt>
      <trkpt lat="46.72105" lon="6.35468">
        <ele>1372</ele>
        <time>2016-07-14T13:57:19Z</time>
      </trkpt>
      <trkpt lat="46.72112" lon="6.35453">
        <ele>1372</ele>
        <time>2016-07-14T13:57:23Z</time>
      </trkpt>
      <trkpt lat="46.72125" lon="6.35441">
        <ele>1372</ele>
        <time>2016-07-14T13:57:32Z</time>
      </trkpt>
      <trkpt lat="46.72134" lon="6.35436">
        <ele>1372</ele>
        <time>2016-07-14T13:57:37Z</time>
      </trkpt>
      <trkpt lat="46.7214" lon="6.35426">
        <ele>1372</ele>
        <time>2016-07-14T13:57:44Z</time>
      </trkpt>
      <trkpt lat="46.72148" lon="6.35417">
        <ele>1372</ele>
        <time>2016-07-14T13:57:49Z</time>
      </trkpt>
      <trkpt lat="46.72154" lon="6.3541">
        <ele>1370</ele>
        <time>2016-07-14T13:57:53Z</time>
      </trkpt>
      <trkpt lat="46.72163" lon="6.35406">
        <ele>1370</ele>
        <time>2016-07-14T13:57:59Z</time>
      </trkpt>
      <trkpt lat="46.72168" lon="6.35396">
        <ele>1372</ele>
        <time>2016-07-14T13:58:05Z</time>
      </trkpt>
      <trkpt lat="46.72171" lon="6.35385">
        <ele>1372</ele>
        <time>2016-07-14T13:58:24Z</time>
      </trkpt>
      <trkpt lat="46.72177" lon="6.35379">
        <ele>1372</ele>
        <time>2016-07-14T13:58:36Z</time>
      </trkpt>
      <trkpt lat="46.72181" lon="6.35368">
        <ele>1372</ele>
        <time>2016-07-14T13:59:01Z</time>
      </trkpt>
      <trkpt lat="46.72181" lon="6.35356">
        <ele>1371</ele>
        <time>2016-07-14T13:59:12Z</time>
      </trkpt>
      <trkpt lat="46.72179" lon="6.35343">
        <ele>1370</ele>
        <time>2016-07-14T13:59:22Z</time>
      </trkpt>
      <trkpt lat="46.72174" lon="6.35334">
        <ele>1369</ele>
        <time>2016-07-14T13:59:36Z</time>
      </trkpt>
      <trkpt lat="46.72166" lon="6.3533">
        <ele>1367</ele>
        <time>2016-07-14T13:59:42Z</time>
      </trkpt>
      <trkpt lat="46.72164" lon="6.3532">
        <ele>1365</ele>
        <time>2016-07-14T13:59:56Z</time>
      </trkpt>
      <trkpt lat="46.72163" lon="6.35307">
        <ele>1364</ele>
        <time>2016-07-14T14:00:28Z</time>
      </trkpt>
      <trkpt lat="46.7216" lon="6.35295">
        <ele>1363</ele>
        <time>2016-07-14T14:00:40Z</time>
      </trkpt>
      <trkpt lat="46.72151" lon="6.35293">
        <ele>1363</ele>
        <time>2016-07-14T14:01:00Z</time>
      </trkpt>
      <trkpt lat="46.72139" lon="6.35291">
        <ele>1362</ele>
        <time>2016-07-14T14:01:05Z</time>
      </trkpt>
      <trkpt lat="46.72132" lon="6.35282">
        <ele>1362</ele>
        <time>2016-07-14T14:01:09Z</time>
      </trkpt>
      <trkpt lat="46.72123" lon="6.35278">
        <ele>1361</ele>
        <time>2016-07-14T14:01:14Z</time>
      </trkpt>
      <trkpt lat="46.72112" lon="6.35276">
        <ele>1360</ele>
        <time>2016-07-14T14:01:18Z</time>
      </trkpt>
      <trkpt lat="46.72115" lon="6.35262">
        <ele>1360</ele>
        <time>2016-07-14T14:01:22Z</time>
      </trkpt>
      <trkpt lat="46.7212" lon="6.3525">
        <ele>1357</ele>
        <time>2016-07-14T14:01:26Z</time>
      </trkpt>
      <trkpt lat="46.72123" lon="6.35238">
        <ele>1357</ele>
        <time>2016-07-14T14:01:30Z</time>
      </trkpt>
      <trkpt lat="46.72128" lon="6.35225">
        <ele>1357</ele>
        <time>2016-07-14T14:01:35Z</time>
      </trkpt>
      <trkpt lat="46.72132" lon="6.35209">
        <ele>1357</ele>
        <time>2016-07-14T14:01:39Z</time>
      </trkpt>
      <trkpt lat="46.72136" lon="6.35173">
        <ele>1356</ele>
        <time>2016-07-14T14:01:44Z</time>
      </trkpt>
      <trkpt lat="46.72127" lon="6.35143">
        <ele>1353</ele>
        <time>2016-07-14T14:01:48Z</time>
      </trkpt>
      <trkpt lat="46.72114" lon="6.35105">
        <ele>1352</ele>
        <time>2016-07-14T14:01:53Z</time>
      </trkpt>
      <trkpt lat="46.72109" lon="6.35071">
        <ele>1350</ele>
        <time>2016-07-14T14:01:57Z</time>
      </trkpt>
      <trkpt lat="46.72105" lon="6.35035">
        <ele>1350</ele>
        <time>2016-07-14T14:02:02Z</time>
      </trkpt>
      <trkpt lat="46.72112" lon="6.35024">
        <ele>1350</ele>
        <time>2016-07-14T14:02:06Z</time>
      </trkpt>
      <trkpt lat="46.72121" lon="6.35019">
        <ele>1350</ele>
        <time>2016-07-14T14:02:10Z</time>
      </trkpt>
      <trkpt lat="46.7213" lon="6.35012">
        <ele>1350</ele>
        <time>2016-07-14T14:02:15Z</time>
      </trkpt>
      <trkpt lat="46.72137" lon="6.35007">
        <ele>1350</ele>
        <time>2016-07-14T14:02:19Z</time>
      </trkpt>
      <trkpt lat="46.72145" lon="6.35002">
        <ele>1350</ele>
        <time>2016-07-14T14:02:23Z</time>
      </trkpt>
      <trkpt lat="46.72151" lon="6.34996">
        <ele>1348</ele>
        <time>2016-07-14T14:02:28Z</time>
      </trkpt>
      <trkpt lat="46.72166" lon="6.34983">
        <ele>1348</ele>
        <time>2016-07-14T14:02:33Z</time>
      </trkpt>
      <trkpt lat="46.72181" lon="6.34953">
        <ele>1345</ele>
        <time>2016-07-14T14:02:37Z</time>
      </trkpt>
      <trkpt lat="46.72198" lon="6.34918">
        <ele>1343</ele>
        <time>2016-07-14T14:02:42Z</time>
      </trkpt>
      <trkpt lat="46.72203" lon="6.34891">
        <ele>1337</ele>
        <time>2016-07-14T14:02:46Z</time>
      </trkpt>
      <trkpt lat="46.72208" lon="6.34881">
        <ele>1336</ele>
        <time>2016-07-14T14:02:50Z</time>
      </trkpt>
      <trkpt lat="46.72214" lon="6.3488">
        <ele>1336</ele>
        <time>2016-07-14T14:02:54Z</time>
      </trkpt>
      <trkpt lat="46.72224" lon="6.34878">
        <ele>1336</ele>
        <time>2016-07-14T14:02:58Z</time>
      </trkpt>
      <trkpt lat="46.72231" lon="6.34872">
        <ele>1335</ele>
        <time>2016-07-14T14:03:04Z</time>
      </trkpt>
      <trkpt lat="46.72239" lon="6.34868">
        <ele>1335</ele>
        <time>2016-07-14T14:03:09Z</time>
      </trkpt>
      <trkpt lat="46.72248" lon="6.34866">
        <ele>1335</ele>
        <time>2016-07-14T14:03:14Z</time>
      </trkpt>
      <trkpt lat="46.72254" lon="6.34872">
        <ele>1337</ele>
        <time>2016-07-14T14:04:18Z</time>
      </trkpt>
      <trkpt lat="46.72263" lon="6.34874">
        <ele>1338</ele>
        <time>2016-07-14T14:04:28Z</time>
      </trkpt>
      <trkpt lat="46.72271" lon="6.34875">
        <ele>1338</ele>
        <time>2016-07-14T14:04:37Z</time>
      </trkpt>
      <trkpt lat="46.72276" lon="6.3487">
        <ele>1338</ele>
        <time>2016-07-14T14:04:44Z</time>
      </trkpt>
      <trkpt lat="46.72284" lon="6.34865">
        <ele>1338</ele>
        <time>2016-07-14T14:04:49Z</time>
      </trkpt>
      <trkpt lat="46.7229" lon="6.34862">
        <ele>1339</ele>
        <time>2016-07-14T14:04:53Z</time>
      </trkpt>
      <trkpt lat="46.72297" lon="6.34856">
        <ele>1339</ele>
        <time>2016-07-14T14:04:58Z</time>
      </trkpt>
      <trkpt lat="46.72303" lon="6.34849">
        <ele>1339</ele>
        <time>2016-07-14T14:05:03Z</time>
      </trkpt>
      <trkpt lat="46.72309" lon="6.34844">
        <ele>1340</ele>
        <time>2016-07-14T14:05:07Z</time>
      </trkpt>
      <trkpt lat="46.72315" lon="6.34835">
        <ele>1340</ele>
        <time>2016-07-14T14:05:13Z</time>
      </trkpt>
      <trkpt lat="46.72317" lon="6.34822">
        <ele>1337</ele>
        <time>2016-07-14T14:05:19Z</time>
      </trkpt>
      <trkpt lat="46.7232" lon="6.3481">
        <ele>1336</ele>
        <time>2016-07-14T14:05:41Z</time>
      </trkpt>
      <trkpt lat="46.72322" lon="6.34798">
        <ele>1335</ele>
        <time>2016-07-14T14:05:48Z</time>
      </trkpt>
      <trkpt lat="46.7233" lon="6.34792">
        <ele>1335</ele>
        <time>2016-07-14T14:06:24Z</time>
      </trkpt>
      <trkpt lat="46.72335" lon="6.34784">
        <ele>1343</ele>
        <time>2016-07-14T14:06:54Z</time>
      </trkpt>
      <trkpt lat="46.72338" lon="6.34772">
        <ele>1341</ele>
        <time>2016-07-14T14:06:58Z</time>
      </trkpt>
      <trkpt lat="46.72343" lon="6.34754">
        <ele>1339</ele>
        <time>2016-07-14T14:07:03Z</time>
      </trkpt>
      <trkpt lat="46.72351" lon="6.3474">
        <ele>1336</ele>
        <time>2016-07-14T14:07:08Z</time>
      </trkpt>
      <trkpt lat="46.72358" lon="6.34725">
        <ele>1336</ele>
        <time>2016-07-14T14:07:13Z</time>
      </trkpt>
      <trkpt lat="46.72365" lon="6.34714">
        <ele>1336</ele>
        <time>2016-07-14T14:07:17Z</time>
      </trkpt>
      <trkpt lat="46.72375" lon="6.34698">
        <ele>1335</ele>
        <time>2016-07-14T14:07:21Z</time>
      </trkpt>
      <trkpt lat="46.72383" lon="6.34683">
        <ele>1335</ele>
        <time>2016-07-14T14:07:25Z</time>
      </trkpt>
      <trkpt lat="46.72392" lon="6.34666">
        <ele>1330</ele>
        <time>2016-07-14T14:07:30Z</time>
      </trkpt>
      <trkpt lat="46.72401" lon="6.34654">
        <ele>1330</ele>
        <time>2016-07-14T14:07:34Z</time>
      </trkpt>
      <trkpt lat="46.72411" lon="6.34639">
        <ele>1329</ele>
        <time>2016-07-14T14:07:39Z</time>
      </trkpt>
      <trkpt lat="46.72422" lon="6.34626">
        <ele>1335</ele>
        <time>2016-07-14T14:07:44Z</time>
      </trkpt>
      <trkpt lat="46.72431" lon="6.34616">
        <ele>1335</ele>
        <time>2016-07-14T14:07:48Z</time>
      </trkpt>
      <trkpt lat="46.72445" lon="6.34599">
        <ele>1335</ele>
        <time>2016-07-14T14:07:53Z</time>
      </trkpt>
      <trkpt lat="46.72454" lon="6.34583">
        <ele>1335</ele>
        <time>2016-07-14T14:07:58Z</time>
      </trkpt>
      <trkpt lat="46.72466" lon="6.34574">
        <ele>1332</ele>
        <time>2016-07-14T14:08:03Z</time>
      </trkpt>
      <trkpt lat="46.72475" lon="6.34565">
        <ele>1332</ele>
        <time>2016-07-14T14:08:07Z</time>
      </trkpt>
      <trkpt lat="46.72483" lon="6.34549">
        <ele>1332</ele>
        <time>2016-07-14T14:08:12Z</time>
      </trkpt>
      <trkpt lat="46.72488" lon="6.34526">
        <ele>1330</ele>
        <time>2016-07-14T14:08:17Z</time>
      </trkpt>
      <trkpt lat="46.72495" lon="6.34512">
        <ele>1330</ele>
        <time>2016-07-14T14:08:21Z</time>
      </trkpt>
      <trkpt lat="46.725" lon="6.34506">
        <ele>1330</ele>
        <time>2016-07-14T14:08:24Z</time>
      </trkpt>
      <trkpt lat="46.72512" lon="6.345">
        <ele>1331</ele>
        <time>2016-07-14T14:08:29Z</time>
      </trkpt>
      <trkpt lat="46.72525" lon="6.34497">
        <ele>1332</ele>
        <time>2016-07-14T14:08:34Z</time>
      </trkpt>
      <trkpt lat="46.72534" lon="6.34499">
        <ele>1332</ele>
        <time>2016-07-14T14:08:38Z</time>
      </trkpt>
      <trkpt lat="46.72543" lon="6.34501">
        <ele>1337</ele>
        <time>2016-07-14T14:08:42Z</time>
      </trkpt>
      <trkpt lat="46.72555" lon="6.34504">
        <ele>1337</ele>
        <time>2016-07-14T14:08:47Z</time>
      </trkpt>
      <trkpt lat="46.72566" lon="6.34506">
        <ele>1338</ele>
        <time>2016-07-14T14:08:51Z</time>
      </trkpt>
      <trkpt lat="46.72579" lon="6.34508">
        <ele>1338</ele>
        <time>2016-07-14T14:08:56Z</time>
      </trkpt>
      <trkpt lat="46.72591" lon="6.34511">
        <ele>1339</ele>
        <time>2016-07-14T14:09:00Z</time>
      </trkpt>
      <trkpt lat="46.72605" lon="6.34513">
        <ele>1340</ele>
        <time>2016-07-14T14:09:05Z</time>
      </trkpt>
      <trkpt lat="46.72615" lon="6.34514">
        <ele>1340</ele>
        <time>2016-07-14T14:09:09Z</time>
      </trkpt>
      <trkpt lat="46.72625" lon="6.34515">
        <ele>1340</ele>
        <time>2016-07-14T14:09:13Z</time>
      </trkpt>
      <trkpt lat="46.72628" lon="6.34515">
        <ele>1340</ele>
        <time>2016-07-14T14:09:14Z</time>
      </trkpt>
      <trkpt lat="46.72665" lon="6.34518">
        <ele>1338</ele>
        <time>2016-07-14T14:09:24Z</time>
      </trkpt>
      <trkpt lat="46.7269" lon="6.34517">
        <ele>1340</ele>
        <time>2016-07-14T14:09:29Z</time>
      </trkpt>
      <trkpt lat="46.72703" lon="6.34508">
        <ele>1340</ele>
        <time>2016-07-14T14:09:33Z</time>
      </trkpt>
      <trkpt lat="46.72711" lon="6.34502">
        <ele>1340</ele>
        <time>2016-07-14T14:10:40Z</time>
      </trkpt>
      <trkpt lat="46.72717" lon="6.34495">
        <ele>1336</ele>
        <time>2016-07-14T14:10:44Z</time>
      </trkpt>
      <trkpt lat="46.72723" lon="6.34486">
        <ele>1336</ele>
        <time>2016-07-14T14:10:48Z</time>
      </trkpt>
      <trkpt lat="46.72733" lon="6.34468">
        <ele>1336</ele>
        <time>2016-07-14T14:10:53Z</time>
      </trkpt>
      <trkpt lat="46.72738" lon="6.34459">
        <ele>1336</ele>
        <time>2016-07-14T14:10:56Z</time>
      </trkpt>
      <trkpt lat="46.72745" lon="6.34451">
        <ele>1336</ele>
        <time>2016-07-14T14:11:04Z</time>
      </trkpt>
      <trkpt lat="46.72753" lon="6.34448">
        <ele>1339</ele>
        <time>2016-07-14T14:11:13Z</time>
      </trkpt>
      <trkpt lat="46.72758" lon="6.34438">
        <ele>1338</ele>
        <time>2016-07-14T14:11:18Z</time>
      </trkpt>
      <trkpt lat="46.72765" lon="6.34426">
        <ele>1338</ele>
        <time>2016-07-14T14:11:23Z</time>
      </trkpt>
      <trkpt lat="46.72773" lon="6.34415">
        <ele>1335</ele>
        <time>2016-07-14T14:11:27Z</time>
      </trkpt>
      <trkpt lat="46.72788" lon="6.34397">
        <ele>1335</ele>
        <time>2016-07-14T14:11:32Z</time>
      </trkpt>
      <trkpt lat="46.72798" lon="6.3438">
        <ele>1335</ele>
        <time>2016-07-14T14:11:36Z</time>
      </trkpt>
      <trkpt lat="46.7281" lon="6.3436">
        <ele>1334</ele>
        <time>2016-07-14T14:11:41Z</time>
      </trkpt>
      <trkpt lat="46.72829" lon="6.34338">
        <ele>1332</ele>
        <time>2016-07-14T14:11:46Z</time>
      </trkpt>
      <trkpt lat="46.72839" lon="6.34311">
        <ele>1329</ele>
        <time>2016-07-14T14:11:50Z</time>
      </trkpt>
      <trkpt lat="46.72849" lon="6.34289">
        <ele>1327</ele>
        <time>2016-07-14T14:11:55Z</time>
      </trkpt>
      <trkpt lat="46.72863" lon="6.34265">
        <ele>1326</ele>
        <time>2016-07-14T14:11:59Z</time>
      </trkpt>
      <trkpt lat="46.72885" lon="6.34238">
        <ele>1320</ele>
        <time>2016-07-14T14:12:04Z</time>
      </trkpt>
      <trkpt lat="46.72916" lon="6.3423">
        <ele>1320</ele>
        <time>2016-07-14T14:12:09Z</time>
      </trkpt>
      <trkpt lat="46.7294" lon="6.34219">
        <ele>1319</ele>
        <time>2016-07-14T14:12:13Z</time>
      </trkpt>
      <trkpt lat="46.72962" lon="6.34207">
        <ele>1318</ele>
        <time>2016-07-14T14:12:17Z</time>
      </trkpt>
      <trkpt lat="46.72985" lon="6.34195">
        <ele>1318</ele>
        <time>2016-07-14T14:12:22Z</time>
      </trkpt>
      <trkpt lat="46.72997" lon="6.34189">
        <ele>1317</ele>
        <time>2016-07-14T14:12:26Z</time>
      </trkpt>
      <trkpt lat="46.73003" lon="6.34182">
        <ele>1316</ele>
        <time>2016-07-14T14:12:32Z</time>
      </trkpt>
      <trkpt lat="46.7301" lon="6.34175">
        <ele>1315</ele>
        <time>2016-07-14T14:12:52Z</time>
      </trkpt>
      <trkpt lat="46.73028" lon="6.34174">
        <ele>1316</ele>
        <time>2016-07-14T14:12:57Z</time>
      </trkpt>
      <trkpt lat="46.73052" lon="6.34167">
        <ele>1315</ele>
        <time>2016-07-14T14:13:02Z</time>
      </trkpt>
      <trkpt lat="46.73062" lon="6.34163">
        <ele>1312</ele>
        <time>2016-07-14T14:13:05Z</time>
      </trkpt>
      <trkpt lat="46.73079" lon="6.34157">
        <ele>1312</ele>
        <time>2016-07-14T14:13:09Z</time>
      </trkpt>
      <trkpt lat="46.73077" lon="6.34144">
        <ele>1312</ele>
        <time>2016-07-14T14:14:34Z</time>
      </trkpt>
      <trkpt lat="46.73076" lon="6.34133">
        <ele>1312</ele>
        <time>2016-07-14T14:14:45Z</time>
      </trkpt>
      <trkpt lat="46.73077" lon="6.3412">
        <ele>1313</ele>
        <time>2016-07-14T14:15:19Z</time>
      </trkpt>
      <trkpt lat="46.73079" lon="6.34107">
        <ele>1313</ele>
        <time>2016-07-14T14:15:24Z</time>
      </trkpt>
      <trkpt lat="46.73076" lon="6.34096">
        <ele>1313</ele>
        <time>2016-07-14T14:15:34Z</time>
      </trkpt>
      <trkpt lat="46.73074" lon="6.34086">
        <ele>1313</ele>
        <time>2016-07-14T14:15:42Z</time>
      </trkpt>
      <trkpt lat="46.73072" lon="6.34074">
        <ele>1312</ele>
        <time>2016-07-14T14:15:48Z</time>
      </trkpt>
      <trkpt lat="46.73071" lon="6.34058">
        <ele>1311</ele>
        <time>2016-07-14T14:15:52Z</time>
      </trkpt>
      <trkpt lat="46.73067" lon="6.3404">
        <ele>1310</ele>
        <time>2016-07-14T14:15:56Z</time>
      </trkpt>
      <trkpt lat="46.73057" lon="6.34023">
        <ele>1309</ele>
        <time>2016-07-14T14:16:00Z</time>
      </trkpt>
      <trkpt lat="46.73052" lon="6.34015">
        <ele>1309</ele>
        <time>2016-07-14T14:16:03Z</time>
      </trkpt>
      <trkpt lat="46.73045" lon="6.34">
        <ele>1304</ele>
        <time>2016-07-14T14:16:08Z</time>
      </trkpt>
      <trkpt lat="46.73039" lon="6.33984">
        <ele>1303</ele>
        <time>2016-07-14T14:16:13Z</time>
      </trkpt>
      <trkpt lat="46.73035" lon="6.33977">
        <ele>1302</ele>
        <time>2016-07-14T14:17:35Z</time>
      </trkpt>
      <trkpt lat="46.73027" lon="6.33947">
        <ele>1300</ele>
        <time>2016-07-14T14:17:40Z</time>
      </trkpt>
      <trkpt lat="46.73014" lon="6.33924">
        <ele>1298</ele>
        <time>2016-07-14T14:17:44Z</time>
      </trkpt>
      <trkpt lat="46.73005" lon="6.3387">
        <ele>1290</ele>
        <time>2016-07-14T14:17:49Z</time>
      </trkpt>
      <trkpt lat="46.73003" lon="6.33839">
        <ele>1287</ele>
        <time>2016-07-14T14:17:53Z</time>
      </trkpt>
      <trkpt lat="46.72997" lon="6.33816">
        <ele>1284</ele>
        <time>2016-07-14T14:17:56Z</time>
      </trkpt>
      <trkpt lat="46.72988" lon="6.33786">
        <ele>1282</ele>
        <time>2016-07-14T14:18:01Z</time>
      </trkpt>
      <trkpt lat="46.72993" lon="6.33745">
        <ele>1277</ele>
        <time>2016-07-14T14:18:06Z</time>
      </trkpt>
      <trkpt lat="46.73" lon="6.33722">
        <ele>1275</ele>
        <time>2016-07-14T14:18:10Z</time>
      </trkpt>
      <trkpt lat="46.73004" lon="6.33699">
        <ele>1275</ele>
        <time>2016-07-14T14:18:15Z</time>
      </trkpt>
      <trkpt lat="46.73006" lon="6.33679">
        <ele>1275</ele>
        <time>2016-07-14T14:18:20Z</time>
      </trkpt>
      <trkpt lat="46.73007" lon="6.33664">
        <ele>1275</ele>
        <time>2016-07-14T14:18:24Z</time>
      </trkpt>
      <trkpt lat="46.73006" lon="6.3365">
        <ele>1275</ele>
        <time>2016-07-14T14:18:28Z</time>
      </trkpt>
      <trkpt lat="46.73003" lon="6.33642">
        <ele>1275</ele>
        <time>2016-07-14T14:18:31Z</time>
      </trkpt>
      <trkpt lat="46.72999" lon="6.33631">
        <ele>1275</ele>
        <time>2016-07-14T14:18:36Z</time>
      </trkpt>
      <trkpt lat="46.72999" lon="6.33618">
        <ele>1275</ele>
        <time>2016-07-14T14:19:20Z</time>
      </trkpt>
      <trkpt lat="46.73001" lon="6.33607">
        <ele>1275</ele>
        <time>2016-07-14T14:20:15Z</time>
      </trkpt>
      <trkpt lat="46.73008" lon="6.33601">
        <ele>1275</ele>
        <time>2016-07-14T14:20:20Z</time>
      </trkpt>
      <trkpt lat="46.73016" lon="6.33594">
        <ele>1275</ele>
        <time>2016-07-14T14:20:25Z</time>
      </trkpt>
      <trkpt lat="46.73022" lon="6.33584">
        <ele>1275</ele>
        <time>2016-07-14T14:20:29Z</time>
      </trkpt>
      <trkpt lat="46.73027" lon="6.3357">
        <ele>1278</ele>
        <time>2016-07-14T14:20:32Z</time>
      </trkpt>
      <trkpt lat="46.73027" lon="6.33556">
        <ele>1279</ele>
        <time>2016-07-14T14:20:36Z</time>
      </trkpt>
      <trkpt lat="46.73024" lon="6.33544">
        <ele>1279</ele>
        <time>2016-07-14T14:20:42Z</time>
      </trkpt>
      <trkpt lat="46.7302" lon="6.33535">
        <ele>1280</ele>
        <time>2016-07-14T14:20:47Z</time>
      </trkpt>
      <trkpt lat="46.73015" lon="6.33514">
        <ele>1280</ele>
        <time>2016-07-14T14:20:51Z</time>
      </trkpt>
      <trkpt lat="46.73013" lon="6.33497">
        <ele>1282</ele>
        <time>2016-07-14T14:20:55Z</time>
      </trkpt>
      <trkpt lat="46.7301" lon="6.3348">
        <ele>1283</ele>
        <time>2016-07-14T14:20:59Z</time>
      </trkpt>
      <trkpt lat="46.73009" lon="6.33459">
        <ele>1284</ele>
        <time>2016-07-14T14:21:04Z</time>
      </trkpt>
      <trkpt lat="46.73012" lon="6.33446">
        <ele>1284</ele>
        <time>2016-07-14T14:21:07Z</time>
      </trkpt>
      <trkpt lat="46.73016" lon="6.33425">
        <ele>1284</ele>
        <time>2016-07-14T14:21:12Z</time>
      </trkpt>
      <trkpt lat="46.7302" lon="6.33405">
        <ele>1286</ele>
        <time>2016-07-14T14:21:16Z</time>
      </trkpt>
      <trkpt lat="46.73023" lon="6.33383">
        <ele>1287</ele>
        <time>2016-07-14T14:21:20Z</time>
      </trkpt>
      <trkpt lat="46.73024" lon="6.33367">
        <ele>1288</ele>
        <time>2016-07-14T14:21:25Z</time>
      </trkpt>
      <trkpt lat="46.73023" lon="6.33348">
        <ele>1287</ele>
        <time>2016-07-14T14:21:30Z</time>
      </trkpt>
      <trkpt lat="46.73023" lon="6.33332">
        <ele>1287</ele>
        <time>2016-07-14T14:21:34Z</time>
      </trkpt>
      <trkpt lat="46.7303" lon="6.33314">
        <ele>1287</ele>
        <time>2016-07-14T14:21:39Z</time>
      </trkpt>
      <trkpt lat="46.73044" lon="6.33312">
        <ele>1288</ele>
        <time>2016-07-14T14:21:44Z</time>
      </trkpt>
      <trkpt lat="46.73052" lon="6.33309">
        <ele>1288</ele>
        <time>2016-07-14T14:21:48Z</time>
      </trkpt>
      <trkpt lat="46.73057" lon="6.33298">
        <ele>1288</ele>
        <time>2016-07-14T14:21:51Z</time>
      </trkpt>
      <trkpt lat="46.73067" lon="6.33278">
        <ele>1288</ele>
        <time>2016-07-14T14:21:55Z</time>
      </trkpt>
      <trkpt lat="46.73076" lon="6.33258">
        <ele>1287</ele>
        <time>2016-07-14T14:21:59Z</time>
      </trkpt>
      <trkpt lat="46.73085" lon="6.33241">
        <ele>1287</ele>
        <time>2016-07-14T14:22:03Z</time>
      </trkpt>
      <trkpt lat="46.73097" lon="6.33221">
        <ele>1287</ele>
        <time>2016-07-14T14:22:08Z</time>
      </trkpt>
      <trkpt lat="46.73109" lon="6.33201">
        <ele>1287</ele>
        <time>2016-07-14T14:22:13Z</time>
      </trkpt>
      <trkpt lat="46.73115" lon="6.33189">
        <ele>1287</ele>
        <time>2016-07-14T14:22:16Z</time>
      </trkpt>
      <trkpt lat="46.73125" lon="6.33162">
        <ele>1282</ele>
        <time>2016-07-14T14:22:21Z</time>
      </trkpt>
      <trkpt lat="46.73126" lon="6.33144">
        <ele>1282</ele>
        <time>2016-07-14T14:22:26Z</time>
      </trkpt>
      <trkpt lat="46.73131" lon="6.33135">
        <ele>1281</ele>
        <time>2016-07-14T14:23:46Z</time>
      </trkpt>
      <trkpt lat="46.73136" lon="6.33112">
        <ele>1280</ele>
        <time>2016-07-14T14:23:50Z</time>
      </trkpt>
      <trkpt lat="46.73137" lon="6.33075">
        <ele>1276</ele>
        <time>2016-07-14T14:23:54Z</time>
      </trkpt>
      <trkpt lat="46.7314" lon="6.33043">
        <ele>1275</ele>
        <time>2016-07-14T14:23:59Z</time>
      </trkpt>
      <trkpt lat="46.73144" lon="6.33023">
        <ele>1273</ele>
        <time>2016-07-14T14:24:03Z</time>
      </trkpt>
      <trkpt lat="46.73151" lon="6.33003">
        <ele>1271</ele>
        <time>2016-07-14T14:24:07Z</time>
      </trkpt>
      <trkpt lat="46.73158" lon="6.32984">
        <ele>1269</ele>
        <time>2016-07-14T14:24:11Z</time>
      </trkpt>
      <trkpt lat="46.73169" lon="6.32968">
        <ele>1264</ele>
        <time>2016-07-14T14:24:15Z</time>
      </trkpt>
      <trkpt lat="46.73176" lon="6.32944">
        <ele>1263</ele>
        <time>2016-07-14T14:24:19Z</time>
      </trkpt>
      <trkpt lat="46.73176" lon="6.32914">
        <ele>1261</ele>
        <time>2016-07-14T14:24:24Z</time>
      </trkpt>
      <trkpt lat="46.73169" lon="6.32882">
        <ele>1259</ele>
        <time>2016-07-14T14:24:29Z</time>
      </trkpt>
      <trkpt lat="46.73163" lon="6.32861">
        <ele>1263</ele>
        <time>2016-07-14T14:24:33Z</time>
      </trkpt>
      <trkpt lat="46.7316" lon="6.32851">
        <ele>1263</ele>
        <time>2016-07-14T14:24:36Z</time>
      </trkpt>
      <trkpt lat="46.73157" lon="6.32839">
        <ele>1261</ele>
        <time>2016-07-14T14:24:41Z</time>
      </trkpt>
      <trkpt lat="46.73159" lon="6.32827">
        <ele>1260</ele>
        <time>2016-07-14T14:24:49Z</time>
      </trkpt>
      <trkpt lat="46.73157" lon="6.32814">
        <ele>1261</ele>
        <time>2016-07-14T14:24:54Z</time>
      </trkpt>
      <trkpt lat="46.73156" lon="6.32806">
        <ele>1262</ele>
        <time>2016-07-14T14:24:57Z</time>
      </trkpt>
      <trkpt lat="46.73156" lon="6.32793">
        <ele>1262</ele>
        <time>2016-07-14T14:25:01Z</time>
      </trkpt>
      <trkpt lat="46.73156" lon="6.3278">
        <ele>1262</ele>
        <time>2016-07-14T14:25:07Z</time>
      </trkpt>
      <trkpt lat="46.73156" lon="6.32768">
        <ele>1261</ele>
        <time>2016-07-14T14:25:11Z</time>
      </trkpt>
      <trkpt lat="46.73154" lon="6.32753">
        <ele>1261</ele>
        <time>2016-07-14T14:25:16Z</time>
      </trkpt>
      <trkpt lat="46.73154" lon="6.32737">
        <ele>1260</ele>
        <time>2016-07-14T14:25:21Z</time>
      </trkpt>
      <trkpt lat="46.73151" lon="6.32723">
        <ele>1260</ele>
        <time>2016-07-14T14:25:25Z</time>
      </trkpt>
      <trkpt lat="46.73143" lon="6.32709">
        <ele>1260</ele>
        <time>2016-07-14T14:25:30Z</time>
      </trkpt>
      <trkpt lat="46.73133" lon="6.32696">
        <ele>1260</ele>
        <time>2016-07-14T14:25:34Z</time>
      </trkpt>
      <trkpt lat="46.73127" lon="6.32684">
        <ele>1259</ele>
        <time>2016-07-14T14:25:38Z</time>
      </trkpt>
      <trkpt lat="46.73126" lon="6.32661">
        <ele>1255</ele>
        <time>2016-07-14T14:25:43Z</time>
      </trkpt>
      <trkpt lat="46.73131" lon="6.32647">
        <ele>1255</ele>
        <time>2016-07-14T14:25:46Z</time>
      </trkpt>
      <trkpt lat="46.73143" lon="6.32633">
        <ele>1255</ele>
        <time>2016-07-14T14:25:51Z</time>
      </trkpt>
      <trkpt lat="46.7315" lon="6.32618">
        <ele>1254</ele>
        <time>2016-07-14T14:25:55Z</time>
      </trkpt>
      <trkpt lat="46.73151" lon="6.3259">
        <ele>1253</ele>
        <time>2016-07-14T14:26:00Z</time>
      </trkpt>
      <trkpt lat="46.73156" lon="6.32553">
        <ele>1247</ele>
        <time>2016-07-14T14:26:04Z</time>
      </trkpt>
      <trkpt lat="46.73153" lon="6.32521">
        <ele>1245</ele>
        <time>2016-07-14T14:26:09Z</time>
      </trkpt>
      <trkpt lat="46.73156" lon="6.32475">
        <ele>1240</ele>
        <time>2016-07-14T14:26:14Z</time>
      </trkpt>
      <trkpt lat="46.73146" lon="6.32442">
        <ele>1238</ele>
        <time>2016-07-14T14:26:18Z</time>
      </trkpt>
      <trkpt lat="46.73139" lon="6.32407">
        <ele>1234</ele>
        <time>2016-07-14T14:26:22Z</time>
      </trkpt>
      <trkpt lat="46.73149" lon="6.32367">
        <ele>1233</ele>
        <time>2016-07-14T14:26:26Z</time>
      </trkpt>
      <trkpt lat="46.73175" lon="6.32341">
        <ele>1232</ele>
        <time>2016-07-14T14:26:31Z</time>
      </trkpt>
      <trkpt lat="46.73195" lon="6.32334">
        <ele>1232</ele>
        <time>2016-07-14T14:26:35Z</time>
      </trkpt>
      <trkpt lat="46.73223" lon="6.32338">
        <ele>1232</ele>
        <time>2016-07-14T14:26:39Z</time>
      </trkpt>
      <trkpt lat="46.73238" lon="6.32339">
        <ele>1231</ele>
        <time>2016-07-14T14:26:44Z</time>
      </trkpt>
      <trkpt lat="46.73253" lon="6.32343">
        <ele>1229</ele>
        <time>2016-07-14T14:26:48Z</time>
      </trkpt>
      <trkpt lat="46.73265" lon="6.32355">
        <ele>1229</ele>
        <time>2016-07-14T14:26:52Z</time>
      </trkpt>
      <trkpt lat="46.73272" lon="6.32364">
        <ele>1229</ele>
        <time>2016-07-14T14:26:55Z</time>
      </trkpt>
      <trkpt lat="46.73277" lon="6.32379">
        <ele>1230</ele>
        <time>2016-07-14T14:27:00Z</time>
      </trkpt>
      <trkpt lat="46.73281" lon="6.32393">
        <ele>1230</ele>
        <time>2016-07-14T14:27:04Z</time>
      </trkpt>
      <trkpt lat="46.73284" lon="6.32409">
        <ele>1230</ele>
        <time>2016-07-14T14:27:09Z</time>
      </trkpt>
      <trkpt lat="46.73291" lon="6.32424">
        <ele>1232</ele>
        <time>2016-07-14T14:27:14Z</time>
      </trkpt>
      <trkpt lat="46.73298" lon="6.32433">
        <ele>1232</ele>
        <time>2016-07-14T14:27:18Z</time>
      </trkpt>
      <trkpt lat="46.73308" lon="6.3244">
        <ele>1232</ele>
        <time>2016-07-14T14:27:22Z</time>
      </trkpt>
      <trkpt lat="46.73315" lon="6.32444">
        <ele>1232</ele>
        <time>2016-07-14T14:27:25Z</time>
      </trkpt>
      <trkpt lat="46.73327" lon="6.32449">
        <ele>1231</ele>
        <time>2016-07-14T14:27:30Z</time>
      </trkpt>
      <trkpt lat="46.73339" lon="6.32467">
        <ele>1228</ele>
        <time>2016-07-14T14:27:34Z</time>
      </trkpt>
      <trkpt lat="46.73354" lon="6.32494">
        <ele>1229</ele>
        <time>2016-07-14T14:27:39Z</time>
      </trkpt>
      <trkpt lat="46.73362" lon="6.32505">
        <ele>1230</ele>
        <time>2016-07-14T14:27:42Z</time>
      </trkpt>
      <trkpt lat="46.73376" lon="6.32513">
        <ele>1229</ele>
        <time>2016-07-14T14:27:46Z</time>
      </trkpt>
      <trkpt lat="46.73384" lon="6.32514">
        <ele>1229</ele>
        <time>2016-07-14T14:28:08Z</time>
      </trkpt>
      <trkpt lat="46.73391" lon="6.32523">
        <ele>1228</ele>
        <time>2016-07-14T14:28:15Z</time>
      </trkpt>
      <trkpt lat="46.73396" lon="6.32531">
        <ele>1228</ele>
        <time>2016-07-14T14:29:11Z</time>
      </trkpt>
      <trkpt lat="46.73401" lon="6.32539">
        <ele>1228</ele>
        <time>2016-07-14T14:29:16Z</time>
      </trkpt>
      <trkpt lat="46.73406" lon="6.32547">
        <ele>1228</ele>
        <time>2016-07-14T14:29:20Z</time>
      </trkpt>
      <trkpt lat="46.73413" lon="6.32557">
        <ele>1228</ele>
        <time>2016-07-14T14:29:24Z</time>
      </trkpt>
      <trkpt lat="46.73419" lon="6.32566">
        <ele>1223</ele>
        <time>2016-07-14T14:29:28Z</time>
      </trkpt>
      <trkpt lat="46.73425" lon="6.32574">
        <ele>1223</ele>
        <time>2016-07-14T14:29:33Z</time>
      </trkpt>
      <trkpt lat="46.7343" lon="6.32579">
        <ele>1223</ele>
        <time>2016-07-14T14:29:36Z</time>
      </trkpt>
      <trkpt lat="46.73437" lon="6.32587">
        <ele>1224</ele>
        <time>2016-07-14T14:29:41Z</time>
      </trkpt>
      <trkpt lat="46.73448" lon="6.32593">
        <ele>1223</ele>
        <time>2016-07-14T14:29:46Z</time>
      </trkpt>
      <trkpt lat="46.73457" lon="6.32598">
        <ele>1223</ele>
        <time>2016-07-14T14:29:50Z</time>
      </trkpt>
      <trkpt lat="46.73464" lon="6.32603">
        <ele>1222</ele>
        <time>2016-07-14T14:29:54Z</time>
      </trkpt>
      <trkpt lat="46.73473" lon="6.32609">
        <ele>1222</ele>
        <time>2016-07-14T14:29:59Z</time>
      </trkpt>
      <trkpt lat="46.7348" lon="6.32612">
        <ele>1222</ele>
        <time>2016-07-14T14:30:03Z</time>
      </trkpt>
      <trkpt lat="46.73486" lon="6.32612">
        <ele>1221</ele>
        <time>2016-07-14T14:30:06Z</time>
      </trkpt>
      <trkpt lat="46.73495" lon="6.32611">
        <ele>1221</ele>
        <time>2016-07-14T14:30:10Z</time>
      </trkpt>
      <trkpt lat="46.73505" lon="6.3261">
        <ele>1214</ele>
        <time>2016-07-14T14:30:15Z</time>
      </trkpt>
      <trkpt lat="46.73515" lon="6.32613">
        <ele>1214</ele>
        <time>2016-07-14T14:30:20Z</time>
      </trkpt>
      <trkpt lat="46.73525" lon="6.32617">
        <ele>1213</ele>
        <time>2016-07-14T14:30:25Z</time>
      </trkpt>
      <trkpt lat="46.73537" lon="6.32619">
        <ele>1213</ele>
        <time>2016-07-14T14:30:29Z</time>
      </trkpt>
      <trkpt lat="46.73554" lon="6.3262">
        <ele>1212</ele>
        <time>2016-07-14T14:30:33Z</time>
      </trkpt>
      <trkpt lat="46.73576" lon="6.32627">
        <ele>1211</ele>
        <time>2016-07-14T14:30:37Z</time>
      </trkpt>
      <trkpt lat="46.73602" lon="6.32642">
        <ele>1203</ele>
        <time>2016-07-14T14:30:42Z</time>
      </trkpt>
      <trkpt lat="46.73629" lon="6.32662">
        <ele>1201</ele>
        <time>2016-07-14T14:30:46Z</time>
      </trkpt>
      <trkpt lat="46.73636" lon="6.32669">
        <ele>1204</ele>
        <time>2016-07-14T14:30:51Z</time>
      </trkpt>
      <trkpt lat="46.7365" lon="6.32685">
        <ele>1203</ele>
        <time>2016-07-14T14:30:55Z</time>
      </trkpt>
      <trkpt lat="46.73652" lon="6.32698">
        <ele>1204</ele>
        <time>2016-07-14T14:31:19Z</time>
      </trkpt>
      <trkpt lat="46.73658" lon="6.32707">
        <ele>1204</ele>
        <time>2016-07-14T14:32:08Z</time>
      </trkpt>
      <trkpt lat="46.73666" lon="6.32713">
        <ele>1204</ele>
        <time>2016-07-14T14:32:12Z</time>
      </trkpt>
      <trkpt lat="46.73672" lon="6.32717">
        <ele>1197</ele>
        <time>2016-07-14T14:32:17Z</time>
      </trkpt>
      <trkpt lat="46.7368" lon="6.32722">
        <ele>1197</ele>
        <time>2016-07-14T14:32:22Z</time>
      </trkpt>
      <trkpt lat="46.73689" lon="6.32727">
        <ele>1197</ele>
        <time>2016-07-14T14:32:27Z</time>
      </trkpt>
      <trkpt lat="46.73696" lon="6.32734">
        <ele>1197</ele>
        <time>2016-07-14T14:32:31Z</time>
      </trkpt>
      <trkpt lat="46.73701" lon="6.32747">
        <ele>1197</ele>
        <time>2016-07-14T14:32:36Z</time>
      </trkpt>
      <trkpt lat="46.73705" lon="6.32756">
        <ele>1199</ele>
        <time>2016-07-14T14:32:40Z</time>
      </trkpt>
      <trkpt lat="46.73709" lon="6.32765">
        <ele>1199</ele>
        <time>2016-07-14T14:32:45Z</time>
      </trkpt>
      <trkpt lat="46.73713" lon="6.32775">
        <ele>1199</ele>
        <time>2016-07-14T14:32:50Z</time>
      </trkpt>
      <trkpt lat="46.73712" lon="6.32788">
        <ele>1199</ele>
        <time>2016-07-14T14:32:55Z</time>
      </trkpt>
      <trkpt lat="46.73713" lon="6.32801">
        <ele>1199</ele>
        <time>2016-07-14T14:33:00Z</time>
      </trkpt>
      <trkpt lat="46.73717" lon="6.32811">
        <ele>1199</ele>
        <time>2016-07-14T14:33:05Z</time>
      </trkpt>
      <trkpt lat="46.73721" lon="6.32831">
        <ele>1199</ele>
        <time>2016-07-14T14:33:09Z</time>
      </trkpt>
      <trkpt lat="46.73726" lon="6.32852">
        <ele>1201</ele>
        <time>2016-07-14T14:33:13Z</time>
      </trkpt>
      <trkpt lat="46.73746" lon="6.32862">
        <ele>1200</ele>
        <time>2016-07-14T14:33:18Z</time>
      </trkpt>
      <trkpt lat="46.73757" lon="6.32865">
        <ele>1201</ele>
        <time>2016-07-14T14:33:22Z</time>
      </trkpt>
      <trkpt lat="46.73766" lon="6.32855">
        <ele>1200</ele>
        <time>2016-07-14T14:33:26Z</time>
      </trkpt>
      <trkpt lat="46.73769" lon="6.32844">
        <ele>1200</ele>
        <time>2016-07-14T14:33:30Z</time>
      </trkpt>
      <trkpt lat="46.73773" lon="6.32833">
        <ele>1197</ele>
        <time>2016-07-14T14:33:35Z</time>
      </trkpt>
      <trkpt lat="46.73776" lon="6.32817">
        <ele>1197</ele>
        <time>2016-07-14T14:33:40Z</time>
      </trkpt>
      <trkpt lat="46.7378" lon="6.32803">
        <ele>1197</ele>
        <time>2016-07-14T14:33:44Z</time>
      </trkpt>
      <trkpt lat="46.73787" lon="6.32788">
        <ele>1197</ele>
        <time>2016-07-14T14:33:49Z</time>
      </trkpt>
      <trkpt lat="46.73792" lon="6.32778">
        <ele>1197</ele>
        <time>2016-07-14T14:33:53Z</time>
      </trkpt>
      <trkpt lat="46.73798" lon="6.32771">
        <ele>1197</ele>
        <time>2016-07-14T14:33:57Z</time>
      </trkpt>
      <trkpt lat="46.73803" lon="6.3276">
        <ele>1196</ele>
        <time>2016-07-14T14:34:02Z</time>
      </trkpt>
      <trkpt lat="46.73806" lon="6.32755">
        <ele>1196</ele>
        <time>2016-07-14T14:34:04Z</time>
      </trkpt>
      <trkpt lat="46.73814" lon="6.32743">
        <ele>1194</ele>
        <time>2016-07-14T14:34:09Z</time>
      </trkpt>
      <trkpt lat="46.73823" lon="6.32735">
        <ele>1194</ele>
        <time>2016-07-14T14:34:14Z</time>
      </trkpt>
      <trkpt lat="46.7383" lon="6.32727">
        <ele>1193</ele>
        <time>2016-07-14T14:34:40Z</time>
      </trkpt>
      <trkpt lat="46.73839" lon="6.32726">
        <ele>1192</ele>
        <time>2016-07-14T14:34:55Z</time>
      </trkpt>
      <trkpt lat="46.73859" lon="6.327">
        <ele>1190</ele>
        <time>2016-07-14T14:35:00Z</time>
      </trkpt>
      <trkpt lat="46.73858" lon="6.32658">
        <ele>1185</ele>
        <time>2016-07-14T14:35:04Z</time>
      </trkpt>
      <trkpt lat="46.73857" lon="6.32628">
        <ele>1184</ele>
        <time>2016-07-14T14:35:08Z</time>
      </trkpt>
      <trkpt lat="46.73869" lon="6.32606">
        <ele>1184</ele>
        <time>2016-07-14T14:35:12Z</time>
      </trkpt>
      <trkpt lat="46.73886" lon="6.32584">
        <ele>1183</ele>
        <time>2016-07-14T14:35:16Z</time>
      </trkpt>
      <trkpt lat="46.73909" lon="6.32546">
        <ele>1179</ele>
        <time>2016-07-14T14:35:21Z</time>
      </trkpt>
      <trkpt lat="46.73927" lon="6.32499">
        <ele>1175</ele>
        <time>2016-07-14T14:35:26Z</time>
      </trkpt>
      <trkpt lat="46.73951" lon="6.32484">
        <ele>1172</ele>
        <time>2016-07-14T14:35:30Z</time>
      </trkpt>
      <trkpt lat="46.73996" lon="6.32505">
        <ele>1171</ele>
        <time>2016-07-14T14:35:35Z</time>
      </trkpt>
      <trkpt lat="46.74027" lon="6.32509">
        <ele>1165</ele>
        <time>2016-07-14T14:35:39Z</time>
      </trkpt>
      <trkpt lat="46.74061" lon="6.32483">
        <ele>1158</ele>
        <time>2016-07-14T14:35:44Z</time>
      </trkpt>
      <trkpt lat="46.74083" lon="6.32466">
        <ele>1158</ele>
        <time>2016-07-14T14:35:48Z</time>
      </trkpt>
      <trkpt lat="46.74119" lon="6.32459">
        <ele>1143</ele>
        <time>2016-07-14T14:35:52Z</time>
      </trkpt>
      <trkpt lat="46.74148" lon="6.32448">
        <ele>1139</ele>
        <time>2016-07-14T14:35:57Z</time>
      </trkpt>
      <trkpt lat="46.74176" lon="6.32442">
        <ele>1125</ele>
        <time>2016-07-14T14:36:01Z</time>
      </trkpt>
      <trkpt lat="46.74204" lon="6.3244">
        <ele>1123</ele>
        <time>2016-07-14T14:36:05Z</time>
      </trkpt>
      <trkpt lat="46.74234" lon="6.32429">
        <ele>1118</ele>
        <time>2016-07-14T14:36:09Z</time>
      </trkpt>
      <trkpt lat="46.74259" lon="6.32426">
        <ele>1112</ele>
        <time>2016-07-14T14:36:13Z</time>
      </trkpt>
      <trkpt lat="46.74276" lon="6.32391">
        <ele>1107</ele>
        <time>2016-07-14T14:36:17Z</time>
      </trkpt>
      <trkpt lat="46.74283" lon="6.32395">
        <ele>1107</ele>
        <time>2016-07-14T14:36:53Z</time>
      </trkpt>
      <trkpt lat="46.74289" lon="6.32403">
        <ele>1107</ele>
        <time>2016-07-14T14:36:57Z</time>
      </trkpt>
      <trkpt lat="46.74293" lon="6.32412">
        <ele>1107</ele>
        <time>2016-07-14T14:37:01Z</time>
      </trkpt>
      <trkpt lat="46.74303" lon="6.3243">
        <ele>1110</ele>
        <time>2016-07-14T14:37:06Z</time>
      </trkpt>
      <trkpt lat="46.74314" lon="6.32448">
        <ele>1110</ele>
        <time>2016-07-14T14:37:11Z</time>
      </trkpt>
      <trkpt lat="46.74319" lon="6.3244">
        <ele>1109</ele>
        <time>2016-07-14T14:37:34Z</time>
      </trkpt>
      <trkpt lat="46.74326" lon="6.3243">
        <ele>1108</ele>
        <time>2016-07-14T14:37:38Z</time>
      </trkpt>
      <trkpt lat="46.74343" lon="6.32421">
        <ele>1105</ele>
        <time>2016-07-14T14:37:43Z</time>
      </trkpt>
      <trkpt lat="46.74354" lon="6.32416">
        <ele>1102</ele>
        <time>2016-07-14T14:37:47Z</time>
      </trkpt>
      <trkpt lat="46.74366" lon="6.32419">
        <ele>1103</ele>
        <time>2016-07-14T14:37:51Z</time>
      </trkpt>
      <trkpt lat="46.74374" lon="6.32438">
        <ele>1103</ele>
        <time>2016-07-14T14:37:56Z</time>
      </trkpt>
      <trkpt lat="46.74383" lon="6.32456">
        <ele>1103</ele>
        <time>2016-07-14T14:38:00Z</time>
      </trkpt>
      <trkpt lat="46.74396" lon="6.3247">
        <ele>1103</ele>
        <time>2016-07-14T14:38:05Z</time>
      </trkpt>
      <trkpt lat="46.74421" lon="6.325">
        <ele>1101</ele>
        <time>2016-07-14T14:38:13Z</time>
      </trkpt>
      <trkpt lat="46.74435" lon="6.32508">
        <ele>1098</ele>
        <time>2016-07-14T14:38:17Z</time>
      </trkpt>
      <trkpt lat="46.74444" lon="6.3252">
        <ele>1096</ele>
        <time>2016-07-14T14:38:21Z</time>
      </trkpt>
      <trkpt lat="46.74447" lon="6.32529">
        <ele>1095</ele>
        <time>2016-07-14T14:38:33Z</time>
      </trkpt>
      <trkpt lat="46.74453" lon="6.32539">
        <ele>1095</ele>
        <time>2016-07-14T14:38:42Z</time>
      </trkpt>
      <trkpt lat="46.74458" lon="6.32548">
        <ele>1094</ele>
        <time>2016-07-14T14:38:46Z</time>
      </trkpt>
      <trkpt lat="46.74464" lon="6.32562">
        <ele>1093</ele>
        <time>2016-07-14T14:38:50Z</time>
      </trkpt>
      <trkpt lat="46.74472" lon="6.32565">
        <ele>1092</ele>
        <time>2016-07-14T14:38:53Z</time>
      </trkpt>
      <trkpt lat="46.74483" lon="6.32562">
        <ele>1091</ele>
        <time>2016-07-14T14:38:57Z</time>
      </trkpt>
      <trkpt lat="46.74503" lon="6.32563">
        <ele>1080</ele>
        <time>2016-07-14T14:39:02Z</time>
      </trkpt>
      <trkpt lat="46.74519" lon="6.32565">
        <ele>1078</ele>
        <time>2016-07-14T14:39:06Z</time>
      </trkpt>
      <trkpt lat="46.74546" lon="6.3257">
        <ele>1073</ele>
        <time>2016-07-14T14:39:11Z</time>
      </trkpt>
      <trkpt lat="46.74565" lon="6.32569">
        <ele>1070</ele>
        <time>2016-07-14T14:39:15Z</time>
      </trkpt>
      <trkpt lat="46.74576" lon="6.32572">
        <ele>1066</ele>
        <time>2016-07-14T14:39:19Z</time>
      </trkpt>
      <trkpt lat="46.74586" lon="6.32572">
        <ele>1057</ele>
        <time>2016-07-14T14:39:23Z</time>
      </trkpt>
      <trkpt lat="46.74593" lon="6.32566">
        <ele>1055</ele>
        <time>2016-07-14T14:40:23Z</time>
      </trkpt>
      <trkpt lat="46.746" lon="6.32572">
        <ele>1054</ele>
        <time>2016-07-14T14:40:27Z</time>
      </trkpt>
      <trkpt lat="46.74607" lon="6.32577">
        <ele>1053</ele>
        <time>2016-07-14T14:40:33Z</time>
      </trkpt>
      <trkpt lat="46.74616" lon="6.32576">
        <ele>1051</ele>
        <time>2016-07-14T14:40:46Z</time>
      </trkpt>
      <trkpt lat="46.74624" lon="6.32575">
        <ele>1049</ele>
        <time>2016-07-14T14:40:57Z</time>
      </trkpt>
      <trkpt lat="46.74633" lon="6.32579">
        <ele>1046</ele>
        <time>2016-07-14T14:41:01Z</time>
      </trkpt>
      <trkpt lat="46.74641" lon="6.32578">
        <ele>1044</ele>
        <time>2016-07-14T14:41:05Z</time>
      </trkpt>
      <trkpt lat="46.74654" lon="6.32579">
        <ele>1039</ele>
        <time>2016-07-14T14:41:09Z</time>
      </trkpt>
      <trkpt lat="46.74662" lon="6.3258">
        <ele>1035</ele>
        <time>2016-07-14T14:41:12Z</time>
      </trkpt>
      <trkpt lat="46.74673" lon="6.32588">
        <ele>1031</ele>
        <time>2016-07-14T14:41:17Z</time>
      </trkpt>
      <trkpt lat="46.7468" lon="6.32594">
        <ele>1031</ele>
        <time>2016-07-14T14:41:21Z</time>
      </trkpt>
      <trkpt lat="46.74684" lon="6.32598">
        <ele>1031</ele>
        <time>2016-07-14T14:44:38Z</time>
      </trkpt>
      <trkpt lat="46.74709" lon="6.32563">
        <ele>1027</ele>
        <time>2016-07-14T14:44:41Z</time>
      </trkpt>
      <trkpt lat="46.74732" lon="6.32537">
        <ele>1025</ele>
        <time>2016-07-14T14:44:46Z</time>
      </trkpt>
      <trkpt lat="46.74764" lon="6.32504">
        <ele>1018</ele>
        <time>2016-07-14T14:44:51Z</time>
      </trkpt>
      <trkpt lat="46.7479" lon="6.32468">
        <ele>1015</ele>
        <time>2016-07-14T14:44:56Z</time>
      </trkpt>
      <trkpt lat="46.74808" lon="6.32419">
        <ele>1012</ele>
        <time>2016-07-14T14:45:01Z</time>
      </trkpt>
      <trkpt lat="46.74815" lon="6.32386">
        <ele>1009</ele>
        <time>2016-07-14T14:45:05Z</time>
      </trkpt>
      <trkpt lat="46.74817" lon="6.32367">
        <ele>1008</ele>
        <time>2016-07-14T14:45:09Z</time>
      </trkpt>
      <trkpt lat="46.7481" lon="6.32353">
        <ele>1008</ele>
        <time>2016-07-14T14:45:13Z</time>
      </trkpt>
      <trkpt lat="46.74801" lon="6.32352">
        <ele>1009</ele>
        <time>2016-07-14T14:45:44Z</time>
      </trkpt>
      <trkpt lat="46.74807" lon="6.32358">
        <ele>1009</ele>
        <time>2016-07-14T14:45:54Z</time>
      </trkpt>
      <trkpt lat="46.74819" lon="6.32355">
        <ele>1007</ele>
        <time>2016-07-14T14:45:58Z</time>
      </trkpt>
      <trkpt lat="46.74829" lon="6.32335">
        <ele>1001</ele>
        <time>2016-07-14T14:46:02Z</time>
      </trkpt>
      <trkpt lat="46.74844" lon="6.32315">
        <ele>999</ele>
        <time>2016-07-14T14:46:07Z</time>
      </trkpt>
      <trkpt lat="46.74855" lon="6.32305">
        <ele>999</ele>
        <time>2016-07-14T14:46:11Z</time>
      </trkpt>
      <trkpt lat="46.74875" lon="6.32291">
        <ele>999</ele>
        <time>2016-07-14T14:46:15Z</time>
      </trkpt>
      <trkpt lat="46.74895" lon="6.32279">
        <ele>998</ele>
        <time>2016-07-14T14:46:20Z</time>
      </trkpt>
      <trkpt lat="46.74907" lon="6.3227">
        <ele>996</ele>
        <time>2016-07-14T14:46:24Z</time>
      </trkpt>
      <trkpt lat="46.74923" lon="6.32255">
        <ele>993</ele>
        <time>2016-07-14T14:46:29Z</time>
      </trkpt>
      <trkpt lat="46.74937" lon="6.32243">
        <ele>990</ele>
        <time>2016-07-14T14:46:34Z</time>
      </trkpt>
      <trkpt lat="46.7495" lon="6.3223">
        <ele>989</ele>
        <time>2016-07-14T14:46:39Z</time>
      </trkpt>
      <trkpt lat="46.7496" lon="6.32209">
        <ele>987</ele>
        <time>2016-07-14T14:46:43Z</time>
      </trkpt>
      <trkpt lat="46.74975" lon="6.32187">
        <ele>986</ele>
        <time>2016-07-14T14:46:48Z</time>
      </trkpt>
      <trkpt lat="46.7498" lon="6.32198">
        <ele>986</ele>
        <time>2016-07-14T14:46:53Z</time>
      </trkpt>
      <trkpt lat="46.74985" lon="6.32207">
        <ele>987</ele>
        <time>2016-07-14T14:46:57Z</time>
      </trkpt>
      <trkpt lat="46.7499" lon="6.32216">
        <ele>988</ele>
        <time>2016-07-14T14:47:01Z</time>
      </trkpt>
      <trkpt lat="46.74996" lon="6.32226">
        <ele>989</ele>
        <time>2016-07-14T14:47:05Z</time>
      </trkpt>
      <trkpt lat="46.75002" lon="6.32237">
        <ele>990</ele>
        <time>2016-07-14T14:47:09Z</time>
      </trkpt>
      <trkpt lat="46.75007" lon="6.32246">
        <ele>991</ele>
        <time>2016-07-14T14:47:13Z</time>
      </trkpt>
      <trkpt lat="46.75013" lon="6.32256">
        <ele>993</ele>
        <time>2016-07-14T14:47:18Z</time>
      </trkpt>
      <trkpt lat="46.75019" lon="6.32265">
        <ele>993</ele>
        <time>2016-07-14T14:47:22Z</time>
      </trkpt>
      <trkpt lat="46.75024" lon="6.32274">
        <ele>993</ele>
        <time>2016-07-14T14:47:28Z</time>
      </trkpt>
      <trkpt lat="46.75032" lon="6.32289">
        <ele>994</ele>
        <time>2016-07-14T14:47:32Z</time>
      </trkpt>
      <trkpt lat="46.75038" lon="6.32304">
        <ele>994</ele>
        <time>2016-07-14T14:47:37Z</time>
      </trkpt>
      <trkpt lat="46.75042" lon="6.32316">
        <ele>994</ele>
        <time>2016-07-14T14:47:42Z</time>
      </trkpt>
      <trkpt lat="46.75046" lon="6.32331">
        <ele>995</ele>
        <time>2016-07-14T14:47:46Z</time>
      </trkpt>
      <trkpt lat="46.75049" lon="6.32347">
        <ele>1001</ele>
        <time>2016-07-14T14:47:51Z</time>
      </trkpt>
      <trkpt lat="46.75051" lon="6.32359">
        <ele>1001</ele>
        <time>2016-07-14T14:47:55Z</time>
      </trkpt>
      <trkpt lat="46.75052" lon="6.32367">
        <ele>1001</ele>
        <time>2016-07-14T14:47:58Z</time>
      </trkpt>
      <trkpt lat="46.75055" lon="6.32378">
        <ele>1002</ele>
        <time>2016-07-14T14:48:03Z</time>
      </trkpt>
      <trkpt lat="46.75057" lon="6.32384">
        <ele>1002</ele>
        <time>2016-07-14T14:48:06Z</time>
      </trkpt>
      <trkpt lat="46.75066" lon="6.32405">
        <ele>1003</ele>
        <time>2016-07-14T14:48:11Z</time>
      </trkpt>
      <trkpt lat="46.75075" lon="6.32423">
        <ele>1005</ele>
        <time>2016-07-14T14:48:15Z</time>
      </trkpt>
      <trkpt lat="46.75084" lon="6.32443">
        <ele>1000</ele>
        <time>2016-07-14T14:48:20Z</time>
      </trkpt>
      <trkpt lat="46.75093" lon="6.32457">
        <ele>1000</ele>
        <time>2016-07-14T14:48:24Z</time>
      </trkpt>
      <trkpt lat="46.75103" lon="6.3247">
        <ele>1001</ele>
        <time>2016-07-14T14:48:28Z</time>
      </trkpt>
      <trkpt lat="46.75113" lon="6.32482">
        <ele>1000</ele>
        <time>2016-07-14T14:48:32Z</time>
      </trkpt>
      <trkpt lat="46.75122" lon="6.32494">
        <ele>1000</ele>
        <time>2016-07-14T14:48:36Z</time>
      </trkpt>
      <trkpt lat="46.75131" lon="6.32506">
        <ele>1003</ele>
        <time>2016-07-14T14:48:40Z</time>
      </trkpt>
      <trkpt lat="46.75142" lon="6.32521">
        <ele>1003</ele>
        <time>2016-07-14T14:48:45Z</time>
      </trkpt>
      <trkpt lat="46.75151" lon="6.32535">
        <ele>1003</ele>
        <time>2016-07-14T14:48:49Z</time>
      </trkpt>
      <trkpt lat="46.75161" lon="6.32554">
        <ele>1003</ele>
        <time>2016-07-14T14:48:54Z</time>
      </trkpt>
      <trkpt lat="46.75172" lon="6.32577">
        <ele>1000</ele>
        <time>2016-07-14T14:48:59Z</time>
      </trkpt>
      <trkpt lat="46.75179" lon="6.32598">
        <ele>1004</ele>
        <time>2016-07-14T14:49:03Z</time>
      </trkpt>
      <trkpt lat="46.75191" lon="6.32622">
        <ele>1005</ele>
        <time>2016-07-14T14:49:08Z</time>
      </trkpt>
      <trkpt lat="46.75206" lon="6.32633">
        <ele>1005</ele>
        <time>2016-07-14T14:49:12Z</time>
      </trkpt>
      <trkpt lat="46.7522" lon="6.32647">
        <ele>1006</ele>
        <time>2016-07-14T14:49:16Z</time>
      </trkpt>
      <trkpt lat="46.75232" lon="6.32668">
        <ele>1011</ele>
        <time>2016-07-14T14:49:21Z</time>
      </trkpt>
      <trkpt lat="46.75241" lon="6.32688">
        <ele>1013</ele>
        <time>2016-07-14T14:49:25Z</time>
      </trkpt>
      <trkpt lat="46.75245" lon="6.32696">
        <ele>1014</ele>
        <time>2016-07-14T14:49:29Z</time>
      </trkpt>
      <trkpt lat="46.75254" lon="6.32717">
        <ele>1010</ele>
        <time>2016-07-14T14:49:33Z</time>
      </trkpt>
      <trkpt lat="46.75261" lon="6.32734">
        <ele>1013</ele>
        <time>2016-07-14T14:49:37Z</time>
      </trkpt>
      <trkpt lat="46.75271" lon="6.32756">
        <ele>1017</ele>
        <time>2016-07-14T14:49:42Z</time>
      </trkpt>
      <trkpt lat="46.75279" lon="6.32774">
        <ele>1016</ele>
        <time>2016-07-14T14:49:46Z</time>
      </trkpt>
      <trkpt lat="46.75285" lon="6.32791">
        <ele>1016</ele>
        <time>2016-07-14T14:49:49Z</time>
      </trkpt>
      <trkpt lat="46.75296" lon="6.32809">
        <ele>1016</ele>
        <time>2016-07-14T14:49:54Z</time>
      </trkpt>
      <trkpt lat="46.75311" lon="6.32825">
        <ele>1015</ele>
        <time>2016-07-14T14:49:59Z</time>
      </trkpt>
      <trkpt lat="46.75322" lon="6.32833">
        <ele>1013</ele>
        <time>2016-07-14T14:50:03Z</time>
      </trkpt>
      <trkpt lat="46.75329" lon="6.32842">
        <ele>1014</ele>
        <time>2016-07-14T14:50:08Z</time>
      </trkpt>
      <trkpt lat="46.75332" lon="6.32854">
        <ele>1016</ele>
        <time>2016-07-14T14:50:12Z</time>
      </trkpt>
      <trkpt lat="46.75336" lon="6.32866">
        <ele>1010</ele>
        <time>2016-07-14T14:50:21Z</time>
      </trkpt>
      <trkpt lat="46.75339" lon="6.32874">
        <ele>1011</ele>
        <time>2016-07-14T14:50:31Z</time>
      </trkpt>
      <trkpt lat="46.75343" lon="6.32887">
        <ele>1011</ele>
        <time>2016-07-14T14:50:35Z</time>
      </trkpt>
      <trkpt lat="46.7535" lon="6.32901">
        <ele>1012</ele>
        <time>2016-07-14T14:50:39Z</time>
      </trkpt>
      <trkpt lat="46.75358" lon="6.32916">
        <ele>1011</ele>
        <time>2016-07-14T14:50:43Z</time>
      </trkpt>
      <trkpt lat="46.75366" lon="6.32937">
        <ele>1015</ele>
        <time>2016-07-14T14:50:48Z</time>
      </trkpt>
      <trkpt lat="46.75374" lon="6.32949">
        <ele>1015</ele>
        <time>2016-07-14T14:50:52Z</time>
      </trkpt>
      <trkpt lat="46.75384" lon="6.32964">
        <ele>1015</ele>
        <time>2016-07-14T14:50:57Z</time>
      </trkpt>
      <trkpt lat="46.75395" lon="6.32978">
        <ele>1015</ele>
        <time>2016-07-14T14:51:02Z</time>
      </trkpt>
      <trkpt lat="46.75404" lon="6.32989">
        <ele>1015</ele>
        <time>2016-07-14T14:51:06Z</time>
      </trkpt>
      <trkpt lat="46.75412" lon="6.33">
        <ele>1015</ele>
        <time>2016-07-14T14:51:11Z</time>
      </trkpt>
      <trkpt lat="46.75416" lon="6.33006">
        <ele>1017</ele>
        <time>2016-07-14T14:51:14Z</time>
      </trkpt>
      <trkpt lat="46.75423" lon="6.33018">
        <ele>1015</ele>
        <time>2016-07-14T14:51:19Z</time>
      </trkpt>
      <trkpt lat="46.75428" lon="6.33024">
        <ele>1015</ele>
        <time>2016-07-14T14:51:23Z</time>
      </trkpt>
      <trkpt lat="46.75435" lon="6.33034">
        <ele>1015</ele>
        <time>2016-07-14T14:51:27Z</time>
      </trkpt>
      <trkpt lat="46.7544" lon="6.33043">
        <ele>1015</ele>
        <time>2016-07-14T14:51:32Z</time>
      </trkpt>
      <trkpt lat="46.75444" lon="6.33054">
        <ele>1016</ele>
        <time>2016-07-14T14:51:37Z</time>
      </trkpt>
      <trkpt lat="46.75447" lon="6.33064">
        <ele>1016</ele>
        <time>2016-07-14T14:51:41Z</time>
      </trkpt>
      <trkpt lat="46.75451" lon="6.33075">
        <ele>1017</ele>
        <time>2016-07-14T14:51:46Z</time>
      </trkpt>
      <trkpt lat="46.75453" lon="6.33085">
        <ele>1022</ele>
        <time>2016-07-14T14:51:50Z</time>
      </trkpt>
      <trkpt lat="46.75456" lon="6.33094">
        <ele>1022</ele>
        <time>2016-07-14T14:51:54Z</time>
      </trkpt>
      <trkpt lat="46.75459" lon="6.33106">
        <ele>1022</ele>
        <time>2016-07-14T14:51:59Z</time>
      </trkpt>
      <trkpt lat="46.75464" lon="6.33117">
        <ele>1022</ele>
        <time>2016-07-14T14:52:04Z</time>
      </trkpt>
      <trkpt lat="46.75467" lon="6.33128">
        <ele>1022</ele>
        <time>2016-07-14T14:52:09Z</time>
      </trkpt>
      <trkpt lat="46.7547" lon="6.3314">
        <ele>1022</ele>
        <time>2016-07-14T14:52:15Z</time>
      </trkpt>
      <trkpt lat="46.75472" lon="6.33151">
        <ele>1023</ele>
        <time>2016-07-14T14:52:22Z</time>
      </trkpt>
      <trkpt lat="46.75476" lon="6.33162">
        <ele>1023</ele>
        <time>2016-07-14T14:53:40Z</time>
      </trkpt>
      <trkpt lat="46.7548" lon="6.33171">
        <ele>1023</ele>
        <time>2016-07-14T14:53:43Z</time>
      </trkpt>
      <trkpt lat="46.75486" lon="6.33188">
        <ele>1023</ele>
        <time>2016-07-14T14:53:47Z</time>
      </trkpt>
      <trkpt lat="46.75488" lon="6.332">
        <ele>1023</ele>
        <time>2016-07-14T14:53:53Z</time>
      </trkpt>
      <trkpt lat="46.75491" lon="6.33214">
        <ele>1022</ele>
        <time>2016-07-14T14:53:56Z</time>
      </trkpt>
      <trkpt lat="46.75493" lon="6.33225">
        <ele>1022</ele>
        <time>2016-07-14T14:54:01Z</time>
      </trkpt>
      <trkpt lat="46.75495" lon="6.3324">
        <ele>1020</ele>
        <time>2016-07-14T14:54:06Z</time>
      </trkpt>
      <trkpt lat="46.75497" lon="6.33252">
        <ele>1019</ele>
        <time>2016-07-14T14:54:11Z</time>
      </trkpt>
      <trkpt lat="46.75501" lon="6.33264">
        <ele>1017</ele>
        <time>2016-07-14T14:54:17Z</time>
      </trkpt>
      <trkpt lat="46.75506" lon="6.33279">
        <ele>1016</ele>
        <time>2016-07-14T14:54:22Z</time>
      </trkpt>
      <trkpt lat="46.75509" lon="6.33293">
        <ele>1016</ele>
        <time>2016-07-14T14:54:26Z</time>
      </trkpt>
      <trkpt lat="46.75513" lon="6.33308">
        <ele>1016</ele>
        <time>2016-07-14T14:54:30Z</time>
      </trkpt>
      <trkpt lat="46.75518" lon="6.33325">
        <ele>1017</ele>
        <time>2016-07-14T14:54:35Z</time>
      </trkpt>
      <trkpt lat="46.7552" lon="6.33332">
        <ele>1017</ele>
        <time>2016-07-14T14:54:38Z</time>
      </trkpt>
      <trkpt lat="46.75523" lon="6.33342">
        <ele>1018</ele>
        <time>2016-07-14T14:54:42Z</time>
      </trkpt>
      <trkpt lat="46.75527" lon="6.33355">
        <ele>1018</ele>
        <time>2016-07-14T14:54:46Z</time>
      </trkpt>
      <trkpt lat="46.75532" lon="6.33365">
        <ele>1018</ele>
        <time>2016-07-14T14:54:56Z</time>
      </trkpt>
      <trkpt lat="46.75525" lon="6.33364">
        <ele>1018</ele>
        <time>2016-07-14T14:55:51Z</time>
      </trkpt>
      <trkpt lat="46.75516" lon="6.33357">
        <ele>1018</ele>
        <time>2016-07-14T14:55:56Z</time>
      </trkpt>
      <trkpt lat="46.75509" lon="6.33353">
        <ele>1018</ele>
        <time>2016-07-14T14:56:01Z</time>
      </trkpt>
      <trkpt lat="46.75501" lon="6.33349">
        <ele>1018</ele>
        <time>2016-07-14T14:56:06Z</time>
      </trkpt>
      <trkpt lat="46.75493" lon="6.3335">
        <ele>1023</ele>
        <time>2016-07-14T14:56:12Z</time>
      </trkpt>
      <trkpt lat="46.75486" lon="6.33355">
        <ele>1024</ele>
        <time>2016-07-14T14:56:17Z</time>
      </trkpt>
      <trkpt lat="46.7548" lon="6.33363">
        <ele>1025</ele>
        <time>2016-07-14T14:56:24Z</time>
      </trkpt>
      <trkpt lat="46.75475" lon="6.33374">
        <ele>1026</ele>
        <time>2016-07-14T14:56:29Z</time>
      </trkpt>
      <trkpt lat="46.7547" lon="6.33385">
        <ele>1027</ele>
        <time>2016-07-14T14:56:35Z</time>
      </trkpt>
      <trkpt lat="46.75469" lon="6.33397">
        <ele>1027</ele>
        <time>2016-07-14T14:56:41Z</time>
      </trkpt>
      <trkpt lat="46.75469" lon="6.33408">
        <ele>1027</ele>
        <time>2016-07-14T14:56:46Z</time>
      </trkpt>
      <trkpt lat="46.75471" lon="6.3342">
        <ele>1031</ele>
        <time>2016-07-14T14:56:51Z</time>
      </trkpt>
      <trkpt lat="46.75474" lon="6.3343">
        <ele>1031</ele>
        <time>2016-07-14T14:56:57Z</time>
      </trkpt>
      <trkpt lat="46.75479" lon="6.33443">
        <ele>1032</ele>
        <time>2016-07-14T14:57:02Z</time>
      </trkpt>
      <trkpt lat="46.75482" lon="6.33454">
        <ele>1033</ele>
        <time>2016-07-14T14:57:07Z</time>
      </trkpt>
      <trkpt lat="46.75485" lon="6.33465">
        <ele>1033</ele>
        <time>2016-07-14T14:57:12Z</time>
      </trkpt>
      <trkpt lat="46.75488" lon="6.33476">
        <ele>1033</ele>
        <time>2016-07-14T14:57:17Z</time>
      </trkpt>
      <trkpt lat="46.75491" lon="6.33487">
        <ele>1033</ele>
        <time>2016-07-14T14:57:40Z</time>
      </trkpt>
      <trkpt lat="46.7549" lon="6.335">
        <ele>1036</ele>
        <time>2016-07-14T14:58:57Z</time>
      </trkpt>
      <trkpt lat="46.75495" lon="6.33506">
        <ele>1035</ele>
        <time>2016-07-14T15:00:03Z</time>
      </trkpt>
      <trkpt lat="46.75505" lon="6.33511">
        <ele>1031</ele>
        <time>2016-07-14T15:00:06Z</time>
      </trkpt>
      <trkpt lat="46.75514" lon="6.33538">
        <ele>1033</ele>
        <time>2016-07-14T15:00:10Z</time>
      </trkpt>
      <trkpt lat="46.75517" lon="6.33557">
        <ele>1034</ele>
        <time>2016-07-14T15:00:14Z</time>
      </trkpt>
      <trkpt lat="46.75519" lon="6.33571">
        <ele>1036</ele>
        <time>2016-07-14T15:00:18Z</time>
      </trkpt>
      <trkpt lat="46.75523" lon="6.33587">
        <ele>1041</ele>
        <time>2016-07-14T15:00:23Z</time>
      </trkpt>
      <trkpt lat="46.75526" lon="6.33599">
        <ele>1040</ele>
        <time>2016-07-14T15:00:27Z</time>
      </trkpt>
      <trkpt lat="46.75531" lon="6.33611">
        <ele>1040</ele>
        <time>2016-07-14T15:00:31Z</time>
      </trkpt>
      <trkpt lat="46.75535" lon="6.33621">
        <ele>1040</ele>
        <time>2016-07-14T15:00:35Z</time>
      </trkpt>
      <trkpt lat="46.7554" lon="6.33634">
        <ele>1040</ele>
        <time>2016-07-14T15:00:40Z</time>
      </trkpt>
      <trkpt lat="46.75545" lon="6.33648">
        <ele>1040</ele>
        <time>2016-07-14T15:00:45Z</time>
      </trkpt>
      <trkpt lat="46.75549" lon="6.33659">
        <ele>1040</ele>
        <time>2016-07-14T15:00:49Z</time>
      </trkpt>
      <trkpt lat="46.75557" lon="6.33673">
        <ele>1046</ele>
        <time>2016-07-14T15:00:54Z</time>
      </trkpt>
      <trkpt lat="46.7556" lon="6.33678">
        <ele>1046</ele>
        <time>2016-07-14T15:00:58Z</time>
      </trkpt>
      <trkpt lat="46.75573" lon="6.33697">
        <ele>1047</ele>
        <time>2016-07-14T15:01:02Z</time>
      </trkpt>
      <trkpt lat="46.7558" lon="6.33708">
        <ele>1049</ele>
        <time>2016-07-14T15:01:07Z</time>
      </trkpt>
      <trkpt lat="46.75588" lon="6.33719">
        <ele>1042</ele>
        <time>2016-07-14T15:01:12Z</time>
      </trkpt>
      <trkpt lat="46.75596" lon="6.3373">
        <ele>1043</ele>
        <time>2016-07-14T15:01:16Z</time>
      </trkpt>
      <trkpt lat="46.75609" lon="6.33745">
        <ele>1043</ele>
        <time>2016-07-14T15:01:21Z</time>
      </trkpt>
      <trkpt lat="46.75618" lon="6.33758">
        <ele>1050</ele>
        <time>2016-07-14T15:01:25Z</time>
      </trkpt>
      <trkpt lat="46.7562" lon="6.33762">
        <ele>1049</ele>
        <time>2016-07-14T15:01:26Z</time>
      </trkpt>
      <trkpt lat="46.75628" lon="6.33778">
        <ele>1049</ele>
        <time>2016-07-14T15:01:31Z</time>
      </trkpt>
      <trkpt lat="46.75637" lon="6.33795">
        <ele>1050</ele>
        <time>2016-07-14T15:01:36Z</time>
      </trkpt>
      <trkpt lat="46.75643" lon="6.33809">
        <ele>1050</ele>
        <time>2016-07-14T15:01:40Z</time>
      </trkpt>
      <trkpt lat="46.75649" lon="6.33823">
        <ele>1050</ele>
        <time>2016-07-14T15:01:44Z</time>
      </trkpt>
      <trkpt lat="46.75656" lon="6.33839">
        <ele>1055</ele>
        <time>2016-07-14T15:01:49Z</time>
      </trkpt>
      <trkpt lat="46.75661" lon="6.33853">
        <ele>1059</ele>
        <time>2016-07-14T15:01:53Z</time>
      </trkpt>
      <trkpt lat="46.75664" lon="6.3387">
        <ele>1062</ele>
        <time>2016-07-14T15:01:57Z</time>
      </trkpt>
      <trkpt lat="46.75669" lon="6.33878">
        <ele>1050</ele>
        <time>2016-07-14T15:02:00Z</time>
      </trkpt>
      <trkpt lat="46.75677" lon="6.33893">
        <ele>1052</ele>
        <time>2016-07-14T15:02:05Z</time>
      </trkpt>
      <trkpt lat="46.75683" lon="6.3391">
        <ele>1055</ele>
        <time>2016-07-14T15:02:09Z</time>
      </trkpt>
      <trkpt lat="46.7569" lon="6.33929">
        <ele>1060</ele>
        <time>2016-07-14T15:02:14Z</time>
      </trkpt>
      <trkpt lat="46.75693" lon="6.3394">
        <ele>1059</ele>
        <time>2016-07-14T15:02:19Z</time>
      </trkpt>
      <trkpt lat="46.75701" lon="6.3397">
        <ele>1061</ele>
        <time>2016-07-14T15:02:23Z</time>
      </trkpt>
      <trkpt lat="46.75707" lon="6.33987">
        <ele>1061</ele>
        <time>2016-07-14T15:02:28Z</time>
      </trkpt>
      <trkpt lat="46.75708" lon="6.33991">
        <ele>1061</ele>
        <time>2016-07-14T15:02:31Z</time>
      </trkpt>
      <trkpt lat="46.75716" lon="6.34014">
        <ele>1068</ele>
        <time>2016-07-14T15:02:35Z</time>
      </trkpt>
      <trkpt lat="46.75724" lon="6.34029">
        <ele>1068</ele>
        <time>2016-07-14T15:02:40Z</time>
      </trkpt>
      <trkpt lat="46.7573" lon="6.34049">
        <ele>1069</ele>
        <time>2016-07-14T15:02:45Z</time>
      </trkpt>
      <trkpt lat="46.75735" lon="6.34065">
        <ele>1069</ele>
        <time>2016-07-14T15:02:49Z</time>
      </trkpt>
      <trkpt lat="46.75743" lon="6.34087">
        <ele>1069</ele>
        <time>2016-07-14T15:02:53Z</time>
      </trkpt>
      <trkpt lat="46.75752" lon="6.34107">
        <ele>1060</ele>
        <time>2016-07-14T15:02:57Z</time>
      </trkpt>
      <trkpt lat="46.75766" lon="6.34129">
        <ele>1059</ele>
        <time>2016-07-14T15:03:02Z</time>
      </trkpt>
      <trkpt lat="46.75776" lon="6.34147">
        <ele>1060</ele>
        <time>2016-07-14T15:03:06Z</time>
      </trkpt>
      <trkpt lat="46.75787" lon="6.34163">
        <ele>1058</ele>
        <time>2016-07-14T15:03:10Z</time>
      </trkpt>
      <trkpt lat="46.75815" lon="6.3419">
        <ele>1059</ele>
        <time>2016-07-14T15:03:14Z</time>
      </trkpt>
      <trkpt lat="46.75836" lon="6.3419">
        <ele>1047</ele>
        <time>2016-07-14T15:03:18Z</time>
      </trkpt>
      <trkpt lat="46.75853" lon="6.34185">
        <ele>1046</ele>
        <time>2016-07-14T15:03:23Z</time>
      </trkpt>
      <trkpt lat="46.7586" lon="6.3419">
        <ele>1045</ele>
        <time>2016-07-14T15:03:31Z</time>
      </trkpt>
      <trkpt lat="46.75867" lon="6.34186">
        <ele>1045</ele>
        <time>2016-07-14T15:03:55Z</time>
      </trkpt>
      <trkpt lat="46.75877" lon="6.3418">
        <ele>1043</ele>
        <time>2016-07-14T15:03:59Z</time>
      </trkpt>
      <trkpt lat="46.75892" lon="6.34176">
        <ele>1041</ele>
        <time>2016-07-14T15:04:03Z</time>
      </trkpt>
      <trkpt lat="46.75899" lon="6.34172">
        <ele>1039</ele>
        <time>2016-07-14T15:04:08Z</time>
      </trkpt>
      <trkpt lat="46.75918" lon="6.34164">
        <ele>1032</ele>
        <time>2016-07-14T15:04:12Z</time>
      </trkpt>
      <trkpt lat="46.75936" lon="6.34155">
        <ele>1028</ele>
        <time>2016-07-14T15:04:17Z</time>
      </trkpt>
      <trkpt lat="46.75939" lon="6.34163">
        <ele>1028</ele>
        <time>2016-07-14T15:04:26Z</time>
      </trkpt>
      <trkpt lat="46.7594" lon="6.3418">
        <ele>1031</ele>
        <time>2016-07-14T15:04:30Z</time>
      </trkpt>
      <trkpt lat="46.75941" lon="6.34193">
        <ele>1030</ele>
        <time>2016-07-14T15:04:34Z</time>
      </trkpt>
      <trkpt lat="46.75942" lon="6.34208">
        <ele>1031</ele>
        <time>2016-07-14T15:04:39Z</time>
      </trkpt>
      <trkpt lat="46.75942" lon="6.34213">
        <ele>1031</ele>
        <time>2016-07-14T15:04:42Z</time>
      </trkpt>
      <trkpt lat="46.75943" lon="6.34231">
        <ele>1032</ele>
        <time>2016-07-14T15:04:47Z</time>
      </trkpt>
      <trkpt lat="46.75944" lon="6.34243">
        <ele>1033</ele>
        <time>2016-07-14T15:04:52Z</time>
      </trkpt>
      <trkpt lat="46.75945" lon="6.34254">
        <ele>1038</ele>
        <time>2016-07-14T15:04:56Z</time>
      </trkpt>
      <trkpt lat="46.75945" lon="6.34268">
        <ele>1038</ele>
        <time>2016-07-14T15:05:01Z</time>
      </trkpt>
      <trkpt lat="46.75946" lon="6.34278">
        <ele>1039</ele>
        <time>2016-07-14T15:05:05Z</time>
      </trkpt>
      <trkpt lat="46.75948" lon="6.34292">
        <ele>1039</ele>
        <time>2016-07-14T15:05:10Z</time>
      </trkpt>
      <trkpt lat="46.75948" lon="6.34297">
        <ele>1040</ele>
        <time>2016-07-14T15:05:14Z</time>
      </trkpt>
      <trkpt lat="46.75951" lon="6.34318">
        <ele>1041</ele>
        <time>2016-07-14T15:05:19Z</time>
      </trkpt>
      <trkpt lat="46.75954" lon="6.34328">
        <ele>1041</ele>
        <time>2016-07-14T15:05:23Z</time>
      </trkpt>
      <trkpt lat="46.75958" lon="6.34337">
        <ele>1049</ele>
        <time>2016-07-14T15:05:27Z</time>
      </trkpt>
      <trkpt lat="46.75963" lon="6.34347">
        <ele>1048</ele>
        <time>2016-07-14T15:05:32Z</time>
      </trkpt>
      <trkpt lat="46.75969" lon="6.34355">
        <ele>1048</ele>
        <time>2016-07-14T15:05:37Z</time>
      </trkpt>
      <trkpt lat="46.75975" lon="6.34362">
        <ele>1048</ele>
        <time>2016-07-14T15:05:43Z</time>
      </trkpt>
      <trkpt lat="46.7598" lon="6.34368">
        <ele>1048</ele>
        <time>2016-07-14T15:05:48Z</time>
      </trkpt>
      <trkpt lat="46.75982" lon="6.3438">
        <ele>1049</ele>
        <time>2016-07-14T15:05:53Z</time>
      </trkpt>
      <trkpt lat="46.75978" lon="6.3439">
        <ele>1050</ele>
        <time>2016-07-14T15:06:04Z</time>
      </trkpt>
      <trkpt lat="46.75976" lon="6.34403">
        <ele>1051</ele>
        <time>2016-07-14T15:06:13Z</time>
      </trkpt>
      <trkpt lat="46.75981" lon="6.34413">
        <ele>1050</ele>
        <time>2016-07-14T15:06:23Z</time>
      </trkpt>
      <trkpt lat="46.75986" lon="6.3442">
        <ele>1055</ele>
        <time>2016-07-14T15:06:28Z</time>
      </trkpt>
      <trkpt lat="46.75996" lon="6.34429">
        <ele>1054</ele>
        <time>2016-07-14T15:06:35Z</time>
      </trkpt>
      <trkpt lat="46.76005" lon="6.34438">
        <ele>1051</ele>
        <time>2016-07-14T15:06:40Z</time>
      </trkpt>
      <trkpt lat="46.76013" lon="6.34447">
        <ele>1052</ele>
        <time>2016-07-14T15:06:45Z</time>
      </trkpt>
      <trkpt lat="46.76018" lon="6.34456">
        <ele>1053</ele>
        <time>2016-07-14T15:06:51Z</time>
      </trkpt>
      <trkpt lat="46.76023" lon="6.34467">
        <ele>1054</ele>
        <time>2016-07-14T15:06:57Z</time>
      </trkpt>
      <trkpt lat="46.76023" lon="6.34479">
        <ele>1055</ele>
        <time>2016-07-14T15:07:20Z</time>
      </trkpt>
      <trkpt lat="46.76019" lon="6.3449">
        <ele>1056</ele>
        <time>2016-07-14T15:07:36Z</time>
      </trkpt>
      <trkpt lat="46.76019" lon="6.34502">
        <ele>1062</ele>
        <time>2016-07-14T15:07:46Z</time>
      </trkpt>
      <trkpt lat="46.76017" lon="6.34515">
        <ele>1063</ele>
        <time>2016-07-14T15:08:00Z</time>
      </trkpt>
      <trkpt lat="46.76016" lon="6.34526">
        <ele>1063</ele>
        <time>2016-07-14T15:08:16Z</time>
      </trkpt>
      <trkpt lat="46.7602" lon="6.34537">
        <ele>1064</ele>
        <time>2016-07-14T15:08:22Z</time>
      </trkpt>
      <trkpt lat="46.76023" lon="6.34549">
        <ele>1065</ele>
        <time>2016-07-14T15:08:34Z</time>
      </trkpt>
      <trkpt lat="46.76029" lon="6.34559">
        <ele>1065</ele>
        <time>2016-07-14T15:08:48Z</time>
      </trkpt>
      <trkpt lat="46.76034" lon="6.34569">
        <ele>1065</ele>
        <time>2016-07-14T15:08:59Z</time>
      </trkpt>
      <trkpt lat="46.76041" lon="6.34564">
        <ele>1065</ele>
        <time>2016-07-14T15:09:36Z</time>
      </trkpt>
      <trkpt lat="46.76053" lon="6.34555">
        <ele>1064</ele>
        <time>2016-07-14T15:09:41Z</time>
      </trkpt>
      <trkpt lat="46.76065" lon="6.34553">
        <ele>1063</ele>
        <time>2016-07-14T15:09:45Z</time>
      </trkpt>
      <trkpt lat="46.76079" lon="6.34566">
        <ele>1064</ele>
        <time>2016-07-14T15:09:50Z</time>
      </trkpt>
      <trkpt lat="46.76081" lon="6.34587">
        <ele>1066</ele>
        <time>2016-07-14T15:09:54Z</time>
      </trkpt>
      <trkpt lat="46.7609" lon="6.34603">
        <ele>1061</ele>
        <time>2016-07-14T15:09:59Z</time>
      </trkpt>
      <trkpt lat="46.76099" lon="6.34622">
        <ele>1059</ele>
        <time>2016-07-14T15:10:03Z</time>
      </trkpt>
      <trkpt lat="46.76107" lon="6.34625">
        <ele>1059</ele>
        <time>2016-07-14T15:10:07Z</time>
      </trkpt>
      <trkpt lat="46.76117" lon="6.34631">
        <ele>1058</ele>
        <time>2016-07-14T15:10:12Z</time>
      </trkpt>
      <trkpt lat="46.76127" lon="6.34659">
        <ele>1058</ele>
        <time>2016-07-14T15:10:17Z</time>
      </trkpt>
      <trkpt lat="46.7613" lon="6.34677">
        <ele>1064</ele>
        <time>2016-07-14T15:10:21Z</time>
      </trkpt>
      <trkpt lat="46.76142" lon="6.34688">
        <ele>1063</ele>
        <time>2016-07-14T15:10:26Z</time>
      </trkpt>
      <trkpt lat="46.76163" lon="6.34708">
        <ele>1064</ele>
        <time>2016-07-14T15:10:30Z</time>
      </trkpt>
      <trkpt lat="46.76197" lon="6.3472">
        <ele>1055</ele>
        <time>2016-07-14T15:10:35Z</time>
      </trkpt>
      <trkpt lat="46.76223" lon="6.34729">
        <ele>1052</ele>
        <time>2016-07-14T15:10:39Z</time>
      </trkpt>
      <trkpt lat="46.76222" lon="6.34739">
        <ele>1052</ele>
        <time>2016-07-14T15:10:46Z</time>
      </trkpt>
      <trkpt lat="46.76208" lon="6.34741">
        <ele>1054</ele>
        <time>2016-07-14T15:10:50Z</time>
      </trkpt>
      <trkpt lat="46.76197" lon="6.34737">
        <ele>1056</ele>
        <time>2016-07-14T15:10:54Z</time>
      </trkpt>
      <trkpt lat="46.76194" lon="6.34737">
        <ele>1057</ele>
        <time>2016-07-14T15:10:55Z</time>
      </trkpt>
      <trkpt lat="46.76124" lon="6.34691">
        <ele>1065</ele>
        <time>2016-07-14T15:11:33Z</time>
      </trkpt>
      <trkpt lat="46.76115" lon="6.34678">
        <ele>1065</ele>
        <time>2016-07-14T15:11:38Z</time>
      </trkpt>
      <trkpt lat="46.76109" lon="6.34668">
        <ele>1066</ele>
        <time>2016-07-14T15:11:42Z</time>
      </trkpt>
      <trkpt lat="46.76103" lon="6.34657">
        <ele>1062</ele>
        <time>2016-07-14T15:11:46Z</time>
      </trkpt>
      <trkpt lat="46.76097" lon="6.34647">
        <ele>1062</ele>
        <time>2016-07-14T15:11:50Z</time>
      </trkpt>
      <trkpt lat="46.76088" lon="6.3464">
        <ele>1062</ele>
        <time>2016-07-14T15:11:55Z</time>
      </trkpt>
      <trkpt lat="46.76075" lon="6.34637">
        <ele>1069</ele>
        <time>2016-07-14T15:12:00Z</time>
      </trkpt>
      <trkpt lat="46.76066" lon="6.34636">
        <ele>1070</ele>
        <time>2016-07-14T15:12:04Z</time>
      </trkpt>
      <trkpt lat="46.76055" lon="6.34638">
        <ele>1070</ele>
        <time>2016-07-14T15:12:09Z</time>
      </trkpt>
      <trkpt lat="46.76047" lon="6.34639">
        <ele>1070</ele>
        <time>2016-07-14T15:12:13Z</time>
      </trkpt>
      <trkpt lat="46.76039" lon="6.34641">
        <ele>1071</ele>
        <time>2016-07-14T15:12:17Z</time>
      </trkpt>
      <trkpt lat="46.7603" lon="6.34646">
        <ele>1071</ele>
        <time>2016-07-14T15:12:22Z</time>
      </trkpt>
      <trkpt lat="46.76023" lon="6.3465">
        <ele>1072</ele>
        <time>2016-07-14T15:12:26Z</time>
      </trkpt>
      <trkpt lat="46.76015" lon="6.34649">
        <ele>1072</ele>
        <time>2016-07-14T15:12:43Z</time>
      </trkpt>
      <trkpt lat="46.76012" lon="6.34639">
        <ele>1072</ele>
        <time>2016-07-14T15:12:48Z</time>
      </trkpt>
      <trkpt lat="46.76002" lon="6.34603">
        <ele>1071</ele>
        <time>2016-07-14T15:12:53Z</time>
      </trkpt>
      <trkpt lat="46.75995" lon="6.34594">
        <ele>1074</ele>
        <time>2016-07-14T15:12:55Z</time>
      </trkpt>
      <trkpt lat="46.75982" lon="6.34582">
        <ele>1072</ele>
        <time>2016-07-14T15:13:00Z</time>
      </trkpt>
      <trkpt lat="46.75974" lon="6.34594">
        <ele>1075</ele>
        <time>2016-07-14T15:13:05Z</time>
      </trkpt>
      <trkpt lat="46.75965" lon="6.34605">
        <ele>1076</ele>
        <time>2016-07-14T15:13:09Z</time>
      </trkpt>
      <trkpt lat="46.7595" lon="6.34588">
        <ele>1076</ele>
        <time>2016-07-14T15:13:14Z</time>
      </trkpt>
      <trkpt lat="46.7594" lon="6.34577">
        <ele>1074</ele>
        <time>2016-07-14T15:13:18Z</time>
      </trkpt>
      <trkpt lat="46.75929" lon="6.34577">
        <ele>1076</ele>
        <time>2016-07-14T15:13:22Z</time>
      </trkpt>
      <trkpt lat="46.75922" lon="6.34589">
        <ele>1078</ele>
        <time>2016-07-14T15:13:26Z</time>
      </trkpt>
      <trkpt lat="46.75913" lon="6.34597">
        <ele>1082</ele>
        <time>2016-07-14T15:13:30Z</time>
      </trkpt>
      <trkpt lat="46.75917" lon="6.34607">
        <ele>1077</ele>
        <time>2016-07-14T15:13:36Z</time>
      </trkpt>
      <trkpt lat="46.7591" lon="6.34609">
        <ele>1084</ele>
        <time>2016-07-14T15:13:45Z</time>
      </trkpt>
      <trkpt lat="46.75899" lon="6.34607">
        <ele>1085</ele>
        <time>2016-07-14T15:13:49Z</time>
      </trkpt>
      <trkpt lat="46.7589" lon="6.34605">
        <ele>1086</ele>
        <time>2016-07-14T15:13:53Z</time>
      </trkpt>
      <trkpt lat="46.75878" lon="6.34602">
        <ele>1087</ele>
        <time>2016-07-14T15:13:57Z</time>
      </trkpt>
      <trkpt lat="46.75865" lon="6.346">
        <ele>1089</ele>
        <time>2016-07-14T15:14:02Z</time>
      </trkpt>
      <trkpt lat="46.75857" lon="6.34595">
        <ele>1089</ele>
        <time>2016-07-14T15:14:07Z</time>
      </trkpt>
      <trkpt lat="46.75848" lon="6.34569">
        <ele>1086</ele>
        <time>2016-07-14T15:14:12Z</time>
      </trkpt>
      <trkpt lat="46.75839" lon="6.3455">
        <ele>1085</ele>
        <time>2016-07-14T15:14:16Z</time>
      </trkpt>
      <trkpt lat="46.75835" lon="6.34521">
        <ele>1083</ele>
        <time>2016-07-14T15:14:21Z</time>
      </trkpt>
      <trkpt lat="46.75826" lon="6.34506">
        <ele>1087</ele>
        <time>2016-07-14T15:14:25Z</time>
      </trkpt>
      <trkpt lat="46.7582" lon="6.34498">
        <ele>1085</ele>
        <time>2016-07-14T15:14:27Z</time>
      </trkpt>
      <trkpt lat="46.75805" lon="6.34481">
        <ele>1088</ele>
        <time>2016-07-14T15:14:31Z</time>
      </trkpt>
      <trkpt lat="46.7581" lon="6.34492">
        <ele>1087</ele>
        <time>2016-07-14T15:14:42Z</time>
      </trkpt>
      <trkpt lat="46.75807" lon="6.34501">
        <ele>1092</ele>
        <time>2016-07-14T15:14:53Z</time>
      </trkpt>
      <trkpt lat="46.75798" lon="6.34501">
        <ele>1094</ele>
        <time>2016-07-14T15:15:04Z</time>
      </trkpt>
      <trkpt lat="46.75792" lon="6.34483">
        <ele>1089</ele>
        <time>2016-07-14T15:15:09Z</time>
      </trkpt>
      <trkpt lat="46.75788" lon="6.34494">
        <ele>1090</ele>
        <time>2016-07-14T15:15:17Z</time>
      </trkpt>
      <trkpt lat="46.75779" lon="6.3449">
        <ele>1092</ele>
        <time>2016-07-14T15:15:21Z</time>
      </trkpt>
      <trkpt lat="46.75774" lon="6.345">
        <ele>1093</ele>
        <time>2016-07-14T15:15:30Z</time>
      </trkpt>
      <trkpt lat="46.75767" lon="6.34494">
        <ele>1095</ele>
        <time>2016-07-14T15:15:36Z</time>
      </trkpt>
      <trkpt lat="46.75758" lon="6.34492">
        <ele>1097</ele>
        <time>2016-07-14T15:15:41Z</time>
      </trkpt>
      <trkpt lat="46.75754" lon="6.34504">
        <ele>1101</ele>
        <time>2016-07-14T15:15:57Z</time>
      </trkpt>
      <trkpt lat="46.7576" lon="6.34512">
        <ele>1100</ele>
        <time>2016-07-14T15:16:02Z</time>
      </trkpt>
      <trkpt lat="46.75783" lon="6.34537">
        <ele>1098</ele>
        <time>2016-07-14T15:16:06Z</time>
      </trkpt>
      <trkpt lat="46.75803" lon="6.34547">
        <ele>1096</ele>
        <time>2016-07-14T15:16:10Z</time>
      </trkpt>
      <trkpt lat="46.75834" lon="6.34595">
        <ele>1091</ele>
        <time>2016-07-14T15:16:15Z</time>
      </trkpt>
      <trkpt lat="46.75856" lon="6.34619">
        <ele>1090</ele>
        <time>2016-07-14T15:16:19Z</time>
      </trkpt>
      <trkpt lat="46.75862" lon="6.34617">
        <ele>1090</ele>
        <time>2016-07-14T15:16:24Z</time>
      </trkpt>
      <trkpt lat="46.75888" lon="6.34624">
        <ele>1087</ele>
        <time>2016-07-14T15:16:29Z</time>
      </trkpt>
      <trkpt lat="46.75912" lon="6.34634">
        <ele>1085</ele>
        <time>2016-07-14T15:16:33Z</time>
      </trkpt>
      <trkpt lat="46.75937" lon="6.34642">
        <ele>1078</ele>
        <time>2016-07-14T15:16:37Z</time>
      </trkpt>
      <trkpt lat="46.75965" lon="6.34657">
        <ele>1077</ele>
        <time>2016-07-14T15:16:42Z</time>
      </trkpt>
      <trkpt lat="46.75986" lon="6.34652">
        <ele>1076</ele>
        <time>2016-07-14T15:16:46Z</time>
      </trkpt>
      <trkpt lat="46.76016" lon="6.34662">
        <ele>1073</ele>
        <time>2016-07-14T15:16:51Z</time>
      </trkpt>
      <trkpt lat="46.76032" lon="6.34683">
        <ele>1073</ele>
        <time>2016-07-14T15:16:56Z</time>
      </trkpt>
      <trkpt lat="46.76046" lon="6.34697">
        <ele>1073</ele>
        <time>2016-07-14T15:17:00Z</time>
      </trkpt>
      <trkpt lat="46.7605" lon="6.34696">
        <ele>1072</ele>
        <time>2016-07-14T15:17:18Z</time>
      </trkpt>
      <trkpt lat="46.76065" lon="6.34681">
        <ele>1071</ele>
        <time>2016-07-14T15:17:22Z</time>
      </trkpt>
      <trkpt lat="46.76081" lon="6.34683">
        <ele>1071</ele>
        <time>2016-07-14T15:17:26Z</time>
      </trkpt>
      <trkpt lat="46.76087" lon="6.3469">
        <ele>1067</ele>
        <time>2016-07-14T15:17:30Z</time>
      </trkpt>
      <trkpt lat="46.76101" lon="6.34717">
        <ele>1067</ele>
        <time>2016-07-14T15:17:35Z</time>
      </trkpt>
      <trkpt lat="46.76108" lon="6.34719">
        <ele>1067</ele>
        <time>2016-07-14T15:17:37Z</time>
      </trkpt>
      <trkpt lat="46.76127" lon="6.34725">
        <ele>1067</ele>
        <time>2016-07-14T15:17:42Z</time>
      </trkpt>
      <trkpt lat="46.7615" lon="6.3474">
        <ele>1067</ele>
        <time>2016-07-14T15:17:46Z</time>
      </trkpt>
      <trkpt lat="46.7618" lon="6.34766">
        <ele>1065</ele>
        <time>2016-07-14T15:17:51Z</time>
      </trkpt>
      <trkpt lat="46.76195" lon="6.34766">
        <ele>1063</ele>
        <time>2016-07-14T15:17:55Z</time>
      </trkpt>
      <trkpt lat="46.7621" lon="6.34755">
        <ele>1061</ele>
        <time>2016-07-14T15:17:59Z</time>
      </trkpt>
      <trkpt lat="46.76234" lon="6.34745">
        <ele>1051</ele>
        <time>2016-07-14T15:18:04Z</time>
      </trkpt>
      <trkpt lat="46.76267" lon="6.3476">
        <ele>1049</ele>
        <time>2016-07-14T15:18:08Z</time>
      </trkpt>
      <trkpt lat="46.7627" lon="6.34742">
        <ele>1045</ele>
        <time>2016-07-14T15:18:12Z</time>
      </trkpt>
      <trkpt lat="46.76262" lon="6.34732">
        <ele>1045</ele>
        <time>2016-07-14T15:18:16Z</time>
      </trkpt>
      <trkpt lat="46.76254" lon="6.34731">
        <ele>1045</ele>
        <time>2016-07-14T15:18:21Z</time>
      </trkpt>
      <trkpt lat="46.76245" lon="6.3473">
        <ele>1050</ele>
        <time>2016-07-14T15:18:26Z</time>
      </trkpt>
      <trkpt lat="46.76237" lon="6.34734">
        <ele>1050</ele>
        <time>2016-07-14T15:18:33Z</time>
      </trkpt>
      <trkpt lat="46.76228" lon="6.34735">
        <ele>1051</ele>
        <time>2016-07-14T15:18:37Z</time>
      </trkpt>
      <trkpt lat="46.76221" lon="6.34736">
        <ele>1052</ele>
        <time>2016-07-14T15:18:41Z</time>
      </trkpt>
      <trkpt lat="46.76212" lon="6.34741">
        <ele>1054</ele>
        <time>2016-07-14T15:18:45Z</time>
      </trkpt>
      <trkpt lat="46.762" lon="6.34743">
        <ele>1056</ele>
        <time>2016-07-14T15:18:49Z</time>
      </trkpt>
      <trkpt lat="46.76189" lon="6.34742">
        <ele>1058</ele>
        <time>2016-07-14T15:18:53Z</time>
      </trkpt>
      <trkpt lat="46.76177" lon="6.34733">
        <ele>1060</ele>
        <time>2016-07-14T15:18:58Z</time>
      </trkpt>
      <trkpt lat="46.76165" lon="6.34724">
        <ele>1066</ele>
        <time>2016-07-14T15:19:03Z</time>
      </trkpt>
      <trkpt lat="46.76155" lon="6.34719">
        <ele>1065</ele>
        <time>2016-07-14T15:19:07Z</time>
      </trkpt>
      <trkpt lat="46.76145" lon="6.34711">
        <ele>1065</ele>
        <time>2016-07-14T15:19:11Z</time>
      </trkpt>
      <trkpt lat="46.76135" lon="6.34701">
        <ele>1065</ele>
        <time>2016-07-14T15:19:15Z</time>
      </trkpt>
      <trkpt lat="46.76127" lon="6.34692">
        <ele>1065</ele>
        <time>2016-07-14T15:19:19Z</time>
      </trkpt>
      <trkpt lat="46.76118" lon="6.34682">
        <ele>1065</ele>
        <time>2016-07-14T15:19:23Z</time>
      </trkpt>
      <trkpt lat="46.76106" lon="6.34657">
        <ele>1061</ele>
        <time>2016-07-14T15:19:30Z</time>
      </trkpt>
      <trkpt lat="46.76097" lon="6.34644">
        <ele>1061</ele>
        <time>2016-07-14T15:19:35Z</time>
      </trkpt>
      <trkpt lat="46.76085" lon="6.34636">
        <ele>1061</ele>
        <time>2016-07-14T15:19:39Z</time>
      </trkpt>
      <trkpt lat="46.76075" lon="6.34633">
        <ele>1069</ele>
        <time>2016-07-14T15:19:44Z</time>
      </trkpt>
      <trkpt lat="46.76062" lon="6.34633">
        <ele>1070</ele>
        <time>2016-07-14T15:19:48Z</time>
      </trkpt>
      <trkpt lat="46.76052" lon="6.34636">
        <ele>1070</ele>
        <time>2016-07-14T15:19:53Z</time>
      </trkpt>
      <trkpt lat="46.7604" lon="6.3464">
        <ele>1071</ele>
        <time>2016-07-14T15:19:58Z</time>
      </trkpt>
      <trkpt lat="46.76033" lon="6.3465">
        <ele>1071</ele>
        <time>2016-07-14T15:20:02Z</time>
      </trkpt>
      <trkpt lat="46.76029" lon="6.34651">
        <ele>1071</ele>
        <time>2016-07-14T15:20:05Z</time>
      </trkpt>
      <trkpt lat="46.7602" lon="6.34649">
        <ele>1072</ele>
        <time>2016-07-14T15:20:09Z</time>
      </trkpt>
      <trkpt lat="46.76015" lon="6.34641">
        <ele>1072</ele>
        <time>2016-07-14T15:20:20Z</time>
      </trkpt>
      <trkpt lat="46.75993" lon="6.34607">
        <ele>1075</ele>
        <time>2016-07-14T15:20:25Z</time>
      </trkpt>
      <trkpt lat="46.7598" lon="6.34586">
        <ele>1075</ele>
        <time>2016-07-14T15:20:29Z</time>
      </trkpt>
      <trkpt lat="46.7597" lon="6.34587">
        <ele>1075</ele>
        <time>2016-07-14T15:20:33Z</time>
      </trkpt>
      <trkpt lat="46.7596" lon="6.346">
        <ele>1076</ele>
        <time>2016-07-14T15:20:37Z</time>
      </trkpt>
      <trkpt lat="46.75946" lon="6.34588">
        <ele>1077</ele>
        <time>2016-07-14T15:20:42Z</time>
      </trkpt>
      <trkpt lat="46.75927" lon="6.34576">
        <ele>1076</ele>
        <time>2016-07-14T15:20:47Z</time>
      </trkpt>
      <trkpt lat="46.75913" lon="6.34589">
        <ele>1080</ele>
        <time>2016-07-14T15:20:51Z</time>
      </trkpt>
      <trkpt lat="46.7591" lon="6.34603">
        <ele>1083</ele>
        <time>2016-07-14T15:20:56Z</time>
      </trkpt>
      <trkpt lat="46.75918" lon="6.34611">
        <ele>1077</ele>
        <time>2016-07-14T15:21:00Z</time>
      </trkpt>
      <trkpt lat="46.7591" lon="6.34609">
        <ele>1084</ele>
        <time>2016-07-14T15:21:06Z</time>
      </trkpt>
      <trkpt lat="46.75903" lon="6.34606">
        <ele>1084</ele>
        <time>2016-07-14T15:21:10Z</time>
      </trkpt>
      <trkpt lat="46.7589" lon="6.34605">
        <ele>1086</ele>
        <time>2016-07-14T15:21:14Z</time>
      </trkpt>
      <trkpt lat="46.75876" lon="6.34602">
        <ele>1087</ele>
        <time>2016-07-14T15:21:18Z</time>
      </trkpt>
      <trkpt lat="46.75863" lon="6.34598">
        <ele>1089</ele>
        <time>2016-07-14T15:21:23Z</time>
      </trkpt>
      <trkpt lat="46.75856" lon="6.34594">
        <ele>1090</ele>
        <time>2016-07-14T15:21:38Z</time>
      </trkpt>
      <trkpt lat="46.75848" lon="6.34575">
        <ele>1087</ele>
        <time>2016-07-14T15:21:42Z</time>
      </trkpt>
      <trkpt lat="46.75838" lon="6.34546">
        <ele>1084</ele>
        <time>2016-07-14T15:21:47Z</time>
      </trkpt>
      <trkpt lat="46.75834" lon="6.34517">
        <ele>1082</ele>
        <time>2016-07-14T15:21:52Z</time>
      </trkpt>
      <trkpt lat="46.75812" lon="6.34489">
        <ele>1087</ele>
        <time>2016-07-14T15:21:56Z</time>
      </trkpt>
      <trkpt lat="46.75798" lon="6.34475">
        <ele>1088</ele>
        <time>2016-07-14T15:22:00Z</time>
      </trkpt>
      <trkpt lat="46.75804" lon="6.34484">
        <ele>1088</ele>
        <time>2016-07-14T15:22:12Z</time>
      </trkpt>
      <trkpt lat="46.75805" lon="6.34488">
        <ele>1088</ele>
        <time>2016-07-14T15:22:15Z</time>
      </trkpt>
      <trkpt lat="46.75815" lon="6.34503">
        <ele>1090</ele>
        <time>2016-07-14T15:22:19Z</time>
      </trkpt>
      <trkpt lat="46.75808" lon="6.34506">
        <ele>1092</ele>
        <time>2016-07-14T15:22:23Z</time>
      </trkpt>
      <trkpt lat="46.75797" lon="6.34488">
        <ele>1089</ele>
        <time>2016-07-14T15:22:28Z</time>
      </trkpt>
      <trkpt lat="46.75788" lon="6.34478">
        <ele>1090</ele>
        <time>2016-07-14T15:22:32Z</time>
      </trkpt>
      <trkpt lat="46.75788" lon="6.3449">
        <ele>1090</ele>
        <time>2016-07-14T15:22:37Z</time>
      </trkpt>
      <trkpt lat="46.7578" lon="6.34487">
        <ele>1092</ele>
        <time>2016-07-14T15:22:41Z</time>
      </trkpt>
      <trkpt lat="46.75774" lon="6.34494">
        <ele>1093</ele>
        <time>2016-07-14T15:22:50Z</time>
      </trkpt>
      <trkpt lat="46.75767" lon="6.34491">
        <ele>1094</ele>
        <time>2016-07-14T15:22:55Z</time>
      </trkpt>
      <trkpt lat="46.75756" lon="6.34487">
        <ele>1096</ele>
        <time>2016-07-14T15:22:59Z</time>
      </trkpt>
      <trkpt lat="46.75745" lon="6.34498">
        <ele>1104</ele>
        <time>2016-07-14T15:23:04Z</time>
      </trkpt>
      <trkpt lat="46.75754" lon="6.34508">
        <ele>1101</ele>
        <time>2016-07-14T15:23:09Z</time>
      </trkpt>
      <trkpt lat="46.75771" lon="6.34528">
        <ele>1099</ele>
        <time>2016-07-14T15:23:13Z</time>
      </trkpt>
      <trkpt lat="46.75808" lon="6.34554">
        <ele>1096</ele>
        <time>2016-07-14T15:23:18Z</time>
      </trkpt>
      <trkpt lat="46.75831" lon="6.3458">
        <ele>1093</ele>
        <time>2016-07-14T15:23:22Z</time>
      </trkpt>
      <trkpt lat="46.75845" lon="6.34601">
        <ele>1090</ele>
        <time>2016-07-14T15:23:26Z</time>
      </trkpt>
      <trkpt lat="46.75858" lon="6.34631">
        <ele>1091</ele>
        <time>2016-07-14T15:23:31Z</time>
      </trkpt>
      <trkpt lat="46.75854" lon="6.34626">
        <ele>1091</ele>
        <time>2016-07-14T15:23:48Z</time>
      </trkpt>
      <trkpt lat="46.75839" lon="6.34606">
        <ele>1091</ele>
        <time>2016-07-14T15:23:53Z</time>
      </trkpt>
      <trkpt lat="46.75825" lon="6.34602">
        <ele>1100</ele>
        <time>2016-07-14T15:23:57Z</time>
      </trkpt>
      <trkpt lat="46.75812" lon="6.34592">
        <ele>1102</ele>
        <time>2016-07-14T15:24:02Z</time>
      </trkpt>
      <trkpt lat="46.75807" lon="6.34606">
        <ele>1104</ele>
        <time>2016-07-14T15:24:06Z</time>
      </trkpt>
      <trkpt lat="46.75804" lon="6.3459">
        <ele>1103</ele>
        <time>2016-07-14T15:24:10Z</time>
      </trkpt>
      <trkpt lat="46.75799" lon="6.34575">
        <ele>1098</ele>
        <time>2016-07-14T15:24:14Z</time>
      </trkpt>
      <trkpt lat="46.75786" lon="6.34565">
        <ele>1099</ele>
        <time>2016-07-14T15:24:18Z</time>
      </trkpt>
      <trkpt lat="46.75777" lon="6.34559">
        <ele>1100</ele>
        <time>2016-07-14T15:24:22Z</time>
      </trkpt>
      <trkpt lat="46.75772" lon="6.34556">
        <ele>1101</ele>
        <time>2016-07-14T15:24:26Z</time>
      </trkpt>
      <trkpt lat="46.75754" lon="6.3454">
        <ele>1101</ele>
        <time>2016-07-14T15:24:30Z</time>
      </trkpt>
      <trkpt lat="46.75741" lon="6.34535">
        <ele>1115</ele>
        <time>2016-07-14T15:24:34Z</time>
      </trkpt>
      <trkpt lat="46.75746" lon="6.34542">
        <ele>1116</ele>
        <time>2016-07-14T15:24:40Z</time>
      </trkpt>
      <trkpt lat="46.75756" lon="6.3456">
        <ele>1103</ele>
        <time>2016-07-14T15:24:45Z</time>
      </trkpt>
      <trkpt lat="46.75765" lon="6.34568">
        <ele>1103</ele>
        <time>2016-07-14T15:24:49Z</time>
      </trkpt>
      <trkpt lat="46.75777" lon="6.34588">
        <ele>1108</ele>
        <time>2016-07-14T15:24:54Z</time>
      </trkpt>
      <trkpt lat="46.75787" lon="6.34614">
        <ele>1107</ele>
        <time>2016-07-14T15:24:59Z</time>
      </trkpt>
      <trkpt lat="46.75801" lon="6.34635">
        <ele>1107</ele>
        <time>2016-07-14T15:25:03Z</time>
      </trkpt>
      <trkpt lat="46.75819" lon="6.34659">
        <ele>1105</ele>
        <time>2016-07-14T15:25:08Z</time>
      </trkpt>
      <trkpt lat="46.75844" lon="6.34685">
        <ele>1100</ele>
        <time>2016-07-14T15:25:13Z</time>
      </trkpt>
      <trkpt lat="46.75854" lon="6.34703">
        <ele>1100</ele>
        <time>2016-07-14T15:25:17Z</time>
      </trkpt>
      <trkpt lat="46.75864" lon="6.34723">
        <ele>1100</ele>
        <time>2016-07-14T15:25:22Z</time>
      </trkpt>
      <trkpt lat="46.75873" lon="6.34727">
        <ele>1099</ele>
        <time>2016-07-14T15:25:25Z</time>
      </trkpt>
      <trkpt lat="46.75884" lon="6.34737">
        <ele>1097</ele>
        <time>2016-07-14T15:25:28Z</time>
      </trkpt>
      <trkpt lat="46.75891" lon="6.34758">
        <ele>1105</ele>
        <time>2016-07-14T15:25:32Z</time>
      </trkpt>
      <trkpt lat="46.75895" lon="6.34783">
        <ele>1108</ele>
        <time>2016-07-14T15:25:36Z</time>
      </trkpt>
      <trkpt lat="46.75913" lon="6.34805">
        <ele>1109</ele>
        <time>2016-07-14T15:25:41Z</time>
      </trkpt>
      <trkpt lat="46.75924" lon="6.34821">
        <ele>1100</ele>
        <time>2016-07-14T15:25:45Z</time>
      </trkpt>
      <trkpt lat="46.75943" lon="6.34841">
        <ele>1107</ele>
        <time>2016-07-14T15:25:49Z</time>
      </trkpt>
      <trkpt lat="46.75965" lon="6.34857">
        <ele>1105</ele>
        <time>2016-07-14T15:25:54Z</time>
      </trkpt>
      <trkpt lat="46.75972" lon="6.34855">
        <ele>1104</ele>
        <time>2016-07-14T15:25:58Z</time>
      </trkpt>
      <trkpt lat="46.75939" lon="6.34816">
        <ele>1095</ele>
        <time>2016-07-14T15:26:03Z</time>
      </trkpt>
      <trkpt lat="46.75924" lon="6.34783">
        <ele>1092</ele>
        <time>2016-07-14T15:26:08Z</time>
      </trkpt>
      <trkpt lat="46.75917" lon="6.34777">
        <ele>1091</ele>
        <time>2016-07-14T15:26:12Z</time>
      </trkpt>
      <trkpt lat="46.75912" lon="6.34767">
        <ele>1100</ele>
        <time>2016-07-14T15:26:16Z</time>
      </trkpt>
      <trkpt lat="46.75901" lon="6.34753">
        <ele>1100</ele>
        <time>2016-07-14T15:26:20Z</time>
      </trkpt>
      <trkpt lat="46.75893" lon="6.34733">
        <ele>1095</ele>
        <time>2016-07-14T15:26:24Z</time>
      </trkpt>
      <trkpt lat="46.75878" lon="6.347">
        <ele>1096</ele>
        <time>2016-07-14T15:26:28Z</time>
      </trkpt>
      <trkpt lat="46.75868" lon="6.34687">
        <ele>1097</ele>
        <time>2016-07-14T15:26:32Z</time>
      </trkpt>
      <trkpt lat="46.75839" lon="6.34663">
        <ele>1099</ele>
        <time>2016-07-14T15:26:36Z</time>
      </trkpt>
      <trkpt lat="46.75818" lon="6.3464">
        <ele>1106</ele>
        <time>2016-07-14T15:26:41Z</time>
      </trkpt>
      <trkpt lat="46.75811" lon="6.34621">
        <ele>1105</ele>
        <time>2016-07-14T15:26:45Z</time>
      </trkpt>
      <trkpt lat="46.75828" lon="6.34618">
        <ele>1103</ele>
        <time>2016-07-14T15:26:49Z</time>
      </trkpt>
      <trkpt lat="46.75847" lon="6.34641">
        <ele>1093</ele>
        <time>2016-07-14T15:26:53Z</time>
      </trkpt>
      <trkpt lat="46.75859" lon="6.34652">
        <ele>1092</ele>
        <time>2016-07-14T15:26:57Z</time>
      </trkpt>
      <trkpt lat="46.75876" lon="6.34665">
        <ele>1090</ele>
        <time>2016-07-14T15:27:01Z</time>
      </trkpt>
      <trkpt lat="46.759" lon="6.34675">
        <ele>1090</ele>
        <time>2016-07-14T15:27:05Z</time>
      </trkpt>
      <trkpt lat="46.7591" lon="6.34675">
        <ele>1086</ele>
        <time>2016-07-14T15:27:10Z</time>
      </trkpt>
      <trkpt lat="46.75915" lon="6.34653">
        <ele>1084</ele>
        <time>2016-07-14T15:27:14Z</time>
      </trkpt>
      <trkpt lat="46.75937" lon="6.34658">
        <ele>1078</ele>
        <time>2016-07-14T15:27:18Z</time>
      </trkpt>
      <trkpt lat="46.75947" lon="6.34686">
        <ele>1080</ele>
        <time>2016-07-14T15:27:22Z</time>
      </trkpt>
      <trkpt lat="46.75949" lon="6.34705">
        <ele>1080</ele>
        <time>2016-07-14T15:27:27Z</time>
      </trkpt>
      <trkpt lat="46.75957" lon="6.34688">
        <ele>1080</ele>
        <time>2016-07-14T15:27:32Z</time>
      </trkpt>
      <trkpt lat="46.75972" lon="6.34675">
        <ele>1078</ele>
        <time>2016-07-14T15:27:37Z</time>
      </trkpt>
      <trkpt lat="46.75989" lon="6.34663">
        <ele>1076</ele>
        <time>2016-07-14T15:27:42Z</time>
      </trkpt>
      <trkpt lat="46.75997" lon="6.34664">
        <ele>1075</ele>
        <time>2016-07-14T15:27:49Z</time>
      </trkpt>
      <trkpt lat="46.76002" lon="6.34652">
        <ele>1073</ele>
        <time>2016-07-14T15:30:14Z</time>
      </trkpt>
      <trkpt lat="46.75996" lon="6.34644">
        <ele>1076</ele>
        <time>2016-07-14T15:38:30Z</time>
      </trkpt>
      <trkpt lat="46.75981" lon="6.34652">
        <ele>1076</ele>
        <time>2016-07-14T15:38:35Z</time>
      </trkpt>
      <trkpt lat="46.75967" lon="6.34649">
        <ele>1077</ele>
        <time>2016-07-14T15:38:39Z</time>
      </trkpt>
      <trkpt lat="46.75952" lon="6.34637">
        <ele>1077</ele>
        <time>2016-07-14T15:38:43Z</time>
      </trkpt>
      <trkpt lat="46.7594" lon="6.34631">
        <ele>1077</ele>
        <time>2016-07-14T15:38:46Z</time>
      </trkpt>
      <trkpt lat="46.75929" lon="6.34621">
        <ele>1077</ele>
        <time>2016-07-14T15:38:50Z</time>
      </trkpt>
      <trkpt lat="46.75916" lon="6.3461">
        <ele>1084</ele>
        <time>2016-07-14T15:38:54Z</time>
      </trkpt>
      <trkpt lat="46.75907" lon="6.34596">
        <ele>1083</ele>
        <time>2016-07-14T15:38:58Z</time>
      </trkpt>
      <trkpt lat="46.75911" lon="6.34586">
        <ele>1080</ele>
        <time>2016-07-14T15:39:02Z</time>
      </trkpt>
      <trkpt lat="46.75918" lon="6.34567">
        <ele>1075</ele>
        <time>2016-07-14T15:39:06Z</time>
      </trkpt>
      <trkpt lat="46.7594" lon="6.34554">
        <ele>1073</ele>
        <time>2016-07-14T15:39:11Z</time>
      </trkpt>
      <trkpt lat="46.75959" lon="6.34549">
        <ele>1072</ele>
        <time>2016-07-14T15:39:15Z</time>
      </trkpt>
      <trkpt lat="46.75977" lon="6.34536">
        <ele>1071</ele>
        <time>2016-07-14T15:39:20Z</time>
      </trkpt>
      <trkpt lat="46.75995" lon="6.34559">
        <ele>1071</ele>
        <time>2016-07-14T15:39:24Z</time>
      </trkpt>
      <trkpt lat="46.75999" lon="6.34571">
        <ele>1072</ele>
        <time>2016-07-14T15:39:29Z</time>
      </trkpt>
      <trkpt lat="46.76014" lon="6.34586">
        <ele>1071</ele>
        <time>2016-07-14T15:39:33Z</time>
      </trkpt>
      <trkpt lat="46.76028" lon="6.34581">
        <ele>1066</ele>
        <time>2016-07-14T15:39:38Z</time>
      </trkpt>
      <trkpt lat="46.76033" lon="6.3459">
        <ele>1070</ele>
        <time>2016-07-14T15:39:42Z</time>
      </trkpt>
      <trkpt lat="46.76025" lon="6.34604">
        <ele>1071</ele>
        <time>2016-07-14T15:39:46Z</time>
      </trkpt>
      <trkpt lat="46.76007" lon="6.34606">
        <ele>1071</ele>
        <time>2016-07-14T15:39:51Z</time>
      </trkpt>
      <trkpt lat="46.75989" lon="6.34603">
        <ele>1075</ele>
        <time>2016-07-14T15:39:55Z</time>
      </trkpt>
      <trkpt lat="46.75973" lon="6.34586">
        <ele>1075</ele>
        <time>2016-07-14T15:40:00Z</time>
      </trkpt>
      <trkpt lat="46.75963" lon="6.3459">
        <ele>1076</ele>
        <time>2016-07-14T15:40:04Z</time>
      </trkpt>
      <trkpt lat="46.75958" lon="6.34602">
        <ele>1076</ele>
        <time>2016-07-14T15:40:09Z</time>
      </trkpt>
      <trkpt lat="46.75946" lon="6.34585">
        <ele>1077</ele>
        <time>2016-07-14T15:40:14Z</time>
      </trkpt>
      <trkpt lat="46.75935" lon="6.3458">
        <ele>1075</ele>
        <time>2016-07-14T15:40:18Z</time>
      </trkpt>
      <trkpt lat="46.75925" lon="6.34584">
        <ele>1078</ele>
        <time>2016-07-14T15:40:22Z</time>
      </trkpt>
      <trkpt lat="46.75915" lon="6.346">
        <ele>1083</ele>
        <time>2016-07-14T15:40:27Z</time>
      </trkpt>
      <trkpt lat="46.75919" lon="6.34611">
        <ele>1077</ele>
        <time>2016-07-14T15:40:33Z</time>
      </trkpt>
      <trkpt lat="46.7591" lon="6.34613">
        <ele>1085</ele>
        <time>2016-07-14T15:40:39Z</time>
      </trkpt>
      <trkpt lat="46.75899" lon="6.34609">
        <ele>1085</ele>
        <time>2016-07-14T15:40:43Z</time>
      </trkpt>
      <trkpt lat="46.75886" lon="6.34608">
        <ele>1087</ele>
        <time>2016-07-14T15:40:48Z</time>
      </trkpt>
      <trkpt lat="46.75872" lon="6.34606">
        <ele>1088</ele>
        <time>2016-07-14T15:40:53Z</time>
      </trkpt>
      <trkpt lat="46.75861" lon="6.34601">
        <ele>1089</ele>
        <time>2016-07-14T15:40:57Z</time>
      </trkpt>
      <trkpt lat="46.75853" lon="6.34588">
        <ele>1090</ele>
        <time>2016-07-14T15:41:01Z</time>
      </trkpt>
      <trkpt lat="46.75845" lon="6.34567">
        <ele>1086</ele>
        <time>2016-07-14T15:41:06Z</time>
      </trkpt>
      <trkpt lat="46.75837" lon="6.3454">
        <ele>1084</ele>
        <time>2016-07-14T15:41:10Z</time>
      </trkpt>
      <trkpt lat="46.75833" lon="6.34525">
        <ele>1091</ele>
        <time>2016-07-14T15:41:13Z</time>
      </trkpt>
      <trkpt lat="46.75815" lon="6.34491">
        <ele>1086</ele>
        <time>2016-07-14T15:41:18Z</time>
      </trkpt>
      <trkpt lat="46.75808" lon="6.34483">
        <ele>1087</ele>
        <time>2016-07-14T15:41:20Z</time>
      </trkpt>
      <trkpt lat="46.758" lon="6.34464">
        <ele>1088</ele>
        <time>2016-07-14T15:41:25Z</time>
      </trkpt>
      <trkpt lat="46.758" lon="6.34474">
        <ele>1088</ele>
        <time>2016-07-14T15:41:30Z</time>
      </trkpt>
      <trkpt lat="46.75807" lon="6.34489">
        <ele>1087</ele>
        <time>2016-07-14T15:41:35Z</time>
      </trkpt>
      <trkpt lat="46.758" lon="6.34496">
        <ele>1088</ele>
        <time>2016-07-14T15:41:41Z</time>
      </trkpt>
      <trkpt lat="46.75805" lon="6.34509">
        <ele>1093</ele>
        <time>2016-07-14T15:41:45Z</time>
      </trkpt>
      <trkpt lat="46.758" lon="6.34501">
        <ele>1094</ele>
        <time>2016-07-14T15:41:50Z</time>
      </trkpt>
      <trkpt lat="46.75793" lon="6.34477">
        <ele>1089</ele>
        <time>2016-07-14T15:41:55Z</time>
      </trkpt>
      <trkpt lat="46.75794" lon="6.3449">
        <ele>1089</ele>
        <time>2016-07-14T15:42:03Z</time>
      </trkpt>
      <trkpt lat="46.75787" lon="6.34489">
        <ele>1090</ele>
        <time>2016-07-14T15:42:07Z</time>
      </trkpt>
      <trkpt lat="46.7578" lon="6.34496">
        <ele>1092</ele>
        <time>2016-07-14T15:42:15Z</time>
      </trkpt>
      <trkpt lat="46.75775" lon="6.34492">
        <ele>1093</ele>
        <time>2016-07-14T15:42:21Z</time>
      </trkpt>
      <trkpt lat="46.75764" lon="6.34493">
        <ele>1096</ele>
        <time>2016-07-14T15:42:26Z</time>
      </trkpt>
      <trkpt lat="46.75762" lon="6.34504">
        <ele>1100</ele>
        <time>2016-07-14T15:42:32Z</time>
      </trkpt>
      <trkpt lat="46.7577" lon="6.34521">
        <ele>1099</ele>
        <time>2016-07-14T15:42:37Z</time>
      </trkpt>
      <trkpt lat="46.7579" lon="6.34531">
        <ele>1097</ele>
        <time>2016-07-14T15:42:41Z</time>
      </trkpt>
      <trkpt lat="46.75817" lon="6.34554">
        <ele>1095</ele>
        <time>2016-07-14T15:42:45Z</time>
      </trkpt>
      <trkpt lat="46.75846" lon="6.34594">
        <ele>1090</ele>
        <time>2016-07-14T15:42:50Z</time>
      </trkpt>
      <trkpt lat="46.75865" lon="6.34619">
        <ele>1089</ele>
        <time>2016-07-14T15:42:54Z</time>
      </trkpt>
      <trkpt lat="46.7588" lon="6.34624">
        <ele>1088</ele>
        <time>2016-07-14T15:42:58Z</time>
      </trkpt>
      <trkpt lat="46.75901" lon="6.34627">
        <ele>1086</ele>
        <time>2016-07-14T15:43:02Z</time>
      </trkpt>
      <trkpt lat="46.75913" lon="6.34631">
        <ele>1085</ele>
        <time>2016-07-14T15:43:05Z</time>
      </trkpt>
      <trkpt lat="46.75944" lon="6.34647">
        <ele>1078</ele>
        <time>2016-07-14T15:43:09Z</time>
      </trkpt>
      <trkpt lat="46.7597" lon="6.34658">
        <ele>1076</ele>
        <time>2016-07-14T15:43:14Z</time>
      </trkpt>
      <trkpt lat="46.75994" lon="6.34657">
        <ele>1076</ele>
        <time>2016-07-14T15:43:19Z</time>
      </trkpt>
      <trkpt lat="46.76014" lon="6.3467">
        <ele>1074</ele>
        <time>2016-07-14T15:43:23Z</time>
      </trkpt>
      <trkpt lat="46.76029" lon="6.34683">
        <ele>1073</ele>
        <time>2016-07-14T15:43:28Z</time>
      </trkpt>
      <trkpt lat="46.76036" lon="6.34691">
        <ele>1073</ele>
        <time>2016-07-14T15:43:32Z</time>
      </trkpt>
      <trkpt lat="46.76039" lon="6.34703">
        <ele>1073</ele>
        <time>2016-07-14T15:44:11Z</time>
      </trkpt>
      <trkpt lat="46.7604" lon="6.34708">
        <ele>1073</ele>
        <time>2016-07-14T15:52:28Z</time>
      </trkpt>
      <trkpt lat="46.76062" lon="6.34692">
        <ele>1072</ele>
        <time>2016-07-14T15:52:32Z</time>
      </trkpt>
      <trkpt lat="46.76083" lon="6.3469">
        <ele>1071</ele>
        <time>2016-07-14T15:52:37Z</time>
      </trkpt>
      <trkpt lat="46.76096" lon="6.34707">
        <ele>1067</ele>
        <time>2016-07-14T15:52:42Z</time>
      </trkpt>
      <trkpt lat="46.76101" lon="6.34718">
        <ele>1067</ele>
        <time>2016-07-14T15:52:46Z</time>
      </trkpt>
      <trkpt lat="46.76108" lon="6.34724">
        <ele>1067</ele>
        <time>2016-07-14T15:52:51Z</time>
      </trkpt>
      <trkpt lat="46.7613" lon="6.3473">
        <ele>1067</ele>
        <time>2016-07-14T15:52:56Z</time>
      </trkpt>
      <trkpt lat="46.76157" lon="6.3475">
        <ele>1068</ele>
        <time>2016-07-14T15:53:00Z</time>
      </trkpt>
      <trkpt lat="46.76191" lon="6.34776">
        <ele>1063</ele>
        <time>2016-07-14T15:53:05Z</time>
      </trkpt>
      <trkpt lat="46.76204" lon="6.34764">
        <ele>1062</ele>
        <time>2016-07-14T15:53:09Z</time>
      </trkpt>
      <trkpt lat="46.76222" lon="6.34757">
        <ele>1058</ele>
        <time>2016-07-14T15:53:13Z</time>
      </trkpt>
      <trkpt lat="46.76251" lon="6.34757">
        <ele>1048</ele>
        <time>2016-07-14T15:53:18Z</time>
      </trkpt>
      <trkpt lat="46.76271" lon="6.34764">
        <ele>1049</ele>
        <time>2016-07-14T15:53:22Z</time>
      </trkpt>
      <trkpt lat="46.76275" lon="6.34749">
        <ele>1045</ele>
        <time>2016-07-14T15:53:26Z</time>
      </trkpt>
      <trkpt lat="46.76274" lon="6.34738">
        <ele>1045</ele>
        <time>2016-07-14T15:53:34Z</time>
      </trkpt>
      <trkpt lat="46.76272" lon="6.3472">
        <ele>1044</ele>
        <time>2016-07-14T15:53:38Z</time>
      </trkpt>
      <trkpt lat="46.76277" lon="6.34708">
        <ele>1043</ele>
        <time>2016-07-14T15:53:42Z</time>
      </trkpt>
      <trkpt lat="46.76277" lon="6.34721">
        <ele>1044</ele>
        <time>2016-07-14T15:53:47Z</time>
      </trkpt>
      <trkpt lat="46.76272" lon="6.34732">
        <ele>1045</ele>
        <time>2016-07-14T15:53:54Z</time>
      </trkpt>
      <trkpt lat="46.76277" lon="6.34746">
        <ele>1045</ele>
        <time>2016-07-14T15:53:58Z</time>
      </trkpt>
      <trkpt lat="46.76282" lon="6.34758">
        <ele>1048</ele>
        <time>2016-07-14T15:54:02Z</time>
      </trkpt>
      <trkpt lat="46.76287" lon="6.34771">
        <ele>1049</ele>
        <time>2016-07-14T15:54:05Z</time>
      </trkpt>
      <trkpt lat="46.76291" lon="6.3478">
        <ele>1049</ele>
        <time>2016-07-14T15:54:09Z</time>
      </trkpt>
      <trkpt lat="46.76299" lon="6.34789">
        <ele>1049</ele>
        <time>2016-07-14T15:54:14Z</time>
      </trkpt>
      <trkpt lat="46.76301" lon="6.348">
        <ele>1049</ele>
        <time>2016-07-14T15:54:20Z</time>
      </trkpt>
      <trkpt lat="46.76301" lon="6.34812">
        <ele>1049</ele>
        <time>2016-07-14T15:54:24Z</time>
      </trkpt>
      <trkpt lat="46.76297" lon="6.34825">
        <ele>1050</ele>
        <time>2016-07-14T15:54:28Z</time>
      </trkpt>
      <trkpt lat="46.76289" lon="6.34827">
        <ele>1051</ele>
        <time>2016-07-14T15:54:34Z</time>
      </trkpt>
      <trkpt lat="46.76288" lon="6.34845">
        <ele>1055</ele>
        <time>2016-07-14T15:54:38Z</time>
      </trkpt>
      <trkpt lat="46.76294" lon="6.34865">
        <ele>1055</ele>
        <time>2016-07-14T15:54:43Z</time>
      </trkpt>
      <trkpt lat="46.76294" lon="6.3488">
        <ele>1056</ele>
        <time>2016-07-14T15:54:47Z</time>
      </trkpt>
      <trkpt lat="46.76291" lon="6.34897">
        <ele>1057</ele>
        <time>2016-07-14T15:54:52Z</time>
      </trkpt>
      <trkpt lat="46.76289" lon="6.3491">
        <ele>1057</ele>
        <time>2016-07-14T15:54:56Z</time>
      </trkpt>
      <trkpt lat="46.76289" lon="6.34931">
        <ele>1060</ele>
        <time>2016-07-14T15:55:00Z</time>
      </trkpt>
      <trkpt lat="46.76289" lon="6.34944">
        <ele>1060</ele>
        <time>2016-07-14T15:55:05Z</time>
      </trkpt>
      <trkpt lat="46.76285" lon="6.34963">
        <ele>1061</ele>
        <time>2016-07-14T15:55:10Z</time>
      </trkpt>
      <trkpt lat="46.76283" lon="6.34979">
        <ele>1062</ele>
        <time>2016-07-14T15:55:14Z</time>
      </trkpt>
      <trkpt lat="46.76277" lon="6.34994">
        <ele>1063</ele>
        <time>2016-07-14T15:55:19Z</time>
      </trkpt>
      <trkpt lat="46.76273" lon="6.35004">
        <ele>1066</ele>
        <time>2016-07-14T15:55:23Z</time>
      </trkpt>
      <trkpt lat="46.76277" lon="6.35015">
        <ele>1066</ele>
        <time>2016-07-14T15:55:29Z</time>
      </trkpt>
      <trkpt lat="46.76279" lon="6.35028">
        <ele>1066</ele>
        <time>2016-07-14T15:55:33Z</time>
      </trkpt>
      <trkpt lat="46.76276" lon="6.35042">
        <ele>1067</ele>
        <time>2016-07-14T15:55:37Z</time>
      </trkpt>
      <trkpt lat="46.76272" lon="6.35051">
        <ele>1068</ele>
        <time>2016-07-14T15:55:41Z</time>
      </trkpt>
      <trkpt lat="46.76271" lon="6.35061">
        <ele>1068</ele>
        <time>2016-07-14T15:55:45Z</time>
      </trkpt>
      <trkpt lat="46.76274" lon="6.35073">
        <ele>1069</ele>
        <time>2016-07-14T15:55:49Z</time>
      </trkpt>
      <trkpt lat="46.76279" lon="6.35082">
        <ele>1069</ele>
        <time>2016-07-14T15:55:53Z</time>
      </trkpt>
      <trkpt lat="46.76286" lon="6.3509">
        <ele>1073</ele>
        <time>2016-07-14T15:55:59Z</time>
      </trkpt>
      <trkpt lat="46.76287" lon="6.35101">
        <ele>1073</ele>
        <time>2016-07-14T15:56:12Z</time>
      </trkpt>
      <trkpt lat="46.76292" lon="6.35112">
        <ele>1073</ele>
        <time>2016-07-14T15:56:17Z</time>
      </trkpt>
      <trkpt lat="46.76296" lon="6.35128">
        <ele>1073</ele>
        <time>2016-07-14T15:56:22Z</time>
      </trkpt>
      <trkpt lat="46.76298" lon="6.35137">
        <ele>1073</ele>
        <time>2016-07-14T15:56:25Z</time>
      </trkpt>
      <trkpt lat="46.76304" lon="6.35157">
        <ele>1073</ele>
        <time>2016-07-14T15:56:30Z</time>
      </trkpt>
      <trkpt lat="46.76308" lon="6.35173">
        <ele>1076</ele>
        <time>2016-07-14T15:56:34Z</time>
      </trkpt>
      <trkpt lat="46.76314" lon="6.35205">
        <ele>1078</ele>
        <time>2016-07-14T15:56:39Z</time>
      </trkpt>
      <trkpt lat="46.76326" lon="6.35256">
        <ele>1077</ele>
        <time>2016-07-14T15:56:43Z</time>
      </trkpt>
      <trkpt lat="46.76327" lon="6.35311">
        <ele>1082</ele>
        <time>2016-07-14T15:56:48Z</time>
      </trkpt>
      <trkpt lat="46.76335" lon="6.35337">
        <ele>1078</ele>
        <time>2016-07-14T15:56:52Z</time>
      </trkpt>
      <trkpt lat="46.76347" lon="6.35354">
        <ele>1074</ele>
        <time>2016-07-14T15:56:56Z</time>
      </trkpt>
      <trkpt lat="46.76363" lon="6.35376">
        <ele>1073</ele>
        <time>2016-07-14T15:57:01Z</time>
      </trkpt>
      <trkpt lat="46.76381" lon="6.35389">
        <ele>1070</ele>
        <time>2016-07-14T15:57:05Z</time>
      </trkpt>
      <trkpt lat="46.76402" lon="6.35412">
        <ele>1065</ele>
        <time>2016-07-14T15:57:10Z</time>
      </trkpt>
      <trkpt lat="46.76413" lon="6.35434">
        <ele>1068</ele>
        <time>2016-07-14T15:57:14Z</time>
      </trkpt>
      <trkpt lat="46.76428" lon="6.35467">
        <ele>1058</ele>
        <time>2016-07-14T15:57:18Z</time>
      </trkpt>
      <trkpt lat="46.76436" lon="6.35499">
        <ele>1061</ele>
        <time>2016-07-14T15:57:22Z</time>
      </trkpt>
      <trkpt lat="46.76446" lon="6.35534">
        <ele>1065</ele>
        <time>2016-07-14T15:57:27Z</time>
      </trkpt>
      <trkpt lat="46.76453" lon="6.35556">
        <ele>1065</ele>
        <time>2016-07-14T15:57:31Z</time>
      </trkpt>
      <trkpt lat="46.76467" lon="6.35572">
        <ele>1064</ele>
        <time>2016-07-14T15:57:34Z</time>
      </trkpt>
      <trkpt lat="46.76499" lon="6.356">
        <ele>1065</ele>
        <time>2016-07-14T15:57:39Z</time>
      </trkpt>
      <trkpt lat="46.76513" lon="6.35613">
        <ele>1056</ele>
        <time>2016-07-14T15:57:44Z</time>
      </trkpt>
      <trkpt lat="46.76528" lon="6.35625">
        <ele>1054</ele>
        <time>2016-07-14T15:57:48Z</time>
      </trkpt>
      <trkpt lat="46.76547" lon="6.35646">
        <ele>1052</ele>
        <time>2016-07-14T15:57:52Z</time>
      </trkpt>
      <trkpt lat="46.76554" lon="6.35675">
        <ele>1050</ele>
        <time>2016-07-14T15:57:56Z</time>
      </trkpt>
      <trkpt lat="46.7657" lon="6.3572">
        <ele>1048</ele>
        <time>2016-07-14T15:58:01Z</time>
      </trkpt>
      <trkpt lat="46.76591" lon="6.35753">
        <ele>1038</ele>
        <time>2016-07-14T15:58:05Z</time>
      </trkpt>
      <trkpt lat="46.76625" lon="6.35751">
        <ele>1033</ele>
        <time>2016-07-14T15:58:09Z</time>
      </trkpt>
      <trkpt lat="46.76659" lon="6.3575">
        <ele>1028</ele>
        <time>2016-07-14T15:58:13Z</time>
      </trkpt>
      <trkpt lat="46.76685" lon="6.35744">
        <ele>1024</ele>
        <time>2016-07-14T15:58:17Z</time>
      </trkpt>
      <trkpt lat="46.76731" lon="6.35714">
        <ele>1021</ele>
        <time>2016-07-14T15:58:22Z</time>
      </trkpt>
      <trkpt lat="46.76756" lon="6.35689">
        <ele>1017</ele>
        <time>2016-07-14T15:58:26Z</time>
      </trkpt>
      <trkpt lat="46.76783" lon="6.35676">
        <ele>1016</ele>
        <time>2016-07-14T15:58:31Z</time>
      </trkpt>
      <trkpt lat="46.76796" lon="6.35674">
        <ele>1015</ele>
        <time>2016-07-14T15:58:34Z</time>
      </trkpt>
      <trkpt lat="46.76806" lon="6.35671">
        <ele>1014</ele>
        <time>2016-07-14T15:58:38Z</time>
      </trkpt>
      <trkpt lat="46.76809" lon="6.35679">
        <ele>1014</ele>
        <time>2016-07-14T15:59:28Z</time>
      </trkpt>
      <trkpt lat="46.76806" lon="6.35699">
        <ele>1014</ele>
        <time>2016-07-14T15:59:32Z</time>
      </trkpt>
      <trkpt lat="46.768" lon="6.3572">
        <ele>1014</ele>
        <time>2016-07-14T15:59:36Z</time>
      </trkpt>
      <trkpt lat="46.76809" lon="6.35733">
        <ele>1013</ele>
        <time>2016-07-14T15:59:40Z</time>
      </trkpt>
      <trkpt lat="46.76825" lon="6.35727">
        <ele>1013</ele>
        <time>2016-07-14T15:59:44Z</time>
      </trkpt>
      <trkpt lat="46.7685" lon="6.35703">
        <ele>1010</ele>
        <time>2016-07-14T15:59:49Z</time>
      </trkpt>
      <trkpt lat="46.76871" lon="6.3571">
        <ele>1009</ele>
        <time>2016-07-14T15:59:53Z</time>
      </trkpt>
      <trkpt lat="46.76879" lon="6.35756">
        <ele>1009</ele>
        <time>2016-07-14T15:59:57Z</time>
      </trkpt>
      <trkpt lat="46.76883" lon="6.35789">
        <ele>1010</ele>
        <time>2016-07-14T16:00:02Z</time>
      </trkpt>
      <trkpt lat="46.76886" lon="6.35822">
        <ele>1010</ele>
        <time>2016-07-14T16:00:07Z</time>
      </trkpt>
      <trkpt lat="46.76881" lon="6.35837">
        <ele>1011</ele>
        <time>2016-07-14T16:00:11Z</time>
      </trkpt>
      <trkpt lat="46.76871" lon="6.3584">
        <ele>1012</ele>
        <time>2016-07-14T16:00:16Z</time>
      </trkpt>
      <trkpt lat="46.76863" lon="6.35842">
        <ele>1012</ele>
        <time>2016-07-14T16:00:20Z</time>
      </trkpt>
      <trkpt lat="46.76857" lon="6.35842">
        <ele>1012</ele>
        <time>2016-07-14T16:00:25Z</time>
      </trkpt>
      <trkpt lat="46.76849" lon="6.35848">
        <ele>1012</ele>
        <time>2016-07-14T16:00:29Z</time>
      </trkpt>
      <trkpt lat="46.76856" lon="6.35854">
        <ele>1012</ele>
        <time>2016-07-14T16:00:34Z</time>
      </trkpt>
      <trkpt lat="46.76862" lon="6.35858">
        <ele>1012</ele>
        <time>2016-07-14T16:00:42Z</time>
      </trkpt>
      <trkpt lat="46.76873" lon="6.35857">
        <ele>1012</ele>
        <time>2016-07-14T16:00:46Z</time>
      </trkpt>
      <trkpt lat="46.76878" lon="6.35864">
        <ele>1012</ele>
        <time>2016-07-14T16:00:51Z</time>
      </trkpt>
      <trkpt lat="46.76883" lon="6.35855">
        <ele>1011</ele>
        <time>2016-07-14T16:01:01Z</time>
      </trkpt>
      <trkpt lat="46.76877" lon="6.35862">
        <ele>1012</ele>
        <time>2016-07-14T16:01:06Z</time>
      </trkpt>
      <trkpt lat="46.76883" lon="6.35875">
        <ele>1012</ele>
        <time>2016-07-14T16:01:10Z</time>
      </trkpt>
      <trkpt lat="46.76883" lon="6.35859">
        <ele>1012</ele>
        <time>2016-07-14T16:01:14Z</time>
      </trkpt>
      <trkpt lat="46.76877" lon="6.35867">
        <ele>1012</ele>
        <time>2016-07-14T16:01:20Z</time>
      </trkpt>
      <trkpt lat="46.76884" lon="6.35863">
        <ele>1012</ele>
        <time>2016-07-14T16:01:25Z</time>
      </trkpt>
      <trkpt lat="46.76881" lon="6.35851">
        <ele>1011</ele>
        <time>2016-07-14T16:01:31Z</time>
      </trkpt>
      <trkpt lat="46.76877" lon="6.35869">
        <ele>1012</ele>
        <time>2016-07-14T16:01:34Z</time>
      </trkpt>
      <trkpt lat="46.76885" lon="6.35862">
        <ele>1012</ele>
        <time>2016-07-14T16:01:41Z</time>
      </trkpt>
      <trkpt lat="46.76876" lon="6.35855">
        <ele>1012</ele>
        <time>2016-07-14T16:01:46Z</time>
      </trkpt>
      <trkpt lat="46.76873" lon="6.35868">
        <ele>1012</ele>
        <time>2016-07-14T16:01:51Z</time>
      </trkpt>
      <trkpt lat="46.76868" lon="6.35877">
        <ele>1012</ele>
        <time>2016-07-14T16:01:58Z</time>
      </trkpt>
      <trkpt lat="46.76861" lon="6.35882">
        <ele>1012</ele>
        <time>2016-07-14T16:02:05Z</time>
      </trkpt>
      <trkpt lat="46.76853" lon="6.35881">
        <ele>1013</ele>
        <time>2016-07-14T16:02:11Z</time>
      </trkpt>
      <trkpt lat="46.76847" lon="6.35888">
        <ele>1013</ele>
        <time>2016-07-14T16:02:15Z</time>
      </trkpt>
      <trkpt lat="46.76854" lon="6.35885">
        <ele>1013</ele>
        <time>2016-07-14T16:02:28Z</time>
      </trkpt>
      <trkpt lat="46.76847" lon="6.35889">
        <ele>1013</ele>
        <time>2016-07-14T16:08:40Z</time>
      </trkpt>
      <trkpt lat="46.7684" lon="6.35894">
        <ele>1014</ele>
        <time>2016-07-14T16:08:44Z</time>
      </trkpt>
      <trkpt lat="46.76832" lon="6.35897">
        <ele>1017</ele>
        <time>2016-07-14T16:08:48Z</time>
      </trkpt>
      <trkpt lat="46.76833" lon="6.35886">
        <ele>1016</ele>
        <time>2016-07-14T16:08:53Z</time>
      </trkpt>
      <trkpt lat="46.76827" lon="6.35877">
        <ele>1016</ele>
        <time>2016-07-14T16:08:59Z</time>
      </trkpt>
      <trkpt lat="46.76817" lon="6.35903">
        <ele>1017</ele>
        <time>2016-07-14T16:09:04Z</time>
      </trkpt>
      <trkpt lat="46.7683" lon="6.35907">
        <ele>1016</ele>
        <time>2016-07-14T16:09:08Z</time>
      </trkpt>
      <trkpt lat="46.76839" lon="6.35902">
        <ele>1014</ele>
        <time>2016-07-14T16:09:12Z</time>
      </trkpt>
      <trkpt lat="46.76847" lon="6.35901">
        <ele>1014</ele>
        <time>2016-07-14T16:09:18Z</time>
      </trkpt>
      <trkpt lat="46.76847" lon="6.35889">
        <ele>1013</ele>
        <time>2016-07-14T16:09:37Z</time>
      </trkpt>
      <trkpt lat="46.76855" lon="6.35885">
        <ele>1013</ele>
        <time>2016-07-14T16:09:42Z</time>
      </trkpt>
      <trkpt lat="46.76847" lon="6.35891">
        <ele>1013</ele>
        <time>2016-07-14T16:10:05Z</time>
      </trkpt>
      <trkpt lat="46.76841" lon="6.35898">
        <ele>1014</ele>
        <time>2016-07-14T16:10:09Z</time>
      </trkpt>
      <trkpt lat="46.7685" lon="6.35899">
        <ele>1013</ele>
        <time>2016-07-14T16:10:26Z</time>
      </trkpt>
      <trkpt lat="46.76859" lon="6.35901">
        <ele>1013</ele>
        <time>2016-07-14T16:10:36Z</time>
      </trkpt>
      <trkpt lat="46.7685" lon="6.35898">
        <ele>1013</ele>
        <time>2016-07-14T16:10:55Z</time>
      </trkpt>
      <trkpt lat="46.76842" lon="6.35898">
        <ele>1014</ele>
        <time>2016-07-14T16:11:51Z</time>
      </trkpt>
      <trkpt lat="46.76847" lon="6.35888">
        <ele>1013</ele>
        <time>2016-07-14T16:12:31Z</time>
      </trkpt>
      <trkpt lat="46.76847" lon="6.35877">
        <ele>1013</ele>
        <time>2016-07-14T16:12:35Z</time>
      </trkpt>
      <trkpt lat="46.76844" lon="6.35865">
        <ele>1012</ele>
        <time>2016-07-14T16:12:42Z</time>
      </trkpt>
      <trkpt lat="46.76858" lon="6.3585">
        <ele>1012</ele>
        <time>2016-07-14T16:12:47Z</time>
      </trkpt>
      <trkpt lat="46.76865" lon="6.35843">
        <ele>1012</ele>
        <time>2016-07-14T16:12:54Z</time>
      </trkpt>
      <trkpt lat="46.76879" lon="6.35844">
        <ele>1011</ele>
        <time>2016-07-14T16:12:58Z</time>
      </trkpt>
      <trkpt lat="46.76889" lon="6.35837">
        <ele>1011</ele>
        <time>2016-07-14T16:13:01Z</time>
      </trkpt>
      <trkpt lat="46.76893" lon="6.35819">
        <ele>1010</ele>
        <time>2016-07-14T16:13:06Z</time>
      </trkpt>
      <trkpt lat="46.76894" lon="6.35805">
        <ele>1010</ele>
        <time>2016-07-14T16:13:11Z</time>
      </trkpt>
      <trkpt lat="46.76894" lon="6.35791">
        <ele>1009</ele>
        <time>2016-07-14T16:13:15Z</time>
      </trkpt>
      <trkpt lat="46.76892" lon="6.35771">
        <ele>1009</ele>
        <time>2016-07-14T16:13:20Z</time>
      </trkpt>
      <trkpt lat="46.76891" lon="6.35745">
        <ele>1009</ele>
        <time>2016-07-14T16:13:25Z</time>
      </trkpt>
      <trkpt lat="46.76889" lon="6.35725">
        <ele>1009</ele>
        <time>2016-07-14T16:13:29Z</time>
      </trkpt>
      <trkpt lat="46.76886" lon="6.35706">
        <ele>1009</ele>
        <time>2016-07-14T16:13:33Z</time>
      </trkpt>
      <trkpt lat="46.76886" lon="6.35682">
        <ele>1009</ele>
        <time>2016-07-14T16:13:38Z</time>
      </trkpt>
      <trkpt lat="46.76892" lon="6.35661">
        <ele>1009</ele>
        <time>2016-07-14T16:13:43Z</time>
      </trkpt>
      <trkpt lat="46.76908" lon="6.35644">
        <ele>1009</ele>
        <time>2016-07-14T16:13:47Z</time>
      </trkpt>
      <trkpt lat="46.76921" lon="6.35627">
        <ele>1006</ele>
        <time>2016-07-14T16:13:52Z</time>
      </trkpt>
      <trkpt lat="46.76935" lon="6.35612">
        <ele>1006</ele>
        <time>2016-07-14T16:13:56Z</time>
      </trkpt>
      <trkpt lat="46.7695" lon="6.35595">
        <ele>1005</ele>
        <time>2016-07-14T16:14:01Z</time>
      </trkpt>
      <trkpt lat="46.76963" lon="6.3558">
        <ele>1005</ele>
        <time>2016-07-14T16:14:05Z</time>
      </trkpt>
      <trkpt lat="46.76972" lon="6.35558">
        <ele>1005</ele>
        <time>2016-07-14T16:14:09Z</time>
      </trkpt>
      <trkpt lat="46.76974" lon="6.35548">
        <ele>1005</ele>
        <time>2016-07-14T16:14:13Z</time>
      </trkpt>
      <trkpt lat="46.76984" lon="6.35538">
        <ele>1005</ele>
        <time>2016-07-14T16:14:18Z</time>
      </trkpt>
      <trkpt lat="46.76998" lon="6.35526">
        <ele>1004</ele>
        <time>2016-07-14T16:14:23Z</time>
      </trkpt>
      <trkpt lat="46.77014" lon="6.35517">
        <ele>1002</ele>
        <time>2016-07-14T16:14:27Z</time>
      </trkpt>
      <trkpt lat="46.77033" lon="6.35506">
        <ele>1001</ele>
        <time>2016-07-14T16:14:31Z</time>
      </trkpt>
      <trkpt lat="46.77064" lon="6.35487">
        <ele>1000</ele>
        <time>2016-07-14T16:14:36Z</time>
      </trkpt>
      <trkpt lat="46.77092" lon="6.35456">
        <ele>995</ele>
        <time>2016-07-14T16:14:41Z</time>
      </trkpt>
      <trkpt lat="46.7712" lon="6.35415">
        <ele>993</ele>
        <time>2016-07-14T16:14:45Z</time>
      </trkpt>
      <trkpt lat="46.77152" lon="6.35358">
        <ele>990</ele>
        <time>2016-07-14T16:14:49Z</time>
      </trkpt>
      <trkpt lat="46.77184" lon="6.35319">
        <ele>983</ele>
        <time>2016-07-14T16:14:54Z</time>
      </trkpt>
      <trkpt lat="46.7722" lon="6.35287">
        <ele>981</ele>
        <time>2016-07-14T16:14:58Z</time>
      </trkpt>
      <trkpt lat="46.77271" lon="6.35246">
        <ele>975</ele>
        <time>2016-07-14T16:15:02Z</time>
      </trkpt>
      <trkpt lat="46.77312" lon="6.3522">
        <ele>972</ele>
        <time>2016-07-14T16:15:07Z</time>
      </trkpt>
      <trkpt lat="46.77329" lon="6.35218">
        <ele>972</ele>
        <time>2016-07-14T16:15:11Z</time>
      </trkpt>
      <trkpt lat="46.77332" lon="6.35223">
        <ele>972</ele>
        <time>2016-07-14T16:15:53Z</time>
      </trkpt>
      <trkpt lat="46.77332" lon="6.35223">
        <ele>972</ele>
        <time>2016-07-14T16:15:54Z</time>
      </trkpt>
    </trkseg>
  </trk>
</gpx>